<?xml version="1.0" encoding="UTF-8" standalone="no" ?>
<gpx xmlns="http://www.topografix.com/GPX/1/1" xmlns:xsi="http://www.w3.org/2001/XMLSchema-instance" xsi:schemaLocation="http://www.topografix.com/GPX/1/1 http://www.topografix.com/GPX/1/1/gpx.xsd" version="1.1" creator="VisuGPX - https://www.visugpx.com">
  <metadata>
    <name>rando-vezezoux-30km</name>
  </metadata>
  <trk>
    <name><![CDATA[Afternoon ride - VTT]]></name>
    <extensions>
      <line xmlns="http://www.topografix.com/GPX/gpx_style/0/2">
        <color>0000FF</color>
        <width>4</width>
      </line>
    </extensions>
    <trkseg>
      <trkpt lat="45.40327" lon="3.34532">
        <ele>451.1</ele>
        <time>2025-10-04T11:28:09Z</time>
      </trkpt>
      <trkpt lat="45.40325" lon="3.34552">
        <ele>451.3</ele>
        <time>2025-10-04T11:28:10Z</time>
      </trkpt>
      <trkpt lat="45.40317" lon="3.34571">
        <ele>452.1</ele>
        <time>2025-10-04T11:28:14Z</time>
      </trkpt>
      <trkpt lat="45.40309" lon="3.34582">
        <ele>452.3</ele>
        <time>2025-10-04T11:28:15Z</time>
      </trkpt>
      <trkpt lat="45.40288" lon="3.34599">
        <ele>452.7</ele>
        <time>2025-10-04T11:28:16Z</time>
      </trkpt>
      <trkpt lat="45.40261" lon="3.34618">
        <ele>452.3</ele>
        <time>2025-10-04T11:28:17Z</time>
      </trkpt>
      <trkpt lat="45.40233" lon="3.34639">
        <ele>454.4</ele>
        <time>2025-10-04T11:28:18Z</time>
      </trkpt>
      <trkpt lat="45.40229" lon="3.34639">
        <ele>454.2</ele>
        <time>2025-10-04T11:28:19Z</time>
      </trkpt>
      <trkpt lat="45.40218" lon="3.34645">
        <ele>453.6</ele>
        <time>2025-10-04T11:28:21Z</time>
      </trkpt>
      <trkpt lat="45.40202" lon="3.34646">
        <ele>453</ele>
        <time>2025-10-04T11:28:23Z</time>
      </trkpt>
      <trkpt lat="45.40196" lon="3.34644">
        <ele>452.6</ele>
        <time>2025-10-04T11:28:24Z</time>
      </trkpt>
      <trkpt lat="45.40188" lon="3.3464">
        <ele>452.4</ele>
        <time>2025-10-04T11:28:25Z</time>
      </trkpt>
      <trkpt lat="45.40171" lon="3.3463">
        <ele>450.8</ele>
        <time>2025-10-04T11:28:27Z</time>
      </trkpt>
      <trkpt lat="45.40162" lon="3.34624">
        <ele>450.4</ele>
        <time>2025-10-04T11:28:28Z</time>
      </trkpt>
      <trkpt lat="45.40153" lon="3.34619">
        <ele>449.4</ele>
        <time>2025-10-04T11:28:29Z</time>
      </trkpt>
      <trkpt lat="45.40134" lon="3.34608">
        <ele>447.6</ele>
        <time>2025-10-04T11:28:31Z</time>
      </trkpt>
      <trkpt lat="45.40103" lon="3.34591">
        <ele>445.8</ele>
        <time>2025-10-04T11:28:34Z</time>
      </trkpt>
      <trkpt lat="45.40086" lon="3.34582">
        <ele>443.8</ele>
        <time>2025-10-04T11:28:36Z</time>
      </trkpt>
      <trkpt lat="45.40067" lon="3.34572">
        <ele>442.2</ele>
        <time>2025-10-04T11:28:38Z</time>
      </trkpt>
      <trkpt lat="45.40049" lon="3.34562">
        <ele>441</ele>
        <time>2025-10-04T11:28:40Z</time>
      </trkpt>
      <trkpt lat="45.40031" lon="3.3456">
        <ele>440</ele>
        <time>2025-10-04T11:28:42Z</time>
      </trkpt>
      <trkpt lat="45.40022" lon="3.34561">
        <ele>439.2</ele>
        <time>2025-10-04T11:28:43Z</time>
      </trkpt>
      <trkpt lat="45.39997" lon="3.34568">
        <ele>438</ele>
        <time>2025-10-04T11:28:46Z</time>
      </trkpt>
      <trkpt lat="45.39983" lon="3.34573">
        <ele>437.2</ele>
        <time>2025-10-04T11:28:48Z</time>
      </trkpt>
      <trkpt lat="45.39969" lon="3.34578">
        <ele>436.6</ele>
        <time>2025-10-04T11:28:50Z</time>
      </trkpt>
      <trkpt lat="45.39956" lon="3.34583">
        <ele>436.4</ele>
        <time>2025-10-04T11:28:52Z</time>
      </trkpt>
      <trkpt lat="45.3995" lon="3.34585">
        <ele>436.2</ele>
        <time>2025-10-04T11:28:53Z</time>
      </trkpt>
      <trkpt lat="45.39931" lon="3.34592">
        <ele>435.6</ele>
        <time>2025-10-04T11:28:56Z</time>
      </trkpt>
      <trkpt lat="45.39907" lon="3.34601">
        <ele>435.2</ele>
        <time>2025-10-04T11:29:00Z</time>
      </trkpt>
      <trkpt lat="45.39885" lon="3.34616">
        <ele>434.8</ele>
        <time>2025-10-04T11:29:04Z</time>
      </trkpt>
      <trkpt lat="45.39876" lon="3.34626">
        <ele>434.6</ele>
        <time>2025-10-04T11:29:06Z</time>
      </trkpt>
      <trkpt lat="45.39871" lon="3.34633">
        <ele>434.6</ele>
        <time>2025-10-04T11:29:07Z</time>
      </trkpt>
      <trkpt lat="45.39853" lon="3.34661">
        <ele>434.4</ele>
        <time>2025-10-04T11:29:11Z</time>
      </trkpt>
      <trkpt lat="45.39848" lon="3.34669">
        <ele>434.2</ele>
        <time>2025-10-04T11:29:12Z</time>
      </trkpt>
      <trkpt lat="45.39838" lon="3.34688">
        <ele>433.2</ele>
        <time>2025-10-04T11:29:14Z</time>
      </trkpt>
      <trkpt lat="45.39833" lon="3.34699">
        <ele>432.6</ele>
        <time>2025-10-04T11:29:15Z</time>
      </trkpt>
      <trkpt lat="45.39827" lon="3.34709">
        <ele>431.6</ele>
        <time>2025-10-04T11:29:16Z</time>
      </trkpt>
      <trkpt lat="45.39813" lon="3.34727">
        <ele>430.6</ele>
        <time>2025-10-04T11:29:18Z</time>
      </trkpt>
      <trkpt lat="45.39805" lon="3.34735">
        <ele>430</ele>
        <time>2025-10-04T11:29:19Z</time>
      </trkpt>
      <trkpt lat="45.39793" lon="3.34749">
        <ele>429</ele>
        <time>2025-10-04T11:29:21Z</time>
      </trkpt>
      <trkpt lat="45.39786" lon="3.34755">
        <ele>428.4</ele>
        <time>2025-10-04T11:29:22Z</time>
      </trkpt>
      <trkpt lat="45.3978" lon="3.3476">
        <ele>427.4</ele>
        <time>2025-10-04T11:29:23Z</time>
      </trkpt>
      <trkpt lat="45.39772" lon="3.34764">
        <ele>427</ele>
        <time>2025-10-04T11:29:24Z</time>
      </trkpt>
      <trkpt lat="45.39764" lon="3.34766">
        <ele>426.2</ele>
        <time>2025-10-04T11:29:25Z</time>
      </trkpt>
      <trkpt lat="45.39757" lon="3.34768">
        <ele>423.6</ele>
        <time>2025-10-04T11:29:26Z</time>
      </trkpt>
      <trkpt lat="45.39749" lon="3.3477">
        <ele>422.2</ele>
        <time>2025-10-04T11:29:27Z</time>
      </trkpt>
      <trkpt lat="45.39743" lon="3.34772">
        <ele>420.2</ele>
        <time>2025-10-04T11:29:28Z</time>
      </trkpt>
      <trkpt lat="45.39739" lon="3.34773">
        <ele>419.2</ele>
        <time>2025-10-04T11:29:29Z</time>
      </trkpt>
      <trkpt lat="45.39735" lon="3.34773">
        <ele>417.4</ele>
        <time>2025-10-04T11:29:30Z</time>
      </trkpt>
      <trkpt lat="45.39732" lon="3.34772">
        <ele>415.8</ele>
        <time>2025-10-04T11:29:31Z</time>
      </trkpt>
      <trkpt lat="45.39731" lon="3.34769">
        <ele>414</ele>
        <time>2025-10-04T11:29:32Z</time>
      </trkpt>
      <trkpt lat="45.39731" lon="3.34763">
        <ele>413</ele>
        <time>2025-10-04T11:29:34Z</time>
      </trkpt>
      <trkpt lat="45.39731" lon="3.3476">
        <ele>412.6</ele>
        <time>2025-10-04T11:29:35Z</time>
      </trkpt>
      <trkpt lat="45.39731" lon="3.34754">
        <ele>412.4</ele>
        <time>2025-10-04T11:29:37Z</time>
      </trkpt>
      <trkpt lat="45.39733" lon="3.34739">
        <ele>412.2</ele>
        <time>2025-10-04T11:29:41Z</time>
      </trkpt>
      <trkpt lat="45.39733" lon="3.34727">
        <ele>412.6</ele>
        <time>2025-10-04T11:29:44Z</time>
      </trkpt>
      <trkpt lat="45.39732" lon="3.34719">
        <ele>412.8</ele>
        <time>2025-10-04T11:29:46Z</time>
      </trkpt>
      <trkpt lat="45.39731" lon="3.34708">
        <ele>413</ele>
        <time>2025-10-04T11:29:49Z</time>
      </trkpt>
      <trkpt lat="45.39731" lon="3.34701">
        <ele>413.2</ele>
        <time>2025-10-04T11:29:51Z</time>
      </trkpt>
      <trkpt lat="45.3973" lon="3.3469">
        <ele>414.2</ele>
        <time>2025-10-04T11:29:54Z</time>
      </trkpt>
      <trkpt lat="45.39729" lon="3.3468">
        <ele>415</ele>
        <time>2025-10-04T11:29:57Z</time>
      </trkpt>
      <trkpt lat="45.39729" lon="3.34672">
        <ele>415.4</ele>
        <time>2025-10-04T11:29:59Z</time>
      </trkpt>
      <trkpt lat="45.3973" lon="3.34666">
        <ele>416.2</ele>
        <time>2025-10-04T11:30:01Z</time>
      </trkpt>
      <trkpt lat="45.39731" lon="3.34662">
        <ele>416.6</ele>
        <time>2025-10-04T11:30:02Z</time>
      </trkpt>
      <trkpt lat="45.39733" lon="3.34652">
        <ele>417.2</ele>
        <time>2025-10-04T11:30:05Z</time>
      </trkpt>
      <trkpt lat="45.39734" lon="3.34644">
        <ele>417.6</ele>
        <time>2025-10-04T11:30:07Z</time>
      </trkpt>
      <trkpt lat="45.39735" lon="3.34641">
        <ele>418</ele>
        <time>2025-10-04T11:30:08Z</time>
      </trkpt>
      <trkpt lat="45.39735" lon="3.34637">
        <ele>418.6</ele>
        <time>2025-10-04T11:30:09Z</time>
      </trkpt>
      <trkpt lat="45.39738" lon="3.34612">
        <ele>419.6</ele>
        <time>2025-10-04T11:30:15Z</time>
      </trkpt>
      <trkpt lat="45.39738" lon="3.34607">
        <ele>419.8</ele>
        <time>2025-10-04T11:30:16Z</time>
      </trkpt>
      <trkpt lat="45.3974" lon="3.34599">
        <ele>420.4</ele>
        <time>2025-10-04T11:30:18Z</time>
      </trkpt>
      <trkpt lat="45.39743" lon="3.34588">
        <ele>420.8</ele>
        <time>2025-10-04T11:30:21Z</time>
      </trkpt>
      <trkpt lat="45.39748" lon="3.34576">
        <ele>422</ele>
        <time>2025-10-04T11:30:24Z</time>
      </trkpt>
      <trkpt lat="45.39762" lon="3.34541">
        <ele>422.8</ele>
        <time>2025-10-04T11:30:33Z</time>
      </trkpt>
      <trkpt lat="45.39764" lon="3.3453">
        <ele>422.8</ele>
        <time>2025-10-04T11:30:36Z</time>
      </trkpt>
      <trkpt lat="45.39761" lon="3.34527">
        <ele>423</ele>
        <time>2025-10-04T11:30:37Z</time>
      </trkpt>
      <trkpt lat="45.39742" lon="3.34521">
        <ele>423</ele>
        <time>2025-10-04T11:30:42Z</time>
      </trkpt>
      <trkpt lat="45.39709" lon="3.34508">
        <ele>422</ele>
        <time>2025-10-04T11:30:50Z</time>
      </trkpt>
      <trkpt lat="45.39666" lon="3.34495">
        <ele>421.4</ele>
        <time>2025-10-04T11:31:00Z</time>
      </trkpt>
      <trkpt lat="45.39652" lon="3.34493">
        <ele>421</ele>
        <time>2025-10-04T11:31:03Z</time>
      </trkpt>
      <trkpt lat="45.3963" lon="3.34491">
        <ele>420.6</ele>
        <time>2025-10-04T11:31:08Z</time>
      </trkpt>
      <trkpt lat="45.39621" lon="3.3449">
        <ele>420.2</ele>
        <time>2025-10-04T11:31:10Z</time>
      </trkpt>
      <trkpt lat="45.39617" lon="3.3449">
        <ele>420.2</ele>
        <time>2025-10-04T11:31:11Z</time>
      </trkpt>
      <trkpt lat="45.39596" lon="3.34487">
        <ele>420.2</ele>
        <time>2025-10-04T11:31:16Z</time>
      </trkpt>
      <trkpt lat="45.39579" lon="3.34484">
        <ele>420</ele>
        <time>2025-10-04T11:31:20Z</time>
      </trkpt>
      <trkpt lat="45.39563" lon="3.34482">
        <ele>419.4</ele>
        <time>2025-10-04T11:31:24Z</time>
      </trkpt>
      <trkpt lat="45.39556" lon="3.34483">
        <ele>419</ele>
        <time>2025-10-04T11:31:26Z</time>
      </trkpt>
      <trkpt lat="45.39554" lon="3.34483">
        <ele>419</ele>
        <time>2025-10-04T11:31:27Z</time>
      </trkpt>
      <trkpt lat="45.39553" lon="3.34481">
        <ele>418.4</ele>
        <time>2025-10-04T11:31:28Z</time>
      </trkpt>
      <trkpt lat="45.39552" lon="3.34478">
        <ele>418.2</ele>
        <time>2025-10-04T11:31:29Z</time>
      </trkpt>
      <trkpt lat="45.39552" lon="3.34475">
        <ele>417.8</ele>
        <time>2025-10-04T11:31:30Z</time>
      </trkpt>
      <trkpt lat="45.39554" lon="3.34468">
        <ele>417.6</ele>
        <time>2025-10-04T11:31:32Z</time>
      </trkpt>
      <trkpt lat="45.39556" lon="3.34466">
        <ele>417.4</ele>
        <time>2025-10-04T11:31:33Z</time>
      </trkpt>
      <trkpt lat="45.39569" lon="3.34453">
        <ele>416.4</ele>
        <time>2025-10-04T11:31:37Z</time>
      </trkpt>
      <trkpt lat="45.39576" lon="3.34446">
        <ele>416.2</ele>
        <time>2025-10-04T11:31:39Z</time>
      </trkpt>
      <trkpt lat="45.39604" lon="3.34421">
        <ele>417</ele>
        <time>2025-10-04T11:31:47Z</time>
      </trkpt>
      <trkpt lat="45.39608" lon="3.34418">
        <ele>417.4</ele>
        <time>2025-10-04T11:31:48Z</time>
      </trkpt>
      <trkpt lat="45.39633" lon="3.34397">
        <ele>418.4</ele>
        <time>2025-10-04T11:31:55Z</time>
      </trkpt>
      <trkpt lat="45.39641" lon="3.34391">
        <ele>418.6</ele>
        <time>2025-10-04T11:31:57Z</time>
      </trkpt>
      <trkpt lat="45.39654" lon="3.34378">
        <ele>419.4</ele>
        <time>2025-10-04T11:32:01Z</time>
      </trkpt>
      <trkpt lat="45.39667" lon="3.34363">
        <ele>420.2</ele>
        <time>2025-10-04T11:32:05Z</time>
      </trkpt>
      <trkpt lat="45.3967" lon="3.34359">
        <ele>420.6</ele>
        <time>2025-10-04T11:32:06Z</time>
      </trkpt>
      <trkpt lat="45.3967" lon="3.34347">
        <ele>420.8</ele>
        <time>2025-10-04T11:32:08Z</time>
      </trkpt>
      <trkpt lat="45.39664" lon="3.34336">
        <ele>421</ele>
        <time>2025-10-04T11:32:10Z</time>
      </trkpt>
      <trkpt lat="45.39657" lon="3.34326">
        <ele>421</ele>
        <time>2025-10-04T11:32:12Z</time>
      </trkpt>
      <trkpt lat="45.39637" lon="3.34287">
        <ele>420.2</ele>
        <time>2025-10-04T11:32:18Z</time>
      </trkpt>
      <trkpt lat="45.39625" lon="3.34259">
        <ele>419.4</ele>
        <time>2025-10-04T11:32:22Z</time>
      </trkpt>
      <trkpt lat="45.39621" lon="3.34242">
        <ele>419.4</ele>
        <time>2025-10-04T11:32:24Z</time>
      </trkpt>
      <trkpt lat="45.3962" lon="3.34215">
        <ele>419.2</ele>
        <time>2025-10-04T11:32:27Z</time>
      </trkpt>
      <trkpt lat="45.39619" lon="3.34187">
        <ele>419</ele>
        <time>2025-10-04T11:32:30Z</time>
      </trkpt>
      <trkpt lat="45.3962" lon="3.3414">
        <ele>418.4</ele>
        <time>2025-10-04T11:32:35Z</time>
      </trkpt>
      <trkpt lat="45.39619" lon="3.3413">
        <ele>418.2</ele>
        <time>2025-10-04T11:32:36Z</time>
      </trkpt>
      <trkpt lat="45.39619" lon="3.34121">
        <ele>418.2</ele>
        <time>2025-10-04T11:32:37Z</time>
      </trkpt>
      <trkpt lat="45.39614" lon="3.34093">
        <ele>417.6</ele>
        <time>2025-10-04T11:32:40Z</time>
      </trkpt>
      <trkpt lat="45.39611" lon="3.34085">
        <ele>417.4</ele>
        <time>2025-10-04T11:32:41Z</time>
      </trkpt>
      <trkpt lat="45.39607" lon="3.34076">
        <ele>417.2</ele>
        <time>2025-10-04T11:32:42Z</time>
      </trkpt>
      <trkpt lat="45.39588" lon="3.34039">
        <ele>416.6</ele>
        <time>2025-10-04T11:32:47Z</time>
      </trkpt>
      <trkpt lat="45.39581" lon="3.34024">
        <ele>416.2</ele>
        <time>2025-10-04T11:32:49Z</time>
      </trkpt>
      <trkpt lat="45.3956" lon="3.33984">
        <ele>415.6</ele>
        <time>2025-10-04T11:32:55Z</time>
      </trkpt>
      <trkpt lat="45.39548" lon="3.33961">
        <ele>415.4</ele>
        <time>2025-10-04T11:32:58Z</time>
      </trkpt>
      <trkpt lat="45.39543" lon="3.33952">
        <ele>415.2</ele>
        <time>2025-10-04T11:32:59Z</time>
      </trkpt>
      <trkpt lat="45.39538" lon="3.33944">
        <ele>415</ele>
        <time>2025-10-04T11:33:00Z</time>
      </trkpt>
      <trkpt lat="45.39533" lon="3.33936">
        <ele>414.8</ele>
        <time>2025-10-04T11:33:01Z</time>
      </trkpt>
      <trkpt lat="45.39505" lon="3.33906">
        <ele>413.8</ele>
        <time>2025-10-04T11:33:05Z</time>
      </trkpt>
      <trkpt lat="45.39499" lon="3.339">
        <ele>413.4</ele>
        <time>2025-10-04T11:33:06Z</time>
      </trkpt>
      <trkpt lat="45.39486" lon="3.33887">
        <ele>412.2</ele>
        <time>2025-10-04T11:33:08Z</time>
      </trkpt>
      <trkpt lat="45.39467" lon="3.3387">
        <ele>411</ele>
        <time>2025-10-04T11:33:11Z</time>
      </trkpt>
      <trkpt lat="45.39456" lon="3.33859">
        <ele>410.4</ele>
        <time>2025-10-04T11:33:13Z</time>
      </trkpt>
      <trkpt lat="45.39438" lon="3.33842">
        <ele>409.8</ele>
        <time>2025-10-04T11:33:17Z</time>
      </trkpt>
      <trkpt lat="45.39435" lon="3.3384">
        <ele>409.8</ele>
        <time>2025-10-04T11:33:18Z</time>
      </trkpt>
      <trkpt lat="45.39431" lon="3.33836">
        <ele>409.8</ele>
        <time>2025-10-04T11:33:21Z</time>
      </trkpt>
      <trkpt lat="45.3943" lon="3.33835">
        <ele>409.8</ele>
        <time>2025-10-04T11:33:22Z</time>
      </trkpt>
      <trkpt lat="45.39427" lon="3.33831">
        <ele>409.8</ele>
        <time>2025-10-04T11:33:24Z</time>
      </trkpt>
      <trkpt lat="45.39421" lon="3.33826">
        <ele>410</ele>
        <time>2025-10-04T11:33:26Z</time>
      </trkpt>
      <trkpt lat="45.39417" lon="3.33823">
        <ele>410</ele>
        <time>2025-10-04T11:33:27Z</time>
      </trkpt>
      <trkpt lat="45.39406" lon="3.33811">
        <ele>409.8</ele>
        <time>2025-10-04T11:33:30Z</time>
      </trkpt>
      <trkpt lat="45.39393" lon="3.33799">
        <ele>410</ele>
        <time>2025-10-04T11:33:33Z</time>
      </trkpt>
      <trkpt lat="45.3936" lon="3.33767">
        <ele>410</ele>
        <time>2025-10-04T11:33:40Z</time>
      </trkpt>
      <trkpt lat="45.39336" lon="3.3374">
        <ele>409.4</ele>
        <time>2025-10-04T11:33:44Z</time>
      </trkpt>
      <trkpt lat="45.3933" lon="3.33732">
        <ele>409.2</ele>
        <time>2025-10-04T11:33:45Z</time>
      </trkpt>
      <trkpt lat="45.39325" lon="3.33722">
        <ele>408.8</ele>
        <time>2025-10-04T11:33:46Z</time>
      </trkpt>
      <trkpt lat="45.3931" lon="3.33693">
        <ele>408.2</ele>
        <time>2025-10-04T11:33:49Z</time>
      </trkpt>
      <trkpt lat="45.39301" lon="3.33674">
        <ele>407</ele>
        <time>2025-10-04T11:33:51Z</time>
      </trkpt>
      <trkpt lat="45.39291" lon="3.33646">
        <ele>406</ele>
        <time>2025-10-04T11:33:54Z</time>
      </trkpt>
      <trkpt lat="45.39289" lon="3.33637">
        <ele>405.8</ele>
        <time>2025-10-04T11:33:55Z</time>
      </trkpt>
      <trkpt lat="45.39287" lon="3.33627">
        <ele>405.8</ele>
        <time>2025-10-04T11:33:56Z</time>
      </trkpt>
      <trkpt lat="45.39287" lon="3.33607">
        <ele>405.6</ele>
        <time>2025-10-04T11:33:58Z</time>
      </trkpt>
      <trkpt lat="45.39289" lon="3.33598">
        <ele>405.6</ele>
        <time>2025-10-04T11:33:59Z</time>
      </trkpt>
      <trkpt lat="45.39304" lon="3.33522">
        <ele>405.4</ele>
        <time>2025-10-04T11:34:07Z</time>
      </trkpt>
      <trkpt lat="45.39316" lon="3.33465">
        <ele>405</ele>
        <time>2025-10-04T11:34:13Z</time>
      </trkpt>
      <trkpt lat="45.3932" lon="3.33446">
        <ele>405</ele>
        <time>2025-10-04T11:34:15Z</time>
      </trkpt>
      <trkpt lat="45.39323" lon="3.33427">
        <ele>404.8</ele>
        <time>2025-10-04T11:34:17Z</time>
      </trkpt>
      <trkpt lat="45.39333" lon="3.33359">
        <ele>404.2</ele>
        <time>2025-10-04T11:34:24Z</time>
      </trkpt>
      <trkpt lat="45.39347" lon="3.33284">
        <ele>404</ele>
        <time>2025-10-04T11:34:32Z</time>
      </trkpt>
      <trkpt lat="45.39352" lon="3.33257">
        <ele>404.2</ele>
        <time>2025-10-04T11:34:35Z</time>
      </trkpt>
      <trkpt lat="45.39369" lon="3.33187">
        <ele>404.8</ele>
        <time>2025-10-04T11:34:43Z</time>
      </trkpt>
      <trkpt lat="45.39382" lon="3.33128">
        <ele>405.6</ele>
        <time>2025-10-04T11:34:50Z</time>
      </trkpt>
      <trkpt lat="45.3938" lon="3.33083">
        <ele>405.6</ele>
        <time>2025-10-04T11:34:55Z</time>
      </trkpt>
      <trkpt lat="45.39378" lon="3.33074">
        <ele>405.6</ele>
        <time>2025-10-04T11:34:56Z</time>
      </trkpt>
      <trkpt lat="45.39376" lon="3.33066">
        <ele>405.4</ele>
        <time>2025-10-04T11:34:57Z</time>
      </trkpt>
      <trkpt lat="45.39358" lon="3.33018">
        <ele>405</ele>
        <time>2025-10-04T11:35:03Z</time>
      </trkpt>
      <trkpt lat="45.39346" lon="3.32978">
        <ele>405.2</ele>
        <time>2025-10-04T11:35:08Z</time>
      </trkpt>
      <trkpt lat="45.39345" lon="3.32969">
        <ele>405.2</ele>
        <time>2025-10-04T11:35:09Z</time>
      </trkpt>
      <trkpt lat="45.39345" lon="3.32961">
        <ele>405.2</ele>
        <time>2025-10-04T11:35:10Z</time>
      </trkpt>
      <trkpt lat="45.39346" lon="3.32944">
        <ele>405.2</ele>
        <time>2025-10-04T11:35:12Z</time>
      </trkpt>
      <trkpt lat="45.39346" lon="3.32935">
        <ele>405.2</ele>
        <time>2025-10-04T11:35:13Z</time>
      </trkpt>
      <trkpt lat="45.39345" lon="3.32927">
        <ele>405.2</ele>
        <time>2025-10-04T11:35:14Z</time>
      </trkpt>
      <trkpt lat="45.3934" lon="3.32902">
        <ele>405.2</ele>
        <time>2025-10-04T11:35:17Z</time>
      </trkpt>
      <trkpt lat="45.39332" lon="3.32861">
        <ele>405.4</ele>
        <time>2025-10-04T11:35:22Z</time>
      </trkpt>
      <trkpt lat="45.39332" lon="3.32853">
        <ele>405.4</ele>
        <time>2025-10-04T11:35:23Z</time>
      </trkpt>
      <trkpt lat="45.39334" lon="3.32845">
        <ele>405.4</ele>
        <time>2025-10-04T11:35:24Z</time>
      </trkpt>
      <trkpt lat="45.3934" lon="3.32832">
        <ele>405.4</ele>
        <time>2025-10-04T11:35:26Z</time>
      </trkpt>
      <trkpt lat="45.39347" lon="3.32821">
        <ele>405.4</ele>
        <time>2025-10-04T11:35:28Z</time>
      </trkpt>
      <trkpt lat="45.3935" lon="3.32809">
        <ele>405.6</ele>
        <time>2025-10-04T11:35:30Z</time>
      </trkpt>
      <trkpt lat="45.39349" lon="3.32796">
        <ele>405.6</ele>
        <time>2025-10-04T11:35:32Z</time>
      </trkpt>
      <trkpt lat="45.39344" lon="3.32786">
        <ele>405.8</ele>
        <time>2025-10-04T11:35:34Z</time>
      </trkpt>
      <trkpt lat="45.39323" lon="3.32774">
        <ele>406.4</ele>
        <time>2025-10-04T11:35:39Z</time>
      </trkpt>
      <trkpt lat="45.3929" lon="3.32769">
        <ele>407</ele>
        <time>2025-10-04T11:35:46Z</time>
      </trkpt>
      <trkpt lat="45.39265" lon="3.32762">
        <ele>407</ele>
        <time>2025-10-04T11:35:52Z</time>
      </trkpt>
      <trkpt lat="45.39261" lon="3.3276">
        <ele>407.2</ele>
        <time>2025-10-04T11:35:53Z</time>
      </trkpt>
      <trkpt lat="45.39258" lon="3.32758">
        <ele>407.2</ele>
        <time>2025-10-04T11:35:54Z</time>
      </trkpt>
      <trkpt lat="45.39255" lon="3.32755">
        <ele>407.6</ele>
        <time>2025-10-04T11:35:55Z</time>
      </trkpt>
      <trkpt lat="45.39248" lon="3.32749">
        <ele>409.2</ele>
        <time>2025-10-04T11:35:57Z</time>
      </trkpt>
      <trkpt lat="45.39245" lon="3.32746">
        <ele>409.4</ele>
        <time>2025-10-04T11:35:58Z</time>
      </trkpt>
      <trkpt lat="45.39235" lon="3.32733">
        <ele>410</ele>
        <time>2025-10-04T11:36:02Z</time>
      </trkpt>
      <trkpt lat="45.39232" lon="3.32724">
        <ele>410.2</ele>
        <time>2025-10-04T11:36:04Z</time>
      </trkpt>
      <trkpt lat="45.39222" lon="3.32708">
        <ele>411</ele>
        <time>2025-10-04T11:36:08Z</time>
      </trkpt>
      <trkpt lat="45.39218" lon="3.327">
        <ele>411.2</ele>
        <time>2025-10-04T11:36:10Z</time>
      </trkpt>
      <trkpt lat="45.39215" lon="3.32695">
        <ele>411.4</ele>
        <time>2025-10-04T11:36:12Z</time>
      </trkpt>
      <trkpt lat="45.39204" lon="3.32688">
        <ele>412</ele>
        <time>2025-10-04T11:36:17Z</time>
      </trkpt>
      <trkpt lat="45.39194" lon="3.32691">
        <ele>412.4</ele>
        <time>2025-10-04T11:36:20Z</time>
      </trkpt>
      <trkpt lat="45.39188" lon="3.32693">
        <ele>412.4</ele>
        <time>2025-10-04T11:36:22Z</time>
      </trkpt>
      <trkpt lat="45.39176" lon="3.32704">
        <ele>413.2</ele>
        <time>2025-10-04T11:36:27Z</time>
      </trkpt>
      <trkpt lat="45.39171" lon="3.32709">
        <ele>413.4</ele>
        <time>2025-10-04T11:36:29Z</time>
      </trkpt>
      <trkpt lat="45.39162" lon="3.32718">
        <ele>414.4</ele>
        <time>2025-10-04T11:36:33Z</time>
      </trkpt>
      <trkpt lat="45.3916" lon="3.3272">
        <ele>414.6</ele>
        <time>2025-10-04T11:36:34Z</time>
      </trkpt>
      <trkpt lat="45.39152" lon="3.32729">
        <ele>415.8</ele>
        <time>2025-10-04T11:36:38Z</time>
      </trkpt>
      <trkpt lat="45.39146" lon="3.32734">
        <ele>416.4</ele>
        <time>2025-10-04T11:36:41Z</time>
      </trkpt>
      <trkpt lat="45.3914" lon="3.32741">
        <ele>416.8</ele>
        <time>2025-10-04T11:36:44Z</time>
      </trkpt>
      <trkpt lat="45.39132" lon="3.32749">
        <ele>418</ele>
        <time>2025-10-04T11:36:48Z</time>
      </trkpt>
      <trkpt lat="45.3913" lon="3.3275">
        <ele>418</ele>
        <time>2025-10-04T11:36:49Z</time>
      </trkpt>
      <trkpt lat="45.39124" lon="3.32756">
        <ele>419</ele>
        <time>2025-10-04T11:36:52Z</time>
      </trkpt>
      <trkpt lat="45.39112" lon="3.32763">
        <ele>420</ele>
        <time>2025-10-04T11:36:57Z</time>
      </trkpt>
      <trkpt lat="45.39111" lon="3.32765">
        <ele>420.2</ele>
        <time>2025-10-04T11:36:58Z</time>
      </trkpt>
      <trkpt lat="45.39101" lon="3.32773">
        <ele>421</ele>
        <time>2025-10-04T11:37:03Z</time>
      </trkpt>
      <trkpt lat="45.39093" lon="3.32777">
        <ele>422.2</ele>
        <time>2025-10-04T11:37:06Z</time>
      </trkpt>
      <trkpt lat="45.3909" lon="3.32777">
        <ele>422.4</ele>
        <time>2025-10-04T11:37:07Z</time>
      </trkpt>
      <trkpt lat="45.39087" lon="3.32773">
        <ele>422.8</ele>
        <time>2025-10-04T11:37:09Z</time>
      </trkpt>
      <trkpt lat="45.39083" lon="3.32763">
        <ele>423.4</ele>
        <time>2025-10-04T11:37:12Z</time>
      </trkpt>
      <trkpt lat="45.39073" lon="3.3274">
        <ele>424.6</ele>
        <time>2025-10-04T11:37:19Z</time>
      </trkpt>
      <trkpt lat="45.39071" lon="3.32737">
        <ele>424.8</ele>
        <time>2025-10-04T11:37:20Z</time>
      </trkpt>
      <trkpt lat="45.39062" lon="3.3272">
        <ele>425.6</ele>
        <time>2025-10-04T11:37:25Z</time>
      </trkpt>
      <trkpt lat="45.39059" lon="3.32712">
        <ele>425.8</ele>
        <time>2025-10-04T11:37:27Z</time>
      </trkpt>
      <trkpt lat="45.39044" lon="3.32678">
        <ele>426.4</ele>
        <time>2025-10-04T11:37:35Z</time>
      </trkpt>
      <trkpt lat="45.39036" lon="3.32664">
        <ele>426.6</ele>
        <time>2025-10-04T11:37:38Z</time>
      </trkpt>
      <trkpt lat="45.39026" lon="3.32653">
        <ele>426.6</ele>
        <time>2025-10-04T11:37:41Z</time>
      </trkpt>
      <trkpt lat="45.39014" lon="3.32651">
        <ele>426.6</ele>
        <time>2025-10-04T11:37:45Z</time>
      </trkpt>
      <trkpt lat="45.38997" lon="3.32655">
        <ele>427.4</ele>
        <time>2025-10-04T11:37:51Z</time>
      </trkpt>
      <trkpt lat="45.38991" lon="3.32656">
        <ele>428</ele>
        <time>2025-10-04T11:37:53Z</time>
      </trkpt>
      <trkpt lat="45.38979" lon="3.32659">
        <ele>429</ele>
        <time>2025-10-04T11:37:57Z</time>
      </trkpt>
      <trkpt lat="45.38973" lon="3.3266">
        <ele>429.4</ele>
        <time>2025-10-04T11:37:59Z</time>
      </trkpt>
      <trkpt lat="45.38948" lon="3.32662">
        <ele>430</ele>
        <time>2025-10-04T11:38:06Z</time>
      </trkpt>
      <trkpt lat="45.38943" lon="3.32661">
        <ele>430</ele>
        <time>2025-10-04T11:38:07Z</time>
      </trkpt>
      <trkpt lat="45.38923" lon="3.32655">
        <ele>430</ele>
        <time>2025-10-04T11:38:12Z</time>
      </trkpt>
      <trkpt lat="45.38919" lon="3.32654">
        <ele>430</ele>
        <time>2025-10-04T11:38:13Z</time>
      </trkpt>
      <trkpt lat="45.38909" lon="3.32649">
        <ele>430</ele>
        <time>2025-10-04T11:38:16Z</time>
      </trkpt>
      <trkpt lat="45.38898" lon="3.32644">
        <ele>430</ele>
        <time>2025-10-04T11:38:19Z</time>
      </trkpt>
      <trkpt lat="45.38888" lon="3.32639">
        <ele>430</ele>
        <time>2025-10-04T11:38:22Z</time>
      </trkpt>
      <trkpt lat="45.38868" lon="3.32629">
        <ele>430.6</ele>
        <time>2025-10-04T11:38:29Z</time>
      </trkpt>
      <trkpt lat="45.38862" lon="3.32628">
        <ele>431.2</ele>
        <time>2025-10-04T11:38:31Z</time>
      </trkpt>
      <trkpt lat="45.38846" lon="3.32627">
        <ele>432.4</ele>
        <time>2025-10-04T11:38:37Z</time>
      </trkpt>
      <trkpt lat="45.38829" lon="3.32626">
        <ele>433.6</ele>
        <time>2025-10-04T11:38:43Z</time>
      </trkpt>
      <trkpt lat="45.38826" lon="3.32626">
        <ele>433.8</ele>
        <time>2025-10-04T11:38:44Z</time>
      </trkpt>
      <trkpt lat="45.38814" lon="3.32629">
        <ele>434.6</ele>
        <time>2025-10-04T11:38:49Z</time>
      </trkpt>
      <trkpt lat="45.38807" lon="3.32631">
        <ele>435.2</ele>
        <time>2025-10-04T11:38:52Z</time>
      </trkpt>
      <trkpt lat="45.38801" lon="3.32634">
        <ele>436</ele>
        <time>2025-10-04T11:38:55Z</time>
      </trkpt>
      <trkpt lat="45.38791" lon="3.32638">
        <ele>436.8</ele>
        <time>2025-10-04T11:38:59Z</time>
      </trkpt>
      <trkpt lat="45.38789" lon="3.32639">
        <ele>437</ele>
        <time>2025-10-04T11:39:00Z</time>
      </trkpt>
      <trkpt lat="45.38778" lon="3.32645">
        <ele>438</ele>
        <time>2025-10-04T11:39:05Z</time>
      </trkpt>
      <trkpt lat="45.38776" lon="3.32647">
        <ele>438.4</ele>
        <time>2025-10-04T11:39:06Z</time>
      </trkpt>
      <trkpt lat="45.38766" lon="3.32651">
        <ele>439</ele>
        <time>2025-10-04T11:39:10Z</time>
      </trkpt>
      <trkpt lat="45.38757" lon="3.32656">
        <ele>440.4</ele>
        <time>2025-10-04T11:39:15Z</time>
      </trkpt>
      <trkpt lat="45.38748" lon="3.32663">
        <ele>441.8</ele>
        <time>2025-10-04T11:39:20Z</time>
      </trkpt>
      <trkpt lat="45.38741" lon="3.32667">
        <ele>442.6</ele>
        <time>2025-10-04T11:39:24Z</time>
      </trkpt>
      <trkpt lat="45.38739" lon="3.32668">
        <ele>442.8</ele>
        <time>2025-10-04T11:39:25Z</time>
      </trkpt>
      <trkpt lat="45.38733" lon="3.32671">
        <ele>444</ele>
        <time>2025-10-04T11:39:29Z</time>
      </trkpt>
      <trkpt lat="45.38728" lon="3.32675">
        <ele>444.4</ele>
        <time>2025-10-04T11:39:32Z</time>
      </trkpt>
      <trkpt lat="45.38723" lon="3.32678">
        <ele>445</ele>
        <time>2025-10-04T11:39:35Z</time>
      </trkpt>
      <trkpt lat="45.38717" lon="3.32681">
        <ele>446</ele>
        <time>2025-10-04T11:39:39Z</time>
      </trkpt>
      <trkpt lat="45.38715" lon="3.32682">
        <ele>446</ele>
        <time>2025-10-04T11:39:40Z</time>
      </trkpt>
      <trkpt lat="45.38714" lon="3.32683">
        <ele>446.2</ele>
        <time>2025-10-04T11:39:41Z</time>
      </trkpt>
      <trkpt lat="45.38706" lon="3.32687">
        <ele>447.2</ele>
        <time>2025-10-04T11:39:46Z</time>
      </trkpt>
      <trkpt lat="45.38701" lon="3.32692">
        <ele>448.2</ele>
        <time>2025-10-04T11:39:50Z</time>
      </trkpt>
      <trkpt lat="45.38699" lon="3.32693">
        <ele>448.6</ele>
        <time>2025-10-04T11:39:51Z</time>
      </trkpt>
      <trkpt lat="45.38693" lon="3.32696">
        <ele>449.6</ele>
        <time>2025-10-04T11:39:55Z</time>
      </trkpt>
      <trkpt lat="45.38691" lon="3.32697">
        <ele>450</ele>
        <time>2025-10-04T11:39:56Z</time>
      </trkpt>
      <trkpt lat="45.3869" lon="3.32698">
        <ele>450</ele>
        <time>2025-10-04T11:39:57Z</time>
      </trkpt>
      <trkpt lat="45.38684" lon="3.32702">
        <ele>451.2</ele>
        <time>2025-10-04T11:40:01Z</time>
      </trkpt>
      <trkpt lat="45.38678" lon="3.32705">
        <ele>451.8</ele>
        <time>2025-10-04T11:40:05Z</time>
      </trkpt>
      <trkpt lat="45.38675" lon="3.32706">
        <ele>452.4</ele>
        <time>2025-10-04T11:40:07Z</time>
      </trkpt>
      <trkpt lat="45.38669" lon="3.3271">
        <ele>453.6</ele>
        <time>2025-10-04T11:40:12Z</time>
      </trkpt>
      <trkpt lat="45.38667" lon="3.32712">
        <ele>453.8</ele>
        <time>2025-10-04T11:40:13Z</time>
      </trkpt>
      <trkpt lat="45.38662" lon="3.32715">
        <ele>454.6</ele>
        <time>2025-10-04T11:40:16Z</time>
      </trkpt>
      <trkpt lat="45.38656" lon="3.32721">
        <ele>456</ele>
        <time>2025-10-04T11:40:21Z</time>
      </trkpt>
      <trkpt lat="45.38654" lon="3.32723">
        <ele>456.2</ele>
        <time>2025-10-04T11:40:22Z</time>
      </trkpt>
      <trkpt lat="45.3865" lon="3.32728">
        <ele>457.2</ele>
        <time>2025-10-04T11:40:26Z</time>
      </trkpt>
      <trkpt lat="45.38646" lon="3.32733">
        <ele>458</ele>
        <time>2025-10-04T11:40:30Z</time>
      </trkpt>
      <trkpt lat="45.38645" lon="3.32734">
        <ele>458.2</ele>
        <time>2025-10-04T11:40:31Z</time>
      </trkpt>
      <trkpt lat="45.38642" lon="3.32736">
        <ele>459</ele>
        <time>2025-10-04T11:40:34Z</time>
      </trkpt>
      <trkpt lat="45.38641" lon="3.32737">
        <ele>459.4</ele>
        <time>2025-10-04T11:40:35Z</time>
      </trkpt>
      <trkpt lat="45.38641" lon="3.32738">
        <ele>459.4</ele>
        <time>2025-10-04T11:40:36Z</time>
      </trkpt>
      <trkpt lat="45.38634" lon="3.32744">
        <ele>460.2</ele>
        <time>2025-10-04T11:40:41Z</time>
      </trkpt>
      <trkpt lat="45.38632" lon="3.32746">
        <ele>460.6</ele>
        <time>2025-10-04T11:40:43Z</time>
      </trkpt>
      <trkpt lat="45.38628" lon="3.32749">
        <ele>461.6</ele>
        <time>2025-10-04T11:40:46Z</time>
      </trkpt>
      <trkpt lat="45.38624" lon="3.32754">
        <ele>462.2</ele>
        <time>2025-10-04T11:40:49Z</time>
      </trkpt>
      <trkpt lat="45.38623" lon="3.32756">
        <ele>462.6</ele>
        <time>2025-10-04T11:40:50Z</time>
      </trkpt>
      <trkpt lat="45.3862" lon="3.3276">
        <ele>463.6</ele>
        <time>2025-10-04T11:40:53Z</time>
      </trkpt>
      <trkpt lat="45.38619" lon="3.32761">
        <ele>463.8</ele>
        <time>2025-10-04T11:40:54Z</time>
      </trkpt>
      <trkpt lat="45.38614" lon="3.32766">
        <ele>464.6</ele>
        <time>2025-10-04T11:40:58Z</time>
      </trkpt>
      <trkpt lat="45.3861" lon="3.32769">
        <ele>465.2</ele>
        <time>2025-10-04T11:41:00Z</time>
      </trkpt>
      <trkpt lat="45.38608" lon="3.3277">
        <ele>466</ele>
        <time>2025-10-04T11:41:02Z</time>
      </trkpt>
      <trkpt lat="45.38604" lon="3.32774">
        <ele>466.4</ele>
        <time>2025-10-04T11:41:05Z</time>
      </trkpt>
      <trkpt lat="45.38603" lon="3.32775">
        <ele>466.6</ele>
        <time>2025-10-04T11:41:06Z</time>
      </trkpt>
      <trkpt lat="45.38602" lon="3.32778">
        <ele>467</ele>
        <time>2025-10-04T11:41:08Z</time>
      </trkpt>
      <trkpt lat="45.38596" lon="3.32786">
        <ele>468</ele>
        <time>2025-10-04T11:41:13Z</time>
      </trkpt>
      <trkpt lat="45.38587" lon="3.32798">
        <ele>469</ele>
        <time>2025-10-04T11:41:21Z</time>
      </trkpt>
      <trkpt lat="45.38584" lon="3.32801">
        <ele>469.4</ele>
        <time>2025-10-04T11:41:23Z</time>
      </trkpt>
      <trkpt lat="45.38582" lon="3.32804">
        <ele>470.2</ele>
        <time>2025-10-04T11:41:25Z</time>
      </trkpt>
      <trkpt lat="45.38576" lon="3.32809">
        <ele>471.2</ele>
        <time>2025-10-04T11:41:29Z</time>
      </trkpt>
      <trkpt lat="45.38572" lon="3.32811">
        <ele>471.8</ele>
        <time>2025-10-04T11:41:31Z</time>
      </trkpt>
      <trkpt lat="45.38567" lon="3.32816">
        <ele>472.4</ele>
        <time>2025-10-04T11:41:34Z</time>
      </trkpt>
      <trkpt lat="45.38556" lon="3.32826">
        <ele>473.6</ele>
        <time>2025-10-04T11:41:40Z</time>
      </trkpt>
      <trkpt lat="45.38543" lon="3.32838">
        <ele>474.6</ele>
        <time>2025-10-04T11:41:47Z</time>
      </trkpt>
      <trkpt lat="45.38534" lon="3.32849">
        <ele>475.6</ele>
        <time>2025-10-04T11:41:52Z</time>
      </trkpt>
      <trkpt lat="45.38526" lon="3.3286">
        <ele>476.2</ele>
        <time>2025-10-04T11:41:57Z</time>
      </trkpt>
      <trkpt lat="45.38522" lon="3.32864">
        <ele>476.6</ele>
        <time>2025-10-04T11:41:59Z</time>
      </trkpt>
      <trkpt lat="45.38511" lon="3.32877">
        <ele>477.8</ele>
        <time>2025-10-04T11:42:05Z</time>
      </trkpt>
      <trkpt lat="45.38506" lon="3.32882">
        <ele>478</ele>
        <time>2025-10-04T11:42:07Z</time>
      </trkpt>
      <trkpt lat="45.38488" lon="3.32903">
        <ele>479</ele>
        <time>2025-10-04T11:42:15Z</time>
      </trkpt>
      <trkpt lat="45.38483" lon="3.3291">
        <ele>479</ele>
        <time>2025-10-04T11:42:17Z</time>
      </trkpt>
      <trkpt lat="45.38464" lon="3.32941">
        <ele>479.2</ele>
        <time>2025-10-04T11:42:25Z</time>
      </trkpt>
      <trkpt lat="45.38451" lon="3.32966">
        <ele>479.6</ele>
        <time>2025-10-04T11:42:31Z</time>
      </trkpt>
      <trkpt lat="45.38444" lon="3.3298">
        <ele>480.2</ele>
        <time>2025-10-04T11:42:34Z</time>
      </trkpt>
      <trkpt lat="45.38441" lon="3.32984">
        <ele>480.4</ele>
        <time>2025-10-04T11:42:35Z</time>
      </trkpt>
      <trkpt lat="45.38434" lon="3.33">
        <ele>480.6</ele>
        <time>2025-10-04T11:42:38Z</time>
      </trkpt>
      <trkpt lat="45.38424" lon="3.33022">
        <ele>480.6</ele>
        <time>2025-10-04T11:42:42Z</time>
      </trkpt>
      <trkpt lat="45.38418" lon="3.33033">
        <ele>480.4</ele>
        <time>2025-10-04T11:42:44Z</time>
      </trkpt>
      <trkpt lat="45.38394" lon="3.33063">
        <ele>479.4</ele>
        <time>2025-10-04T11:42:50Z</time>
      </trkpt>
      <trkpt lat="45.38385" lon="3.33071">
        <ele>479.2</ele>
        <time>2025-10-04T11:42:52Z</time>
      </trkpt>
      <trkpt lat="45.3836" lon="3.33098">
        <ele>478.6</ele>
        <time>2025-10-04T11:42:58Z</time>
      </trkpt>
      <trkpt lat="45.38323" lon="3.33138">
        <ele>478.4</ele>
        <time>2025-10-04T11:43:06Z</time>
      </trkpt>
      <trkpt lat="45.38289" lon="3.33167">
        <ele>478.2</ele>
        <time>2025-10-04T11:43:13Z</time>
      </trkpt>
      <trkpt lat="45.38284" lon="3.33169">
        <ele>478</ele>
        <time>2025-10-04T11:43:14Z</time>
      </trkpt>
      <trkpt lat="45.38279" lon="3.3317">
        <ele>478</ele>
        <time>2025-10-04T11:43:15Z</time>
      </trkpt>
      <trkpt lat="45.38263" lon="3.33171">
        <ele>478</ele>
        <time>2025-10-04T11:43:18Z</time>
      </trkpt>
      <trkpt lat="45.38217" lon="3.33171">
        <ele>478</ele>
        <time>2025-10-04T11:43:27Z</time>
      </trkpt>
      <trkpt lat="45.38206" lon="3.33169">
        <ele>478.2</ele>
        <time>2025-10-04T11:43:29Z</time>
      </trkpt>
      <trkpt lat="45.38197" lon="3.33163">
        <ele>478.2</ele>
        <time>2025-10-04T11:43:31Z</time>
      </trkpt>
      <trkpt lat="45.38193" lon="3.33158">
        <ele>478.2</ele>
        <time>2025-10-04T11:43:32Z</time>
      </trkpt>
      <trkpt lat="45.38169" lon="3.33116">
        <ele>478.2</ele>
        <time>2025-10-04T11:43:39Z</time>
      </trkpt>
      <trkpt lat="45.38149" lon="3.33089">
        <ele>478.2</ele>
        <time>2025-10-04T11:43:44Z</time>
      </trkpt>
      <trkpt lat="45.38145" lon="3.33085">
        <ele>478.2</ele>
        <time>2025-10-04T11:43:45Z</time>
      </trkpt>
      <trkpt lat="45.38108" lon="3.33057">
        <ele>477.8</ele>
        <time>2025-10-04T11:43:53Z</time>
      </trkpt>
      <trkpt lat="45.38103" lon="3.33055">
        <ele>477.6</ele>
        <time>2025-10-04T11:43:54Z</time>
      </trkpt>
      <trkpt lat="45.38089" lon="3.33053">
        <ele>477.6</ele>
        <time>2025-10-04T11:43:57Z</time>
      </trkpt>
      <trkpt lat="45.38055" lon="3.33051">
        <ele>477.8</ele>
        <time>2025-10-04T11:44:04Z</time>
      </trkpt>
      <trkpt lat="45.38046" lon="3.3305">
        <ele>477.8</ele>
        <time>2025-10-04T11:44:06Z</time>
      </trkpt>
      <trkpt lat="45.38008" lon="3.33045">
        <ele>479</ele>
        <time>2025-10-04T11:44:14Z</time>
      </trkpt>
      <trkpt lat="45.38003" lon="3.33045">
        <ele>479</ele>
        <time>2025-10-04T11:44:15Z</time>
      </trkpt>
      <trkpt lat="45.37957" lon="3.33038">
        <ele>479.4</ele>
        <time>2025-10-04T11:44:24Z</time>
      </trkpt>
      <trkpt lat="45.37912" lon="3.33032">
        <ele>478.8</ele>
        <time>2025-10-04T11:44:32Z</time>
      </trkpt>
      <trkpt lat="45.37884" lon="3.33028">
        <ele>478</ele>
        <time>2025-10-04T11:44:37Z</time>
      </trkpt>
      <trkpt lat="45.37878" lon="3.33027">
        <ele>478</ele>
        <time>2025-10-04T11:44:38Z</time>
      </trkpt>
      <trkpt lat="45.37859" lon="3.33023">
        <ele>477.8</ele>
        <time>2025-10-04T11:44:41Z</time>
      </trkpt>
      <trkpt lat="45.37836" lon="3.3302">
        <ele>477</ele>
        <time>2025-10-04T11:44:45Z</time>
      </trkpt>
      <trkpt lat="45.37802" lon="3.33013">
        <ele>476.2</ele>
        <time>2025-10-04T11:44:51Z</time>
      </trkpt>
      <trkpt lat="45.37791" lon="3.3301">
        <ele>476</ele>
        <time>2025-10-04T11:44:53Z</time>
      </trkpt>
      <trkpt lat="45.37786" lon="3.33009">
        <ele>476</ele>
        <time>2025-10-04T11:44:54Z</time>
      </trkpt>
      <trkpt lat="45.37746" lon="3.32993">
        <ele>475</ele>
        <time>2025-10-04T11:45:01Z</time>
      </trkpt>
      <trkpt lat="45.3774" lon="3.3299">
        <ele>474.8</ele>
        <time>2025-10-04T11:45:02Z</time>
      </trkpt>
      <trkpt lat="45.377" lon="3.32971">
        <ele>473.8</ele>
        <time>2025-10-04T11:45:09Z</time>
      </trkpt>
      <trkpt lat="45.37683" lon="3.32962">
        <ele>473.8</ele>
        <time>2025-10-04T11:45:12Z</time>
      </trkpt>
      <trkpt lat="45.37642" lon="3.32942">
        <ele>473.4</ele>
        <time>2025-10-04T11:45:19Z</time>
      </trkpt>
      <trkpt lat="45.37638" lon="3.32938">
        <ele>473.4</ele>
        <time>2025-10-04T11:45:20Z</time>
      </trkpt>
      <trkpt lat="45.37636" lon="3.32932">
        <ele>473.4</ele>
        <time>2025-10-04T11:45:21Z</time>
      </trkpt>
      <trkpt lat="45.3764" lon="3.3292">
        <ele>473.6</ele>
        <time>2025-10-04T11:45:23Z</time>
      </trkpt>
      <trkpt lat="45.37643" lon="3.32914">
        <ele>473.8</ele>
        <time>2025-10-04T11:45:24Z</time>
      </trkpt>
      <trkpt lat="45.37671" lon="3.32866">
        <ele>474.6</ele>
        <time>2025-10-04T11:45:31Z</time>
      </trkpt>
      <trkpt lat="45.37699" lon="3.3282">
        <ele>474.6</ele>
        <time>2025-10-04T11:45:37Z</time>
      </trkpt>
      <trkpt lat="45.37715" lon="3.32787">
        <ele>473</ele>
        <time>2025-10-04T11:45:41Z</time>
      </trkpt>
      <trkpt lat="45.3772" lon="3.32779">
        <ele>472.8</ele>
        <time>2025-10-04T11:45:42Z</time>
      </trkpt>
      <trkpt lat="45.37733" lon="3.32757">
        <ele>472.4</ele>
        <time>2025-10-04T11:45:45Z</time>
      </trkpt>
      <trkpt lat="45.37737" lon="3.3275">
        <ele>472.2</ele>
        <time>2025-10-04T11:45:46Z</time>
      </trkpt>
      <trkpt lat="45.3775" lon="3.32728">
        <ele>471.8</ele>
        <time>2025-10-04T11:45:49Z</time>
      </trkpt>
      <trkpt lat="45.37758" lon="3.32713">
        <ele>471.6</ele>
        <time>2025-10-04T11:45:51Z</time>
      </trkpt>
      <trkpt lat="45.37776" lon="3.3268">
        <ele>470.6</ele>
        <time>2025-10-04T11:45:55Z</time>
      </trkpt>
      <trkpt lat="45.37791" lon="3.32655">
        <ele>469</ele>
        <time>2025-10-04T11:45:58Z</time>
      </trkpt>
      <trkpt lat="45.37805" lon="3.32629">
        <ele>467.8</ele>
        <time>2025-10-04T11:46:01Z</time>
      </trkpt>
      <trkpt lat="45.37809" lon="3.32607">
        <ele>467</ele>
        <time>2025-10-04T11:46:03Z</time>
      </trkpt>
      <trkpt lat="45.37808" lon="3.32597">
        <ele>466.6</ele>
        <time>2025-10-04T11:46:04Z</time>
      </trkpt>
      <trkpt lat="45.37801" lon="3.32561">
        <ele>466</ele>
        <time>2025-10-04T11:46:08Z</time>
      </trkpt>
      <trkpt lat="45.37793" lon="3.32534">
        <ele>465.2</ele>
        <time>2025-10-04T11:46:11Z</time>
      </trkpt>
      <trkpt lat="45.37786" lon="3.32514">
        <ele>464.6</ele>
        <time>2025-10-04T11:46:13Z</time>
      </trkpt>
      <trkpt lat="45.37782" lon="3.32504">
        <ele>464.6</ele>
        <time>2025-10-04T11:46:14Z</time>
      </trkpt>
      <trkpt lat="45.37764" lon="3.32479">
        <ele>464.2</ele>
        <time>2025-10-04T11:46:17Z</time>
      </trkpt>
      <trkpt lat="45.37746" lon="3.32454">
        <ele>462.8</ele>
        <time>2025-10-04T11:46:20Z</time>
      </trkpt>
      <trkpt lat="45.37735" lon="3.32439">
        <ele>461.8</ele>
        <time>2025-10-04T11:46:22Z</time>
      </trkpt>
      <trkpt lat="45.3773" lon="3.32433">
        <ele>461.2</ele>
        <time>2025-10-04T11:46:23Z</time>
      </trkpt>
      <trkpt lat="45.37724" lon="3.32426">
        <ele>461.2</ele>
        <time>2025-10-04T11:46:24Z</time>
      </trkpt>
      <trkpt lat="45.37711" lon="3.32404">
        <ele>460.4</ele>
        <time>2025-10-04T11:46:27Z</time>
      </trkpt>
      <trkpt lat="45.37707" lon="3.32397">
        <ele>460.4</ele>
        <time>2025-10-04T11:46:28Z</time>
      </trkpt>
      <trkpt lat="45.37702" lon="3.32391">
        <ele>460.2</ele>
        <time>2025-10-04T11:46:29Z</time>
      </trkpt>
      <trkpt lat="45.37696" lon="3.32386">
        <ele>460.4</ele>
        <time>2025-10-04T11:46:30Z</time>
      </trkpt>
      <trkpt lat="45.3769" lon="3.3238">
        <ele>460.2</ele>
        <time>2025-10-04T11:46:31Z</time>
      </trkpt>
      <trkpt lat="45.37668" lon="3.32364">
        <ele>459.8</ele>
        <time>2025-10-04T11:46:34Z</time>
      </trkpt>
      <trkpt lat="45.37662" lon="3.32357">
        <ele>459.6</ele>
        <time>2025-10-04T11:46:35Z</time>
      </trkpt>
      <trkpt lat="45.37655" lon="3.32349">
        <ele>459.2</ele>
        <time>2025-10-04T11:46:36Z</time>
      </trkpt>
      <trkpt lat="45.37625" lon="3.32317">
        <ele>457.8</ele>
        <time>2025-10-04T11:46:40Z</time>
      </trkpt>
      <trkpt lat="45.37616" lon="3.32311">
        <ele>456.4</ele>
        <time>2025-10-04T11:46:41Z</time>
      </trkpt>
      <trkpt lat="45.37599" lon="3.32301">
        <ele>454.4</ele>
        <time>2025-10-04T11:46:43Z</time>
      </trkpt>
      <trkpt lat="45.37583" lon="3.32288">
        <ele>453.2</ele>
        <time>2025-10-04T11:46:45Z</time>
      </trkpt>
      <trkpt lat="45.37564" lon="3.32266">
        <ele>452</ele>
        <time>2025-10-04T11:46:48Z</time>
      </trkpt>
      <trkpt lat="45.37558" lon="3.32259">
        <ele>451.8</ele>
        <time>2025-10-04T11:46:49Z</time>
      </trkpt>
      <trkpt lat="45.37541" lon="3.3224">
        <ele>451</ele>
        <time>2025-10-04T11:46:52Z</time>
      </trkpt>
      <trkpt lat="45.37532" lon="3.32226">
        <ele>450.6</ele>
        <time>2025-10-04T11:46:54Z</time>
      </trkpt>
      <trkpt lat="45.3752" lon="3.32203">
        <ele>450.8</ele>
        <time>2025-10-04T11:46:57Z</time>
      </trkpt>
      <trkpt lat="45.37515" lon="3.32188">
        <ele>451</ele>
        <time>2025-10-04T11:46:59Z</time>
      </trkpt>
      <trkpt lat="45.3751" lon="3.32174">
        <ele>451.4</ele>
        <time>2025-10-04T11:47:01Z</time>
      </trkpt>
      <trkpt lat="45.37505" lon="3.32154">
        <ele>452</ele>
        <time>2025-10-04T11:47:04Z</time>
      </trkpt>
      <trkpt lat="45.37503" lon="3.32149">
        <ele>452</ele>
        <time>2025-10-04T11:47:05Z</time>
      </trkpt>
      <trkpt lat="45.37493" lon="3.32123">
        <ele>452.6</ele>
        <time>2025-10-04T11:47:09Z</time>
      </trkpt>
      <trkpt lat="45.37473" lon="3.32092">
        <ele>452.6</ele>
        <time>2025-10-04T11:47:13Z</time>
      </trkpt>
      <trkpt lat="45.37446" lon="3.32066">
        <ele>450.4</ele>
        <time>2025-10-04T11:47:17Z</time>
      </trkpt>
      <trkpt lat="45.37438" lon="3.3206">
        <ele>449.6</ele>
        <time>2025-10-04T11:47:18Z</time>
      </trkpt>
      <trkpt lat="45.37431" lon="3.32055">
        <ele>449</ele>
        <time>2025-10-04T11:47:19Z</time>
      </trkpt>
      <trkpt lat="45.37399" lon="3.3204">
        <ele>447.8</ele>
        <time>2025-10-04T11:47:23Z</time>
      </trkpt>
      <trkpt lat="45.37392" lon="3.32036">
        <ele>447.4</ele>
        <time>2025-10-04T11:47:24Z</time>
      </trkpt>
      <trkpt lat="45.37374" lon="3.32029">
        <ele>446.8</ele>
        <time>2025-10-04T11:47:26Z</time>
      </trkpt>
      <trkpt lat="45.37354" lon="3.32026">
        <ele>446.2</ele>
        <time>2025-10-04T11:47:28Z</time>
      </trkpt>
      <trkpt lat="45.37344" lon="3.32026">
        <ele>445.2</ele>
        <time>2025-10-04T11:47:29Z</time>
      </trkpt>
      <trkpt lat="45.37325" lon="3.32024">
        <ele>443.6</ele>
        <time>2025-10-04T11:47:31Z</time>
      </trkpt>
      <trkpt lat="45.37308" lon="3.32022">
        <ele>441.8</ele>
        <time>2025-10-04T11:47:33Z</time>
      </trkpt>
      <trkpt lat="45.373" lon="3.32022">
        <ele>441</ele>
        <time>2025-10-04T11:47:34Z</time>
      </trkpt>
      <trkpt lat="45.37291" lon="3.32023">
        <ele>439.6</ele>
        <time>2025-10-04T11:47:35Z</time>
      </trkpt>
      <trkpt lat="45.37284" lon="3.32025">
        <ele>439</ele>
        <time>2025-10-04T11:47:36Z</time>
      </trkpt>
      <trkpt lat="45.37272" lon="3.32027">
        <ele>437.6</ele>
        <time>2025-10-04T11:47:38Z</time>
      </trkpt>
      <trkpt lat="45.37264" lon="3.32028">
        <ele>436.4</ele>
        <time>2025-10-04T11:47:40Z</time>
      </trkpt>
      <trkpt lat="45.37259" lon="3.32025">
        <ele>435.6</ele>
        <time>2025-10-04T11:47:42Z</time>
      </trkpt>
      <trkpt lat="45.37258" lon="3.32021">
        <ele>435</ele>
        <time>2025-10-04T11:47:43Z</time>
      </trkpt>
      <trkpt lat="45.37261" lon="3.32012">
        <ele>433.6</ele>
        <time>2025-10-04T11:47:45Z</time>
      </trkpt>
      <trkpt lat="45.37267" lon="3.32001">
        <ele>433</ele>
        <time>2025-10-04T11:47:47Z</time>
      </trkpt>
      <trkpt lat="45.37276" lon="3.31989">
        <ele>432.4</ele>
        <time>2025-10-04T11:47:49Z</time>
      </trkpt>
      <trkpt lat="45.37289" lon="3.31968">
        <ele>431.6</ele>
        <time>2025-10-04T11:47:52Z</time>
      </trkpt>
      <trkpt lat="45.37294" lon="3.31959">
        <ele>431</ele>
        <time>2025-10-04T11:47:53Z</time>
      </trkpt>
      <trkpt lat="45.37307" lon="3.31936">
        <ele>430</ele>
        <time>2025-10-04T11:47:56Z</time>
      </trkpt>
      <trkpt lat="45.37318" lon="3.31913">
        <ele>429.4</ele>
        <time>2025-10-04T11:47:59Z</time>
      </trkpt>
      <trkpt lat="45.37322" lon="3.31905">
        <ele>429</ele>
        <time>2025-10-04T11:48:00Z</time>
      </trkpt>
      <trkpt lat="45.37334" lon="3.31882">
        <ele>428.4</ele>
        <time>2025-10-04T11:48:03Z</time>
      </trkpt>
      <trkpt lat="45.37338" lon="3.31875">
        <ele>428.2</ele>
        <time>2025-10-04T11:48:04Z</time>
      </trkpt>
      <trkpt lat="45.37343" lon="3.31868">
        <ele>428</ele>
        <time>2025-10-04T11:48:05Z</time>
      </trkpt>
      <trkpt lat="45.37376" lon="3.31819">
        <ele>427</ele>
        <time>2025-10-04T11:48:12Z</time>
      </trkpt>
      <trkpt lat="45.37381" lon="3.31812">
        <ele>426.8</ele>
        <time>2025-10-04T11:48:13Z</time>
      </trkpt>
      <trkpt lat="45.37412" lon="3.31767">
        <ele>426</ele>
        <time>2025-10-04T11:48:20Z</time>
      </trkpt>
      <trkpt lat="45.37418" lon="3.31754">
        <ele>426</ele>
        <time>2025-10-04T11:48:22Z</time>
      </trkpt>
      <trkpt lat="45.37424" lon="3.31743">
        <ele>426</ele>
        <time>2025-10-04T11:48:24Z</time>
      </trkpt>
      <trkpt lat="45.37431" lon="3.31732">
        <ele>426</ele>
        <time>2025-10-04T11:48:26Z</time>
      </trkpt>
      <trkpt lat="45.37435" lon="3.31727">
        <ele>426</ele>
        <time>2025-10-04T11:48:27Z</time>
      </trkpt>
      <trkpt lat="45.37448" lon="3.31714">
        <ele>425.8</ele>
        <time>2025-10-04T11:48:30Z</time>
      </trkpt>
      <trkpt lat="45.37454" lon="3.317">
        <ele>425.8</ele>
        <time>2025-10-04T11:48:32Z</time>
      </trkpt>
      <trkpt lat="45.37463" lon="3.31667">
        <ele>425.6</ele>
        <time>2025-10-04T11:48:36Z</time>
      </trkpt>
      <trkpt lat="45.37467" lon="3.31658">
        <ele>425.4</ele>
        <time>2025-10-04T11:48:37Z</time>
      </trkpt>
      <trkpt lat="45.37485" lon="3.3162">
        <ele>424.4</ele>
        <time>2025-10-04T11:48:41Z</time>
      </trkpt>
      <trkpt lat="45.37494" lon="3.316">
        <ele>423.4</ele>
        <time>2025-10-04T11:48:43Z</time>
      </trkpt>
      <trkpt lat="45.37499" lon="3.31591">
        <ele>423</ele>
        <time>2025-10-04T11:48:44Z</time>
      </trkpt>
      <trkpt lat="45.37514" lon="3.31562">
        <ele>421.8</ele>
        <time>2025-10-04T11:48:47Z</time>
      </trkpt>
      <trkpt lat="45.37528" lon="3.31535">
        <ele>420.8</ele>
        <time>2025-10-04T11:48:50Z</time>
      </trkpt>
      <trkpt lat="45.37553" lon="3.31496">
        <ele>419.6</ele>
        <time>2025-10-04T11:48:55Z</time>
      </trkpt>
      <trkpt lat="45.37562" lon="3.31482">
        <ele>419.4</ele>
        <time>2025-10-04T11:48:57Z</time>
      </trkpt>
      <trkpt lat="45.37588" lon="3.31439">
        <ele>418.6</ele>
        <time>2025-10-04T11:49:03Z</time>
      </trkpt>
      <trkpt lat="45.37591" lon="3.31431">
        <ele>418.6</ele>
        <time>2025-10-04T11:49:04Z</time>
      </trkpt>
      <trkpt lat="45.37597" lon="3.31405">
        <ele>418</ele>
        <time>2025-10-04T11:49:07Z</time>
      </trkpt>
      <trkpt lat="45.37602" lon="3.31366">
        <ele>418</ele>
        <time>2025-10-04T11:49:12Z</time>
      </trkpt>
      <trkpt lat="45.376" lon="3.31361">
        <ele>417.8</ele>
        <time>2025-10-04T11:49:13Z</time>
      </trkpt>
      <trkpt lat="45.37597" lon="3.31359">
        <ele>417.8</ele>
        <time>2025-10-04T11:49:14Z</time>
      </trkpt>
      <trkpt lat="45.37593" lon="3.31359">
        <ele>417.8</ele>
        <time>2025-10-04T11:49:15Z</time>
      </trkpt>
      <trkpt lat="45.37584" lon="3.31361">
        <ele>417.8</ele>
        <time>2025-10-04T11:49:17Z</time>
      </trkpt>
      <trkpt lat="45.37571" lon="3.31358">
        <ele>418</ele>
        <time>2025-10-04T11:49:20Z</time>
      </trkpt>
      <trkpt lat="45.37562" lon="3.31355">
        <ele>418.2</ele>
        <time>2025-10-04T11:49:22Z</time>
      </trkpt>
      <trkpt lat="45.37552" lon="3.31353">
        <ele>418.4</ele>
        <time>2025-10-04T11:49:24Z</time>
      </trkpt>
      <trkpt lat="45.37542" lon="3.3135">
        <ele>418.8</ele>
        <time>2025-10-04T11:49:26Z</time>
      </trkpt>
      <trkpt lat="45.37533" lon="3.31348">
        <ele>419</ele>
        <time>2025-10-04T11:49:28Z</time>
      </trkpt>
      <trkpt lat="45.37513" lon="3.31343">
        <ele>419.4</ele>
        <time>2025-10-04T11:49:32Z</time>
      </trkpt>
      <trkpt lat="45.3749" lon="3.31337">
        <ele>419.6</ele>
        <time>2025-10-04T11:49:37Z</time>
      </trkpt>
      <trkpt lat="45.37485" lon="3.31336">
        <ele>419.8</ele>
        <time>2025-10-04T11:49:38Z</time>
      </trkpt>
      <trkpt lat="45.37458" lon="3.31329">
        <ele>420.2</ele>
        <time>2025-10-04T11:49:44Z</time>
      </trkpt>
      <trkpt lat="45.37453" lon="3.31328">
        <ele>420.2</ele>
        <time>2025-10-04T11:49:45Z</time>
      </trkpt>
      <trkpt lat="45.37424" lon="3.31321">
        <ele>420.6</ele>
        <time>2025-10-04T11:49:52Z</time>
      </trkpt>
      <trkpt lat="45.3742" lon="3.3132">
        <ele>420.6</ele>
        <time>2025-10-04T11:49:53Z</time>
      </trkpt>
      <trkpt lat="45.37399" lon="3.31315">
        <ele>421.2</ele>
        <time>2025-10-04T11:49:58Z</time>
      </trkpt>
      <trkpt lat="45.37386" lon="3.31311">
        <ele>421.8</ele>
        <time>2025-10-04T11:50:01Z</time>
      </trkpt>
      <trkpt lat="45.37378" lon="3.31308">
        <ele>422</ele>
        <time>2025-10-04T11:50:03Z</time>
      </trkpt>
      <trkpt lat="45.37353" lon="3.31293">
        <ele>422.4</ele>
        <time>2025-10-04T11:50:09Z</time>
      </trkpt>
      <trkpt lat="45.37348" lon="3.31289">
        <ele>422.6</ele>
        <time>2025-10-04T11:50:10Z</time>
      </trkpt>
      <trkpt lat="45.37336" lon="3.31281">
        <ele>422.8</ele>
        <time>2025-10-04T11:50:13Z</time>
      </trkpt>
      <trkpt lat="45.37317" lon="3.31274">
        <ele>422.8</ele>
        <time>2025-10-04T11:50:17Z</time>
      </trkpt>
      <trkpt lat="45.37276" lon="3.31262">
        <ele>422.4</ele>
        <time>2025-10-04T11:50:25Z</time>
      </trkpt>
      <trkpt lat="45.37225" lon="3.31246">
        <ele>423</ele>
        <time>2025-10-04T11:50:35Z</time>
      </trkpt>
      <trkpt lat="45.37184" lon="3.31236">
        <ele>423.2</ele>
        <time>2025-10-04T11:50:43Z</time>
      </trkpt>
      <trkpt lat="45.37148" lon="3.31227">
        <ele>423.6</ele>
        <time>2025-10-04T11:50:50Z</time>
      </trkpt>
      <trkpt lat="45.37142" lon="3.31226">
        <ele>423.6</ele>
        <time>2025-10-04T11:50:51Z</time>
      </trkpt>
      <trkpt lat="45.37095" lon="3.3122">
        <ele>423.6</ele>
        <time>2025-10-04T11:50:59Z</time>
      </trkpt>
      <trkpt lat="45.37089" lon="3.31218">
        <ele>423.4</ele>
        <time>2025-10-04T11:51:00Z</time>
      </trkpt>
      <trkpt lat="45.37079" lon="3.31211">
        <ele>423.2</ele>
        <time>2025-10-04T11:51:02Z</time>
      </trkpt>
      <trkpt lat="45.37076" lon="3.31207">
        <ele>423.2</ele>
        <time>2025-10-04T11:51:03Z</time>
      </trkpt>
      <trkpt lat="45.37073" lon="3.31202">
        <ele>423.2</ele>
        <time>2025-10-04T11:51:04Z</time>
      </trkpt>
      <trkpt lat="45.37067" lon="3.31188">
        <ele>423</ele>
        <time>2025-10-04T11:51:07Z</time>
      </trkpt>
      <trkpt lat="45.37062" lon="3.31165">
        <ele>424.2</ele>
        <time>2025-10-04T11:51:12Z</time>
      </trkpt>
      <trkpt lat="45.3706" lon="3.31155">
        <ele>424.6</ele>
        <time>2025-10-04T11:51:14Z</time>
      </trkpt>
      <trkpt lat="45.37056" lon="3.31134">
        <ele>425.4</ele>
        <time>2025-10-04T11:51:19Z</time>
      </trkpt>
      <trkpt lat="45.37055" lon="3.3113">
        <ele>425.6</ele>
        <time>2025-10-04T11:51:20Z</time>
      </trkpt>
      <trkpt lat="45.37049" lon="3.3111">
        <ele>426.6</ele>
        <time>2025-10-04T11:51:25Z</time>
      </trkpt>
      <trkpt lat="45.37044" lon="3.31099">
        <ele>427.6</ele>
        <time>2025-10-04T11:51:28Z</time>
      </trkpt>
      <trkpt lat="45.37043" lon="3.31096">
        <ele>427.8</ele>
        <time>2025-10-04T11:51:29Z</time>
      </trkpt>
      <trkpt lat="45.3704" lon="3.31077">
        <ele>428.6</ele>
        <time>2025-10-04T11:51:34Z</time>
      </trkpt>
      <trkpt lat="45.37039" lon="3.31074">
        <ele>428.6</ele>
        <time>2025-10-04T11:51:35Z</time>
      </trkpt>
      <trkpt lat="45.37038" lon="3.3106">
        <ele>430</ele>
        <time>2025-10-04T11:51:39Z</time>
      </trkpt>
      <trkpt lat="45.3704" lon="3.31049">
        <ele>430.2</ele>
        <time>2025-10-04T11:51:42Z</time>
      </trkpt>
      <trkpt lat="45.37039" lon="3.31038">
        <ele>431.2</ele>
        <time>2025-10-04T11:51:45Z</time>
      </trkpt>
      <trkpt lat="45.37039" lon="3.31031">
        <ele>431.6</ele>
        <time>2025-10-04T11:51:47Z</time>
      </trkpt>
      <trkpt lat="45.37037" lon="3.31014">
        <ele>432.6</ele>
        <time>2025-10-04T11:51:52Z</time>
      </trkpt>
      <trkpt lat="45.37036" lon="3.31007">
        <ele>433.6</ele>
        <time>2025-10-04T11:51:54Z</time>
      </trkpt>
      <trkpt lat="45.37036" lon="3.31003">
        <ele>434.2</ele>
        <time>2025-10-04T11:51:55Z</time>
      </trkpt>
      <trkpt lat="45.37036" lon="3.30997">
        <ele>434.8</ele>
        <time>2025-10-04T11:51:57Z</time>
      </trkpt>
      <trkpt lat="45.37033" lon="3.30979">
        <ele>435.8</ele>
        <time>2025-10-04T11:52:02Z</time>
      </trkpt>
      <trkpt lat="45.37032" lon="3.30976">
        <ele>435.8</ele>
        <time>2025-10-04T11:52:03Z</time>
      </trkpt>
      <trkpt lat="45.37029" lon="3.30958">
        <ele>436.6</ele>
        <time>2025-10-04T11:52:08Z</time>
      </trkpt>
      <trkpt lat="45.37027" lon="3.30956">
        <ele>436.8</ele>
        <time>2025-10-04T11:52:09Z</time>
      </trkpt>
      <trkpt lat="45.37025" lon="3.30955">
        <ele>437</ele>
        <time>2025-10-04T11:52:10Z</time>
      </trkpt>
      <trkpt lat="45.3702" lon="3.30955">
        <ele>437.2</ele>
        <time>2025-10-04T11:52:12Z</time>
      </trkpt>
      <trkpt lat="45.37012" lon="3.30958">
        <ele>438.2</ele>
        <time>2025-10-04T11:52:15Z</time>
      </trkpt>
      <trkpt lat="45.36995" lon="3.30959">
        <ele>438.8</ele>
        <time>2025-10-04T11:52:20Z</time>
      </trkpt>
      <trkpt lat="45.36965" lon="3.3096">
        <ele>438.8</ele>
        <time>2025-10-04T11:52:27Z</time>
      </trkpt>
      <trkpt lat="45.36951" lon="3.30959">
        <ele>438.4</ele>
        <time>2025-10-04T11:52:30Z</time>
      </trkpt>
      <trkpt lat="45.36942" lon="3.30955">
        <ele>438</ele>
        <time>2025-10-04T11:52:32Z</time>
      </trkpt>
      <trkpt lat="45.36937" lon="3.30954">
        <ele>437.8</ele>
        <time>2025-10-04T11:52:33Z</time>
      </trkpt>
      <trkpt lat="45.3692" lon="3.30955">
        <ele>437.4</ele>
        <time>2025-10-04T11:52:36Z</time>
      </trkpt>
      <trkpt lat="45.36914" lon="3.30955">
        <ele>437.2</ele>
        <time>2025-10-04T11:52:37Z</time>
      </trkpt>
      <trkpt lat="45.36908" lon="3.30955">
        <ele>437.2</ele>
        <time>2025-10-04T11:52:38Z</time>
      </trkpt>
      <trkpt lat="45.36881" lon="3.30956">
        <ele>436</ele>
        <time>2025-10-04T11:52:42Z</time>
      </trkpt>
      <trkpt lat="45.36868" lon="3.30957">
        <ele>435.4</ele>
        <time>2025-10-04T11:52:44Z</time>
      </trkpt>
      <trkpt lat="45.36855" lon="3.30957">
        <ele>435</ele>
        <time>2025-10-04T11:52:46Z</time>
      </trkpt>
      <trkpt lat="45.36849" lon="3.30956">
        <ele>434.8</ele>
        <time>2025-10-04T11:52:47Z</time>
      </trkpt>
      <trkpt lat="45.36837" lon="3.30953">
        <ele>433.8</ele>
        <time>2025-10-04T11:52:49Z</time>
      </trkpt>
      <trkpt lat="45.36831" lon="3.30951">
        <ele>433.6</ele>
        <time>2025-10-04T11:52:50Z</time>
      </trkpt>
      <trkpt lat="45.36808" lon="3.30939">
        <ele>433.4</ele>
        <time>2025-10-04T11:52:55Z</time>
      </trkpt>
      <trkpt lat="45.36797" lon="3.30931">
        <ele>433.4</ele>
        <time>2025-10-04T11:52:58Z</time>
      </trkpt>
      <trkpt lat="45.36792" lon="3.30924">
        <ele>433.6</ele>
        <time>2025-10-04T11:53:00Z</time>
      </trkpt>
      <trkpt lat="45.36785" lon="3.30909">
        <ele>434.2</ele>
        <time>2025-10-04T11:53:04Z</time>
      </trkpt>
      <trkpt lat="45.36784" lon="3.30906">
        <ele>434.6</ele>
        <time>2025-10-04T11:53:05Z</time>
      </trkpt>
      <trkpt lat="45.36782" lon="3.30904">
        <ele>435.2</ele>
        <time>2025-10-04T11:53:06Z</time>
      </trkpt>
      <trkpt lat="45.36775" lon="3.30903">
        <ele>436.2</ele>
        <time>2025-10-04T11:53:08Z</time>
      </trkpt>
      <trkpt lat="45.36771" lon="3.30902">
        <ele>436.6</ele>
        <time>2025-10-04T11:53:09Z</time>
      </trkpt>
      <trkpt lat="45.36766" lon="3.30902">
        <ele>436.8</ele>
        <time>2025-10-04T11:53:10Z</time>
      </trkpt>
      <trkpt lat="45.36756" lon="3.30905">
        <ele>437</ele>
        <time>2025-10-04T11:53:12Z</time>
      </trkpt>
      <trkpt lat="45.36725" lon="3.30923">
        <ele>437</ele>
        <time>2025-10-04T11:53:17Z</time>
      </trkpt>
      <trkpt lat="45.36696" lon="3.30943">
        <ele>435.4</ele>
        <time>2025-10-04T11:53:21Z</time>
      </trkpt>
      <trkpt lat="45.36681" lon="3.30953">
        <ele>434.6</ele>
        <time>2025-10-04T11:53:23Z</time>
      </trkpt>
      <trkpt lat="45.36673" lon="3.30958">
        <ele>433.6</ele>
        <time>2025-10-04T11:53:24Z</time>
      </trkpt>
      <trkpt lat="45.36664" lon="3.30962">
        <ele>433.2</ele>
        <time>2025-10-04T11:53:25Z</time>
      </trkpt>
      <trkpt lat="45.36648" lon="3.30966">
        <ele>432.4</ele>
        <time>2025-10-04T11:53:27Z</time>
      </trkpt>
      <trkpt lat="45.36631" lon="3.3097">
        <ele>431.2</ele>
        <time>2025-10-04T11:53:29Z</time>
      </trkpt>
      <trkpt lat="45.36615" lon="3.30975">
        <ele>429.8</ele>
        <time>2025-10-04T11:53:31Z</time>
      </trkpt>
      <trkpt lat="45.36601" lon="3.30981">
        <ele>429.4</ele>
        <time>2025-10-04T11:53:33Z</time>
      </trkpt>
      <trkpt lat="45.36588" lon="3.30987">
        <ele>429.2</ele>
        <time>2025-10-04T11:53:35Z</time>
      </trkpt>
      <trkpt lat="45.36577" lon="3.30992">
        <ele>429.2</ele>
        <time>2025-10-04T11:53:37Z</time>
      </trkpt>
      <trkpt lat="45.36572" lon="3.30994">
        <ele>429</ele>
        <time>2025-10-04T11:53:38Z</time>
      </trkpt>
      <trkpt lat="45.36555" lon="3.30994">
        <ele>429</ele>
        <time>2025-10-04T11:53:41Z</time>
      </trkpt>
      <trkpt lat="45.3655" lon="3.30992">
        <ele>429</ele>
        <time>2025-10-04T11:53:42Z</time>
      </trkpt>
      <trkpt lat="45.36505" lon="3.30975">
        <ele>429</ele>
        <time>2025-10-04T11:53:51Z</time>
      </trkpt>
      <trkpt lat="45.36473" lon="3.30963">
        <ele>429.2</ele>
        <time>2025-10-04T11:53:58Z</time>
      </trkpt>
      <trkpt lat="45.36456" lon="3.30954">
        <ele>429.4</ele>
        <time>2025-10-04T11:54:03Z</time>
      </trkpt>
      <trkpt lat="45.3643" lon="3.3093">
        <ele>429.8</ele>
        <time>2025-10-04T11:54:11Z</time>
      </trkpt>
      <trkpt lat="45.36409" lon="3.30909">
        <ele>429.8</ele>
        <time>2025-10-04T11:54:16Z</time>
      </trkpt>
      <trkpt lat="45.36405" lon="3.30905">
        <ele>429.8</ele>
        <time>2025-10-04T11:54:17Z</time>
      </trkpt>
      <trkpt lat="45.36378" lon="3.3088">
        <ele>429.6</ele>
        <time>2025-10-04T11:54:24Z</time>
      </trkpt>
      <trkpt lat="45.36374" lon="3.30877">
        <ele>429.8</ele>
        <time>2025-10-04T11:54:25Z</time>
      </trkpt>
      <trkpt lat="45.36359" lon="3.30864">
        <ele>430.2</ele>
        <time>2025-10-04T11:54:29Z</time>
      </trkpt>
      <trkpt lat="45.36351" lon="3.30857">
        <ele>430.4</ele>
        <time>2025-10-04T11:54:31Z</time>
      </trkpt>
      <trkpt lat="45.36344" lon="3.30851">
        <ele>431</ele>
        <time>2025-10-04T11:54:33Z</time>
      </trkpt>
      <trkpt lat="45.36332" lon="3.30841">
        <ele>431.4</ele>
        <time>2025-10-04T11:54:36Z</time>
      </trkpt>
      <trkpt lat="45.36317" lon="3.30828">
        <ele>431.6</ele>
        <time>2025-10-04T11:54:40Z</time>
      </trkpt>
      <trkpt lat="45.36307" lon="3.30817">
        <ele>432</ele>
        <time>2025-10-04T11:54:43Z</time>
      </trkpt>
      <trkpt lat="45.36301" lon="3.30808">
        <ele>432.2</ele>
        <time>2025-10-04T11:54:45Z</time>
      </trkpt>
      <trkpt lat="45.36296" lon="3.30798">
        <ele>432.4</ele>
        <time>2025-10-04T11:54:47Z</time>
      </trkpt>
      <trkpt lat="45.36294" lon="3.30788">
        <ele>432.6</ele>
        <time>2025-10-04T11:54:49Z</time>
      </trkpt>
      <trkpt lat="45.36292" lon="3.30776">
        <ele>433</ele>
        <time>2025-10-04T11:54:51Z</time>
      </trkpt>
      <trkpt lat="45.36291" lon="3.3077">
        <ele>433.2</ele>
        <time>2025-10-04T11:54:52Z</time>
      </trkpt>
      <trkpt lat="45.36287" lon="3.30753">
        <ele>433.6</ele>
        <time>2025-10-04T11:54:55Z</time>
      </trkpt>
      <trkpt lat="45.36286" lon="3.30748">
        <ele>433.6</ele>
        <time>2025-10-04T11:54:56Z</time>
      </trkpt>
      <trkpt lat="45.36279" lon="3.30727">
        <ele>433.8</ele>
        <time>2025-10-04T11:55:00Z</time>
      </trkpt>
      <trkpt lat="45.36274" lon="3.30718">
        <ele>434.2</ele>
        <time>2025-10-04T11:55:02Z</time>
      </trkpt>
      <trkpt lat="45.36271" lon="3.30714">
        <ele>434.2</ele>
        <time>2025-10-04T11:55:03Z</time>
      </trkpt>
      <trkpt lat="45.36264" lon="3.30706">
        <ele>434.4</ele>
        <time>2025-10-04T11:55:05Z</time>
      </trkpt>
      <trkpt lat="45.3624" lon="3.30682">
        <ele>435.2</ele>
        <time>2025-10-04T11:55:12Z</time>
      </trkpt>
      <trkpt lat="45.36236" lon="3.30678">
        <ele>435.2</ele>
        <time>2025-10-04T11:55:13Z</time>
      </trkpt>
      <trkpt lat="45.3621" lon="3.30648">
        <ele>436</ele>
        <time>2025-10-04T11:55:21Z</time>
      </trkpt>
      <trkpt lat="45.36207" lon="3.30644">
        <ele>436.2</ele>
        <time>2025-10-04T11:55:22Z</time>
      </trkpt>
      <trkpt lat="45.36199" lon="3.3063">
        <ele>436.4</ele>
        <time>2025-10-04T11:55:25Z</time>
      </trkpt>
      <trkpt lat="45.36186" lon="3.30607">
        <ele>436.8</ele>
        <time>2025-10-04T11:55:30Z</time>
      </trkpt>
      <trkpt lat="45.36183" lon="3.30605">
        <ele>437</ele>
        <time>2025-10-04T11:55:31Z</time>
      </trkpt>
      <trkpt lat="45.36175" lon="3.30605">
        <ele>437.2</ele>
        <time>2025-10-04T11:55:33Z</time>
      </trkpt>
      <trkpt lat="45.36148" lon="3.30631">
        <ele>437.4</ele>
        <time>2025-10-04T11:55:40Z</time>
      </trkpt>
      <trkpt lat="45.36115" lon="3.30664">
        <ele>437.2</ele>
        <time>2025-10-04T11:55:47Z</time>
      </trkpt>
      <trkpt lat="45.36091" lon="3.3069">
        <ele>436.2</ele>
        <time>2025-10-04T11:55:52Z</time>
      </trkpt>
      <trkpt lat="45.36078" lon="3.30708">
        <ele>436</ele>
        <time>2025-10-04T11:55:55Z</time>
      </trkpt>
      <trkpt lat="45.36064" lon="3.30727">
        <ele>435.4</ele>
        <time>2025-10-04T11:55:58Z</time>
      </trkpt>
      <trkpt lat="45.36051" lon="3.30746">
        <ele>435.2</ele>
        <time>2025-10-04T11:56:01Z</time>
      </trkpt>
      <trkpt lat="45.36043" lon="3.3076">
        <ele>435.2</ele>
        <time>2025-10-04T11:56:03Z</time>
      </trkpt>
      <trkpt lat="45.3603" lon="3.30781">
        <ele>434.6</ele>
        <time>2025-10-04T11:56:06Z</time>
      </trkpt>
      <trkpt lat="45.3602" lon="3.30793">
        <ele>433.8</ele>
        <time>2025-10-04T11:56:08Z</time>
      </trkpt>
      <trkpt lat="45.36015" lon="3.30798">
        <ele>433.8</ele>
        <time>2025-10-04T11:56:09Z</time>
      </trkpt>
      <trkpt lat="45.35988" lon="3.30821">
        <ele>433.2</ele>
        <time>2025-10-04T11:56:14Z</time>
      </trkpt>
      <trkpt lat="45.35976" lon="3.30825">
        <ele>433</ele>
        <time>2025-10-04T11:56:16Z</time>
      </trkpt>
      <trkpt lat="45.35958" lon="3.30819">
        <ele>432.8</ele>
        <time>2025-10-04T11:56:19Z</time>
      </trkpt>
      <trkpt lat="45.35947" lon="3.30816">
        <ele>432.8</ele>
        <time>2025-10-04T11:56:21Z</time>
      </trkpt>
      <trkpt lat="45.3591" lon="3.30799">
        <ele>431.8</ele>
        <time>2025-10-04T11:56:27Z</time>
      </trkpt>
      <trkpt lat="45.35904" lon="3.30795">
        <ele>431.6</ele>
        <time>2025-10-04T11:56:28Z</time>
      </trkpt>
      <trkpt lat="45.35894" lon="3.30785">
        <ele>431.2</ele>
        <time>2025-10-04T11:56:30Z</time>
      </trkpt>
      <trkpt lat="45.35873" lon="3.30772">
        <ele>430.8</ele>
        <time>2025-10-04T11:56:34Z</time>
      </trkpt>
      <trkpt lat="45.35864" lon="3.30768">
        <ele>430.8</ele>
        <time>2025-10-04T11:56:36Z</time>
      </trkpt>
      <trkpt lat="45.3585" lon="3.3076">
        <ele>431</ele>
        <time>2025-10-04T11:56:39Z</time>
      </trkpt>
      <trkpt lat="45.35841" lon="3.30763">
        <ele>431.4</ele>
        <time>2025-10-04T11:56:41Z</time>
      </trkpt>
      <trkpt lat="45.35837" lon="3.30766">
        <ele>431.4</ele>
        <time>2025-10-04T11:56:42Z</time>
      </trkpt>
      <trkpt lat="45.35829" lon="3.30771">
        <ele>431.8</ele>
        <time>2025-10-04T11:56:44Z</time>
      </trkpt>
      <trkpt lat="45.3582" lon="3.3077">
        <ele>430.6</ele>
        <time>2025-10-04T11:56:46Z</time>
      </trkpt>
      <trkpt lat="45.35806" lon="3.30766">
        <ele>432.8</ele>
        <time>2025-10-04T11:56:49Z</time>
      </trkpt>
      <trkpt lat="45.35802" lon="3.30766">
        <ele>432.8</ele>
        <time>2025-10-04T11:56:50Z</time>
      </trkpt>
      <trkpt lat="45.35792" lon="3.30764">
        <ele>433</ele>
        <time>2025-10-04T11:56:52Z</time>
      </trkpt>
      <trkpt lat="45.35781" lon="3.3076">
        <ele>433</ele>
        <time>2025-10-04T11:56:54Z</time>
      </trkpt>
      <trkpt lat="45.35775" lon="3.30748">
        <ele>433</ele>
        <time>2025-10-04T11:56:56Z</time>
      </trkpt>
      <trkpt lat="45.35768" lon="3.30736">
        <ele>433.2</ele>
        <time>2025-10-04T11:56:58Z</time>
      </trkpt>
      <trkpt lat="45.35758" lon="3.3073">
        <ele>433.2</ele>
        <time>2025-10-04T11:57:00Z</time>
      </trkpt>
      <trkpt lat="45.3572" lon="3.3072">
        <ele>433.2</ele>
        <time>2025-10-04T11:57:08Z</time>
      </trkpt>
      <trkpt lat="45.35715" lon="3.30719">
        <ele>433.2</ele>
        <time>2025-10-04T11:57:09Z</time>
      </trkpt>
      <trkpt lat="45.35686" lon="3.30713">
        <ele>433.6</ele>
        <time>2025-10-04T11:57:15Z</time>
      </trkpt>
      <trkpt lat="45.35671" lon="3.30712">
        <ele>434.2</ele>
        <time>2025-10-04T11:57:18Z</time>
      </trkpt>
      <trkpt lat="45.35627" lon="3.30709">
        <ele>434.4</ele>
        <time>2025-10-04T11:57:27Z</time>
      </trkpt>
      <trkpt lat="45.35623" lon="3.30709">
        <ele>434.6</ele>
        <time>2025-10-04T11:57:28Z</time>
      </trkpt>
      <trkpt lat="45.35604" lon="3.30708">
        <ele>435.2</ele>
        <time>2025-10-04T11:57:32Z</time>
      </trkpt>
      <trkpt lat="45.35596" lon="3.30706">
        <ele>435.2</ele>
        <time>2025-10-04T11:57:34Z</time>
      </trkpt>
      <trkpt lat="45.35558" lon="3.30703">
        <ele>435.6</ele>
        <time>2025-10-04T11:57:42Z</time>
      </trkpt>
      <trkpt lat="45.35524" lon="3.30693">
        <ele>435.6</ele>
        <time>2025-10-04T11:57:49Z</time>
      </trkpt>
      <trkpt lat="45.35519" lon="3.30692">
        <ele>435.6</ele>
        <time>2025-10-04T11:57:50Z</time>
      </trkpt>
      <trkpt lat="45.35491" lon="3.30687">
        <ele>435.4</ele>
        <time>2025-10-04T11:57:56Z</time>
      </trkpt>
      <trkpt lat="45.35445" lon="3.30686">
        <ele>435.4</ele>
        <time>2025-10-04T11:58:05Z</time>
      </trkpt>
      <trkpt lat="45.35419" lon="3.30683">
        <ele>435</ele>
        <time>2025-10-04T11:58:10Z</time>
      </trkpt>
      <trkpt lat="45.35408" lon="3.30685">
        <ele>435</ele>
        <time>2025-10-04T11:58:12Z</time>
      </trkpt>
      <trkpt lat="45.35399" lon="3.3069">
        <ele>434.8</ele>
        <time>2025-10-04T11:58:14Z</time>
      </trkpt>
      <trkpt lat="45.35384" lon="3.30699">
        <ele>434.8</ele>
        <time>2025-10-04T11:58:17Z</time>
      </trkpt>
      <trkpt lat="45.35375" lon="3.30703">
        <ele>434.8</ele>
        <time>2025-10-04T11:58:19Z</time>
      </trkpt>
      <trkpt lat="45.35355" lon="3.30707">
        <ele>435</ele>
        <time>2025-10-04T11:58:23Z</time>
      </trkpt>
      <trkpt lat="45.35308" lon="3.30716">
        <ele>435.6</ele>
        <time>2025-10-04T11:58:33Z</time>
      </trkpt>
      <trkpt lat="45.3529" lon="3.30719">
        <ele>436.2</ele>
        <time>2025-10-04T11:58:37Z</time>
      </trkpt>
      <trkpt lat="45.35269" lon="3.30724">
        <ele>437</ele>
        <time>2025-10-04T11:58:42Z</time>
      </trkpt>
      <trkpt lat="45.3526" lon="3.30726">
        <ele>437.6</ele>
        <time>2025-10-04T11:58:44Z</time>
      </trkpt>
      <trkpt lat="45.35221" lon="3.30736">
        <ele>437.8</ele>
        <time>2025-10-04T11:58:52Z</time>
      </trkpt>
      <trkpt lat="45.35179" lon="3.30747">
        <ele>438.6</ele>
        <time>2025-10-04T11:59:01Z</time>
      </trkpt>
      <trkpt lat="45.35174" lon="3.30748">
        <ele>438.6</ele>
        <time>2025-10-04T11:59:02Z</time>
      </trkpt>
      <trkpt lat="45.35144" lon="3.30758">
        <ele>439.4</ele>
        <time>2025-10-04T11:59:09Z</time>
      </trkpt>
      <trkpt lat="45.35128" lon="3.30763">
        <ele>439.6</ele>
        <time>2025-10-04T11:59:13Z</time>
      </trkpt>
      <trkpt lat="45.35116" lon="3.30767">
        <ele>440</ele>
        <time>2025-10-04T11:59:16Z</time>
      </trkpt>
      <trkpt lat="45.35097" lon="3.30771">
        <ele>440.8</ele>
        <time>2025-10-04T11:59:21Z</time>
      </trkpt>
      <trkpt lat="45.35087" lon="3.30778">
        <ele>441</ele>
        <time>2025-10-04T11:59:24Z</time>
      </trkpt>
      <trkpt lat="45.35087" lon="3.30787">
        <ele>441</ele>
        <time>2025-10-04T11:59:26Z</time>
      </trkpt>
      <trkpt lat="45.35089" lon="3.30792">
        <ele>441</ele>
        <time>2025-10-04T11:59:27Z</time>
      </trkpt>
      <trkpt lat="45.35105" lon="3.30831">
        <ele>440.8</ele>
        <time>2025-10-04T11:59:34Z</time>
      </trkpt>
      <trkpt lat="45.3512" lon="3.30862">
        <ele>440.6</ele>
        <time>2025-10-04T11:59:39Z</time>
      </trkpt>
      <trkpt lat="45.35128" lon="3.30881">
        <ele>440.6</ele>
        <time>2025-10-04T11:59:42Z</time>
      </trkpt>
      <trkpt lat="45.35129" lon="3.30888">
        <ele>440.6</ele>
        <time>2025-10-04T11:59:43Z</time>
      </trkpt>
      <trkpt lat="45.3513" lon="3.30904">
        <ele>440.4</ele>
        <time>2025-10-04T11:59:45Z</time>
      </trkpt>
      <trkpt lat="45.35129" lon="3.30912">
        <ele>440.4</ele>
        <time>2025-10-04T11:59:46Z</time>
      </trkpt>
      <trkpt lat="45.35127" lon="3.30947">
        <ele>440</ele>
        <time>2025-10-04T11:59:50Z</time>
      </trkpt>
      <trkpt lat="45.35129" lon="3.30963">
        <ele>439.8</ele>
        <time>2025-10-04T11:59:52Z</time>
      </trkpt>
      <trkpt lat="45.35134" lon="3.30981">
        <ele>439.6</ele>
        <time>2025-10-04T11:59:54Z</time>
      </trkpt>
      <trkpt lat="45.35139" lon="3.30999">
        <ele>439.4</ele>
        <time>2025-10-04T11:59:56Z</time>
      </trkpt>
      <trkpt lat="45.35141" lon="3.31009">
        <ele>439.2</ele>
        <time>2025-10-04T11:59:57Z</time>
      </trkpt>
      <trkpt lat="45.35144" lon="3.3104">
        <ele>438.4</ele>
        <time>2025-10-04T12:00:00Z</time>
      </trkpt>
      <trkpt lat="45.35146" lon="3.31071">
        <ele>437.4</ele>
        <time>2025-10-04T12:00:03Z</time>
      </trkpt>
      <trkpt lat="45.35148" lon="3.31081">
        <ele>437.2</ele>
        <time>2025-10-04T12:00:04Z</time>
      </trkpt>
      <trkpt lat="45.3515" lon="3.31119">
        <ele>436.6</ele>
        <time>2025-10-04T12:00:08Z</time>
      </trkpt>
      <trkpt lat="45.3515" lon="3.31132">
        <ele>436.4</ele>
        <time>2025-10-04T12:00:10Z</time>
      </trkpt>
      <trkpt lat="45.35151" lon="3.31154">
        <ele>436.4</ele>
        <time>2025-10-04T12:00:13Z</time>
      </trkpt>
      <trkpt lat="45.3515" lon="3.31171">
        <ele>436.4</ele>
        <time>2025-10-04T12:00:15Z</time>
      </trkpt>
      <trkpt lat="45.35142" lon="3.31214">
        <ele>436.6</ele>
        <time>2025-10-04T12:00:20Z</time>
      </trkpt>
      <trkpt lat="45.3514" lon="3.31222">
        <ele>436.6</ele>
        <time>2025-10-04T12:00:21Z</time>
      </trkpt>
      <trkpt lat="45.35136" lon="3.31228">
        <ele>436.6</ele>
        <time>2025-10-04T12:00:22Z</time>
      </trkpt>
      <trkpt lat="45.35132" lon="3.31234">
        <ele>436.6</ele>
        <time>2025-10-04T12:00:23Z</time>
      </trkpt>
      <trkpt lat="45.35122" lon="3.31243">
        <ele>436.6</ele>
        <time>2025-10-04T12:00:25Z</time>
      </trkpt>
      <trkpt lat="45.35118" lon="3.31249">
        <ele>436.8</ele>
        <time>2025-10-04T12:00:26Z</time>
      </trkpt>
      <trkpt lat="45.35109" lon="3.3126">
        <ele>437.2</ele>
        <time>2025-10-04T12:00:28Z</time>
      </trkpt>
      <trkpt lat="45.35105" lon="3.31263">
        <ele>437.8</ele>
        <time>2025-10-04T12:00:29Z</time>
      </trkpt>
      <trkpt lat="45.35101" lon="3.31264">
        <ele>438</ele>
        <time>2025-10-04T12:00:30Z</time>
      </trkpt>
      <trkpt lat="45.35098" lon="3.31261">
        <ele>438.4</ele>
        <time>2025-10-04T12:00:31Z</time>
      </trkpt>
      <trkpt lat="45.35095" lon="3.31238">
        <ele>438.6</ele>
        <time>2025-10-04T12:00:34Z</time>
      </trkpt>
      <trkpt lat="45.35093" lon="3.31208">
        <ele>439</ele>
        <time>2025-10-04T12:00:37Z</time>
      </trkpt>
      <trkpt lat="45.3509" lon="3.31199">
        <ele>438.8</ele>
        <time>2025-10-04T12:00:38Z</time>
      </trkpt>
      <trkpt lat="45.35086" lon="3.31191">
        <ele>438.8</ele>
        <time>2025-10-04T12:00:39Z</time>
      </trkpt>
      <trkpt lat="45.3508" lon="3.31187">
        <ele>438.6</ele>
        <time>2025-10-04T12:00:40Z</time>
      </trkpt>
      <trkpt lat="45.35053" lon="3.31179">
        <ele>437.4</ele>
        <time>2025-10-04T12:00:44Z</time>
      </trkpt>
      <trkpt lat="45.35041" lon="3.31177">
        <ele>437.2</ele>
        <time>2025-10-04T12:00:46Z</time>
      </trkpt>
      <trkpt lat="45.35023" lon="3.3118">
        <ele>437</ele>
        <time>2025-10-04T12:00:49Z</time>
      </trkpt>
      <trkpt lat="45.35011" lon="3.31183">
        <ele>437</ele>
        <time>2025-10-04T12:00:51Z</time>
      </trkpt>
      <trkpt lat="45.34987" lon="3.31186">
        <ele>437.2</ele>
        <time>2025-10-04T12:00:55Z</time>
      </trkpt>
      <trkpt lat="45.34975" lon="3.31186">
        <ele>437.4</ele>
        <time>2025-10-04T12:00:57Z</time>
      </trkpt>
      <trkpt lat="45.34963" lon="3.31186">
        <ele>437.4</ele>
        <time>2025-10-04T12:00:59Z</time>
      </trkpt>
      <trkpt lat="45.34951" lon="3.31188">
        <ele>437.4</ele>
        <time>2025-10-04T12:01:01Z</time>
      </trkpt>
      <trkpt lat="45.34939" lon="3.3119">
        <ele>437.4</ele>
        <time>2025-10-04T12:01:03Z</time>
      </trkpt>
      <trkpt lat="45.34928" lon="3.31196">
        <ele>437.6</ele>
        <time>2025-10-04T12:01:05Z</time>
      </trkpt>
      <trkpt lat="45.34911" lon="3.31207">
        <ele>437.6</ele>
        <time>2025-10-04T12:01:08Z</time>
      </trkpt>
      <trkpt lat="45.349" lon="3.31212">
        <ele>437.8</ele>
        <time>2025-10-04T12:01:10Z</time>
      </trkpt>
      <trkpt lat="45.34877" lon="3.31216">
        <ele>438.4</ele>
        <time>2025-10-04T12:01:14Z</time>
      </trkpt>
      <trkpt lat="45.34871" lon="3.31218">
        <ele>438.4</ele>
        <time>2025-10-04T12:01:15Z</time>
      </trkpt>
      <trkpt lat="45.3486" lon="3.31221">
        <ele>438.4</ele>
        <time>2025-10-04T12:01:17Z</time>
      </trkpt>
      <trkpt lat="45.34844" lon="3.31221">
        <ele>438.8</ele>
        <time>2025-10-04T12:01:20Z</time>
      </trkpt>
      <trkpt lat="45.34834" lon="3.31227">
        <ele>438.8</ele>
        <time>2025-10-04T12:01:22Z</time>
      </trkpt>
      <trkpt lat="45.34831" lon="3.31231">
        <ele>438.8</ele>
        <time>2025-10-04T12:01:23Z</time>
      </trkpt>
      <trkpt lat="45.34829" lon="3.31237">
        <ele>438.8</ele>
        <time>2025-10-04T12:01:24Z</time>
      </trkpt>
      <trkpt lat="45.34824" lon="3.31254">
        <ele>439</ele>
        <time>2025-10-04T12:01:27Z</time>
      </trkpt>
      <trkpt lat="45.34822" lon="3.3126">
        <ele>439.2</ele>
        <time>2025-10-04T12:01:28Z</time>
      </trkpt>
      <trkpt lat="45.34814" lon="3.31277">
        <ele>439.4</ele>
        <time>2025-10-04T12:01:31Z</time>
      </trkpt>
      <trkpt lat="45.3481" lon="3.31282">
        <ele>439.4</ele>
        <time>2025-10-04T12:01:32Z</time>
      </trkpt>
      <trkpt lat="45.34806" lon="3.31287">
        <ele>439.6</ele>
        <time>2025-10-04T12:01:33Z</time>
      </trkpt>
      <trkpt lat="45.34789" lon="3.31296">
        <ele>439.6</ele>
        <time>2025-10-04T12:01:36Z</time>
      </trkpt>
      <trkpt lat="45.34755" lon="3.31312">
        <ele>439.2</ele>
        <time>2025-10-04T12:01:42Z</time>
      </trkpt>
      <trkpt lat="45.34738" lon="3.31315">
        <ele>439.2</ele>
        <time>2025-10-04T12:01:45Z</time>
      </trkpt>
      <trkpt lat="45.34728" lon="3.3132">
        <ele>439.2</ele>
        <time>2025-10-04T12:01:47Z</time>
      </trkpt>
      <trkpt lat="45.34692" lon="3.31342">
        <ele>439.4</ele>
        <time>2025-10-04T12:01:54Z</time>
      </trkpt>
      <trkpt lat="45.34687" lon="3.31345">
        <ele>439.6</ele>
        <time>2025-10-04T12:01:55Z</time>
      </trkpt>
      <trkpt lat="45.34663" lon="3.31362">
        <ele>440.6</ele>
        <time>2025-10-04T12:02:00Z</time>
      </trkpt>
      <trkpt lat="45.34653" lon="3.31369">
        <ele>440.8</ele>
        <time>2025-10-04T12:02:02Z</time>
      </trkpt>
      <trkpt lat="45.34636" lon="3.31373">
        <ele>440.8</ele>
        <time>2025-10-04T12:02:05Z</time>
      </trkpt>
      <trkpt lat="45.34599" lon="3.31379">
        <ele>440.8</ele>
        <time>2025-10-04T12:02:12Z</time>
      </trkpt>
      <trkpt lat="45.34589" lon="3.31382">
        <ele>440.8</ele>
        <time>2025-10-04T12:02:14Z</time>
      </trkpt>
      <trkpt lat="45.34581" lon="3.31388">
        <ele>440.8</ele>
        <time>2025-10-04T12:02:16Z</time>
      </trkpt>
      <trkpt lat="45.34577" lon="3.31392">
        <ele>440.8</ele>
        <time>2025-10-04T12:02:17Z</time>
      </trkpt>
      <trkpt lat="45.34566" lon="3.31405">
        <ele>441</ele>
        <time>2025-10-04T12:02:20Z</time>
      </trkpt>
      <trkpt lat="45.34557" lon="3.31412">
        <ele>441.4</ele>
        <time>2025-10-04T12:02:22Z</time>
      </trkpt>
      <trkpt lat="45.34553" lon="3.31414">
        <ele>441.4</ele>
        <time>2025-10-04T12:02:23Z</time>
      </trkpt>
      <trkpt lat="45.34548" lon="3.31416">
        <ele>441.4</ele>
        <time>2025-10-04T12:02:24Z</time>
      </trkpt>
      <trkpt lat="45.34528" lon="3.31418">
        <ele>441.4</ele>
        <time>2025-10-04T12:02:28Z</time>
      </trkpt>
      <trkpt lat="45.34514" lon="3.3142">
        <ele>441.4</ele>
        <time>2025-10-04T12:02:31Z</time>
      </trkpt>
      <trkpt lat="45.34501" lon="3.31424">
        <ele>441.6</ele>
        <time>2025-10-04T12:02:34Z</time>
      </trkpt>
      <trkpt lat="45.34492" lon="3.31429">
        <ele>442</ele>
        <time>2025-10-04T12:02:36Z</time>
      </trkpt>
      <trkpt lat="45.34486" lon="3.31437">
        <ele>441.8</ele>
        <time>2025-10-04T12:02:38Z</time>
      </trkpt>
      <trkpt lat="45.34474" lon="3.31457">
        <ele>442.2</ele>
        <time>2025-10-04T12:02:42Z</time>
      </trkpt>
      <trkpt lat="45.34467" lon="3.31467">
        <ele>442.2</ele>
        <time>2025-10-04T12:02:44Z</time>
      </trkpt>
      <trkpt lat="45.34457" lon="3.31474">
        <ele>442.4</ele>
        <time>2025-10-04T12:02:46Z</time>
      </trkpt>
      <trkpt lat="45.34437" lon="3.31481">
        <ele>442.4</ele>
        <time>2025-10-04T12:02:50Z</time>
      </trkpt>
      <trkpt lat="45.34432" lon="3.31482">
        <ele>442.6</ele>
        <time>2025-10-04T12:02:51Z</time>
      </trkpt>
      <trkpt lat="45.34416" lon="3.31485">
        <ele>443</ele>
        <time>2025-10-04T12:02:54Z</time>
      </trkpt>
      <trkpt lat="45.34408" lon="3.31491">
        <ele>443</ele>
        <time>2025-10-04T12:02:56Z</time>
      </trkpt>
      <trkpt lat="45.34398" lon="3.31511">
        <ele>443</ele>
        <time>2025-10-04T12:03:00Z</time>
      </trkpt>
      <trkpt lat="45.34395" lon="3.31516">
        <ele>443</ele>
        <time>2025-10-04T12:03:01Z</time>
      </trkpt>
      <trkpt lat="45.34388" lon="3.31525">
        <ele>443</ele>
        <time>2025-10-04T12:03:03Z</time>
      </trkpt>
      <trkpt lat="45.34384" lon="3.31528">
        <ele>443</ele>
        <time>2025-10-04T12:03:04Z</time>
      </trkpt>
      <trkpt lat="45.34379" lon="3.31529">
        <ele>443</ele>
        <time>2025-10-04T12:03:05Z</time>
      </trkpt>
      <trkpt lat="45.34369" lon="3.31529">
        <ele>443.2</ele>
        <time>2025-10-04T12:03:07Z</time>
      </trkpt>
      <trkpt lat="45.34364" lon="3.31527">
        <ele>443.2</ele>
        <time>2025-10-04T12:03:08Z</time>
      </trkpt>
      <trkpt lat="45.34359" lon="3.31524">
        <ele>443.2</ele>
        <time>2025-10-04T12:03:09Z</time>
      </trkpt>
      <trkpt lat="45.34351" lon="3.31514">
        <ele>443.6</ele>
        <time>2025-10-04T12:03:11Z</time>
      </trkpt>
      <trkpt lat="45.34347" lon="3.31509">
        <ele>443.6</ele>
        <time>2025-10-04T12:03:12Z</time>
      </trkpt>
      <trkpt lat="45.34344" lon="3.31504">
        <ele>443.6</ele>
        <time>2025-10-04T12:03:13Z</time>
      </trkpt>
      <trkpt lat="45.34335" lon="3.31504">
        <ele>443.6</ele>
        <time>2025-10-04T12:03:15Z</time>
      </trkpt>
      <trkpt lat="45.34326" lon="3.3151">
        <ele>443.6</ele>
        <time>2025-10-04T12:03:17Z</time>
      </trkpt>
      <trkpt lat="45.34322" lon="3.31514">
        <ele>443.6</ele>
        <time>2025-10-04T12:03:18Z</time>
      </trkpt>
      <trkpt lat="45.34319" lon="3.31518">
        <ele>443.8</ele>
        <time>2025-10-04T12:03:19Z</time>
      </trkpt>
      <trkpt lat="45.34304" lon="3.31531">
        <ele>444</ele>
        <time>2025-10-04T12:03:23Z</time>
      </trkpt>
      <trkpt lat="45.34302" lon="3.3153">
        <ele>444</ele>
        <time>2025-10-04T12:03:24Z</time>
      </trkpt>
      <trkpt lat="45.34301" lon="3.31522">
        <ele>444.8</ele>
        <time>2025-10-04T12:03:27Z</time>
      </trkpt>
      <trkpt lat="45.34303" lon="3.31505">
        <ele>444.8</ele>
        <time>2025-10-04T12:03:34Z</time>
      </trkpt>
      <trkpt lat="45.34299" lon="3.31501">
        <ele>444.8</ele>
        <time>2025-10-04T12:03:37Z</time>
      </trkpt>
      <trkpt lat="45.34298" lon="3.31499">
        <ele>444.8</ele>
        <time>2025-10-04T12:03:38Z</time>
      </trkpt>
      <trkpt lat="45.3429" lon="3.31484">
        <ele>444.6</ele>
        <time>2025-10-04T12:03:43Z</time>
      </trkpt>
      <trkpt lat="45.34288" lon="3.3148">
        <ele>444.2</ele>
        <time>2025-10-04T12:03:44Z</time>
      </trkpt>
      <trkpt lat="45.34277" lon="3.31465">
        <ele>443.8</ele>
        <time>2025-10-04T12:03:48Z</time>
      </trkpt>
      <trkpt lat="45.34268" lon="3.31458">
        <ele>443.6</ele>
        <time>2025-10-04T12:03:50Z</time>
      </trkpt>
      <trkpt lat="45.34258" lon="3.31452">
        <ele>443.4</ele>
        <time>2025-10-04T12:03:52Z</time>
      </trkpt>
      <trkpt lat="45.34248" lon="3.31447">
        <ele>443.2</ele>
        <time>2025-10-04T12:03:54Z</time>
      </trkpt>
      <trkpt lat="45.34243" lon="3.31446">
        <ele>443.2</ele>
        <time>2025-10-04T12:03:55Z</time>
      </trkpt>
      <trkpt lat="45.34208" lon="3.31441">
        <ele>443.4</ele>
        <time>2025-10-04T12:04:02Z</time>
      </trkpt>
      <trkpt lat="45.34169" lon="3.31444">
        <ele>443.8</ele>
        <time>2025-10-04T12:04:10Z</time>
      </trkpt>
      <trkpt lat="45.34165" lon="3.31443">
        <ele>444</ele>
        <time>2025-10-04T12:04:11Z</time>
      </trkpt>
      <trkpt lat="45.34156" lon="3.31444">
        <ele>444.2</ele>
        <time>2025-10-04T12:04:13Z</time>
      </trkpt>
      <trkpt lat="45.34147" lon="3.31443">
        <ele>444.4</ele>
        <time>2025-10-04T12:04:15Z</time>
      </trkpt>
      <trkpt lat="45.34133" lon="3.31441">
        <ele>444.4</ele>
        <time>2025-10-04T12:04:18Z</time>
      </trkpt>
      <trkpt lat="45.34123" lon="3.31438">
        <ele>444.6</ele>
        <time>2025-10-04T12:04:20Z</time>
      </trkpt>
      <trkpt lat="45.34098" lon="3.31427">
        <ele>444.4</ele>
        <time>2025-10-04T12:04:26Z</time>
      </trkpt>
      <trkpt lat="45.34071" lon="3.31409">
        <ele>444.4</ele>
        <time>2025-10-04T12:04:33Z</time>
      </trkpt>
      <trkpt lat="45.34056" lon="3.314">
        <ele>445</ele>
        <time>2025-10-04T12:04:37Z</time>
      </trkpt>
      <trkpt lat="45.34038" lon="3.31391">
        <ele>445.8</ele>
        <time>2025-10-04T12:04:42Z</time>
      </trkpt>
      <trkpt lat="45.34035" lon="3.3139">
        <ele>446</ele>
        <time>2025-10-04T12:04:43Z</time>
      </trkpt>
      <trkpt lat="45.34013" lon="3.31386">
        <ele>446.8</ele>
        <time>2025-10-04T12:04:49Z</time>
      </trkpt>
      <trkpt lat="45.34006" lon="3.31386">
        <ele>447.2</ele>
        <time>2025-10-04T12:04:51Z</time>
      </trkpt>
      <trkpt lat="45.33992" lon="3.31382">
        <ele>448.2</ele>
        <time>2025-10-04T12:04:55Z</time>
      </trkpt>
      <trkpt lat="45.33985" lon="3.3138">
        <ele>448.6</ele>
        <time>2025-10-04T12:04:57Z</time>
      </trkpt>
      <trkpt lat="45.33973" lon="3.31378">
        <ele>449.2</ele>
        <time>2025-10-04T12:05:00Z</time>
      </trkpt>
      <trkpt lat="45.33948" lon="3.31373">
        <ele>450.2</ele>
        <time>2025-10-04T12:05:06Z</time>
      </trkpt>
      <trkpt lat="45.33944" lon="3.31372">
        <ele>450.4</ele>
        <time>2025-10-04T12:05:07Z</time>
      </trkpt>
      <trkpt lat="45.33907" lon="3.31365">
        <ele>450.4</ele>
        <time>2025-10-04T12:05:15Z</time>
      </trkpt>
      <trkpt lat="45.33854" lon="3.31357">
        <ele>449.6</ele>
        <time>2025-10-04T12:05:26Z</time>
      </trkpt>
      <trkpt lat="45.33803" lon="3.31345">
        <ele>450</ele>
        <time>2025-10-04T12:05:36Z</time>
      </trkpt>
      <trkpt lat="45.33755" lon="3.31323">
        <ele>450.2</ele>
        <time>2025-10-04T12:05:45Z</time>
      </trkpt>
      <trkpt lat="45.33706" lon="3.313">
        <ele>450.2</ele>
        <time>2025-10-04T12:05:54Z</time>
      </trkpt>
      <trkpt lat="45.3366" lon="3.31286">
        <ele>450</ele>
        <time>2025-10-04T12:06:02Z</time>
      </trkpt>
      <trkpt lat="45.33612" lon="3.31281">
        <ele>450.2</ele>
        <time>2025-10-04T12:06:11Z</time>
      </trkpt>
      <trkpt lat="45.33601" lon="3.31282">
        <ele>450.2</ele>
        <time>2025-10-04T12:06:13Z</time>
      </trkpt>
      <trkpt lat="45.33581" lon="3.31291">
        <ele>450.2</ele>
        <time>2025-10-04T12:06:17Z</time>
      </trkpt>
      <trkpt lat="45.33552" lon="3.31312">
        <ele>450.4</ele>
        <time>2025-10-04T12:06:23Z</time>
      </trkpt>
      <trkpt lat="45.33527" lon="3.31327">
        <ele>450.8</ele>
        <time>2025-10-04T12:06:28Z</time>
      </trkpt>
      <trkpt lat="45.33522" lon="3.31329">
        <ele>451</ele>
        <time>2025-10-04T12:06:29Z</time>
      </trkpt>
      <trkpt lat="45.33482" lon="3.31338">
        <ele>451.2</ele>
        <time>2025-10-04T12:06:37Z</time>
      </trkpt>
      <trkpt lat="45.33453" lon="3.31345">
        <ele>451.6</ele>
        <time>2025-10-04T12:06:43Z</time>
      </trkpt>
      <trkpt lat="45.3344" lon="3.31349">
        <ele>452.2</ele>
        <time>2025-10-04T12:06:46Z</time>
      </trkpt>
      <trkpt lat="45.33436" lon="3.31351">
        <ele>452.2</ele>
        <time>2025-10-04T12:06:47Z</time>
      </trkpt>
      <trkpt lat="45.33415" lon="3.3136">
        <ele>452.8</ele>
        <time>2025-10-04T12:06:52Z</time>
      </trkpt>
      <trkpt lat="45.334" lon="3.31368">
        <ele>453.4</ele>
        <time>2025-10-04T12:06:56Z</time>
      </trkpt>
      <trkpt lat="45.33376" lon="3.31383">
        <ele>454</ele>
        <time>2025-10-04T12:07:03Z</time>
      </trkpt>
      <trkpt lat="45.33362" lon="3.31401">
        <ele>454.4</ele>
        <time>2025-10-04T12:07:08Z</time>
      </trkpt>
      <trkpt lat="45.33349" lon="3.31436">
        <ele>453.8</ele>
        <time>2025-10-04T12:07:13Z</time>
      </trkpt>
      <trkpt lat="45.33346" lon="3.31443">
        <ele>453.6</ele>
        <time>2025-10-04T12:07:14Z</time>
      </trkpt>
      <trkpt lat="45.33339" lon="3.31456">
        <ele>453.4</ele>
        <time>2025-10-04T12:07:16Z</time>
      </trkpt>
      <trkpt lat="45.33335" lon="3.3146">
        <ele>453.2</ele>
        <time>2025-10-04T12:07:17Z</time>
      </trkpt>
      <trkpt lat="45.33331" lon="3.31464">
        <ele>453</ele>
        <time>2025-10-04T12:07:18Z</time>
      </trkpt>
      <trkpt lat="45.33326" lon="3.31466">
        <ele>452.8</ele>
        <time>2025-10-04T12:07:19Z</time>
      </trkpt>
      <trkpt lat="45.33321" lon="3.31467">
        <ele>452.6</ele>
        <time>2025-10-04T12:07:20Z</time>
      </trkpt>
      <trkpt lat="45.33301" lon="3.31473">
        <ele>452.4</ele>
        <time>2025-10-04T12:07:24Z</time>
      </trkpt>
      <trkpt lat="45.33287" lon="3.31475">
        <ele>452.4</ele>
        <time>2025-10-04T12:07:27Z</time>
      </trkpt>
      <trkpt lat="45.33253" lon="3.31481">
        <ele>452.4</ele>
        <time>2025-10-04T12:07:34Z</time>
      </trkpt>
      <trkpt lat="45.33241" lon="3.3149">
        <ele>452.6</ele>
        <time>2025-10-04T12:07:37Z</time>
      </trkpt>
      <trkpt lat="45.33226" lon="3.31502">
        <ele>452.8</ele>
        <time>2025-10-04T12:07:41Z</time>
      </trkpt>
      <trkpt lat="45.33192" lon="3.31531">
        <ele>453.2</ele>
        <time>2025-10-04T12:07:49Z</time>
      </trkpt>
      <trkpt lat="45.33151" lon="3.31563">
        <ele>453.8</ele>
        <time>2025-10-04T12:07:59Z</time>
      </trkpt>
      <trkpt lat="45.33115" lon="3.31581">
        <ele>454.4</ele>
        <time>2025-10-04T12:08:07Z</time>
      </trkpt>
      <trkpt lat="45.33111" lon="3.31584">
        <ele>454.4</ele>
        <time>2025-10-04T12:08:08Z</time>
      </trkpt>
      <trkpt lat="45.33103" lon="3.3159">
        <ele>454.6</ele>
        <time>2025-10-04T12:08:10Z</time>
      </trkpt>
      <trkpt lat="45.33095" lon="3.31597">
        <ele>454.6</ele>
        <time>2025-10-04T12:08:12Z</time>
      </trkpt>
      <trkpt lat="45.33085" lon="3.31611">
        <ele>455</ele>
        <time>2025-10-04T12:08:15Z</time>
      </trkpt>
      <trkpt lat="45.33068" lon="3.31636">
        <ele>455.2</ele>
        <time>2025-10-04T12:08:20Z</time>
      </trkpt>
      <trkpt lat="45.3304" lon="3.31674">
        <ele>455.6</ele>
        <time>2025-10-04T12:08:28Z</time>
      </trkpt>
      <trkpt lat="45.33034" lon="3.31685">
        <ele>455.6</ele>
        <time>2025-10-04T12:08:30Z</time>
      </trkpt>
      <trkpt lat="45.33031" lon="3.31691">
        <ele>455.6</ele>
        <time>2025-10-04T12:08:31Z</time>
      </trkpt>
      <trkpt lat="45.33016" lon="3.31709">
        <ele>455.4</ele>
        <time>2025-10-04T12:08:35Z</time>
      </trkpt>
      <trkpt lat="45.32982" lon="3.31742">
        <ele>455.4</ele>
        <time>2025-10-04T12:08:44Z</time>
      </trkpt>
      <trkpt lat="45.32979" lon="3.31745">
        <ele>455.6</ele>
        <time>2025-10-04T12:08:45Z</time>
      </trkpt>
      <trkpt lat="45.32969" lon="3.31753">
        <ele>455.8</ele>
        <time>2025-10-04T12:08:48Z</time>
      </trkpt>
      <trkpt lat="45.32961" lon="3.31761">
        <ele>456</ele>
        <time>2025-10-04T12:08:51Z</time>
      </trkpt>
      <trkpt lat="45.3296" lon="3.31763">
        <ele>456.2</ele>
        <time>2025-10-04T12:08:52Z</time>
      </trkpt>
      <trkpt lat="45.32961" lon="3.31771">
        <ele>456.4</ele>
        <time>2025-10-04T12:08:54Z</time>
      </trkpt>
      <trkpt lat="45.3297" lon="3.31796">
        <ele>456.8</ele>
        <time>2025-10-04T12:08:59Z</time>
      </trkpt>
      <trkpt lat="45.32983" lon="3.31813">
        <ele>456.8</ele>
        <time>2025-10-04T12:09:03Z</time>
      </trkpt>
      <trkpt lat="45.3299" lon="3.3182">
        <ele>456.6</ele>
        <time>2025-10-04T12:09:05Z</time>
      </trkpt>
      <trkpt lat="45.32993" lon="3.31824">
        <ele>456.6</ele>
        <time>2025-10-04T12:09:06Z</time>
      </trkpt>
      <trkpt lat="45.32999" lon="3.3183">
        <ele>456.4</ele>
        <time>2025-10-04T12:09:08Z</time>
      </trkpt>
      <trkpt lat="45.33006" lon="3.31838">
        <ele>456.2</ele>
        <time>2025-10-04T12:09:10Z</time>
      </trkpt>
      <trkpt lat="45.33009" lon="3.31842">
        <ele>456.2</ele>
        <time>2025-10-04T12:09:11Z</time>
      </trkpt>
      <trkpt lat="45.33012" lon="3.31846">
        <ele>456.2</ele>
        <time>2025-10-04T12:09:12Z</time>
      </trkpt>
      <trkpt lat="45.33027" lon="3.31865">
        <ele>456.4</ele>
        <time>2025-10-04T12:09:17Z</time>
      </trkpt>
      <trkpt lat="45.33041" lon="3.31883">
        <ele>457</ele>
        <time>2025-10-04T12:09:23Z</time>
      </trkpt>
      <trkpt lat="45.33044" lon="3.31886">
        <ele>457.2</ele>
        <time>2025-10-04T12:09:24Z</time>
      </trkpt>
      <trkpt lat="45.33056" lon="3.31899">
        <ele>458.2</ele>
        <time>2025-10-04T12:09:29Z</time>
      </trkpt>
      <trkpt lat="45.3306" lon="3.31903">
        <ele>458.4</ele>
        <time>2025-10-04T12:09:31Z</time>
      </trkpt>
      <trkpt lat="45.3307" lon="3.31913">
        <ele>459</ele>
        <time>2025-10-04T12:09:35Z</time>
      </trkpt>
      <trkpt lat="45.33081" lon="3.31926">
        <ele>460</ele>
        <time>2025-10-04T12:09:40Z</time>
      </trkpt>
      <trkpt lat="45.33083" lon="3.31929">
        <ele>460.2</ele>
        <time>2025-10-04T12:09:41Z</time>
      </trkpt>
      <trkpt lat="45.33094" lon="3.31941">
        <ele>461.4</ele>
        <time>2025-10-04T12:09:46Z</time>
      </trkpt>
      <trkpt lat="45.33099" lon="3.31947">
        <ele>461.6</ele>
        <time>2025-10-04T12:09:48Z</time>
      </trkpt>
      <trkpt lat="45.33108" lon="3.31958">
        <ele>462.4</ele>
        <time>2025-10-04T12:09:52Z</time>
      </trkpt>
      <trkpt lat="45.33111" lon="3.31964">
        <ele>462.6</ele>
        <time>2025-10-04T12:09:54Z</time>
      </trkpt>
      <trkpt lat="45.33116" lon="3.31971">
        <ele>463.4</ele>
        <time>2025-10-04T12:09:57Z</time>
      </trkpt>
      <trkpt lat="45.33123" lon="3.31981">
        <ele>464.4</ele>
        <time>2025-10-04T12:10:01Z</time>
      </trkpt>
      <trkpt lat="45.33125" lon="3.31983">
        <ele>464.6</ele>
        <time>2025-10-04T12:10:02Z</time>
      </trkpt>
      <trkpt lat="45.33131" lon="3.31992">
        <ele>465.6</ele>
        <time>2025-10-04T12:10:06Z</time>
      </trkpt>
      <trkpt lat="45.33133" lon="3.31995">
        <ele>465.6</ele>
        <time>2025-10-04T12:10:07Z</time>
      </trkpt>
      <trkpt lat="45.3314" lon="3.32012">
        <ele>466.8</ele>
        <time>2025-10-04T12:10:13Z</time>
      </trkpt>
      <trkpt lat="45.33143" lon="3.32022">
        <ele>467.4</ele>
        <time>2025-10-04T12:10:16Z</time>
      </trkpt>
      <trkpt lat="45.33145" lon="3.32032">
        <ele>468</ele>
        <time>2025-10-04T12:10:19Z</time>
      </trkpt>
      <trkpt lat="45.33146" lon="3.32046">
        <ele>468.4</ele>
        <time>2025-10-04T12:10:22Z</time>
      </trkpt>
      <trkpt lat="45.33148" lon="3.3208">
        <ele>468.4</ele>
        <time>2025-10-04T12:10:28Z</time>
      </trkpt>
      <trkpt lat="45.33143" lon="3.321">
        <ele>468.4</ele>
        <time>2025-10-04T12:10:31Z</time>
      </trkpt>
      <trkpt lat="45.33139" lon="3.32116">
        <ele>468.2</ele>
        <time>2025-10-04T12:10:33Z</time>
      </trkpt>
      <trkpt lat="45.33132" lon="3.32141">
        <ele>467.8</ele>
        <time>2025-10-04T12:10:36Z</time>
      </trkpt>
      <trkpt lat="45.33127" lon="3.32159">
        <ele>466.8</ele>
        <time>2025-10-04T12:10:38Z</time>
      </trkpt>
      <trkpt lat="45.33126" lon="3.32168">
        <ele>466.8</ele>
        <time>2025-10-04T12:10:39Z</time>
      </trkpt>
      <trkpt lat="45.33125" lon="3.32177">
        <ele>466.4</ele>
        <time>2025-10-04T12:10:40Z</time>
      </trkpt>
      <trkpt lat="45.33119" lon="3.32193">
        <ele>465.8</ele>
        <time>2025-10-04T12:10:42Z</time>
      </trkpt>
      <trkpt lat="45.33109" lon="3.32209">
        <ele>465.2</ele>
        <time>2025-10-04T12:10:45Z</time>
      </trkpt>
      <trkpt lat="45.33105" lon="3.32214">
        <ele>464.8</ele>
        <time>2025-10-04T12:10:46Z</time>
      </trkpt>
      <trkpt lat="45.33102" lon="3.32219">
        <ele>464.6</ele>
        <time>2025-10-04T12:10:47Z</time>
      </trkpt>
      <trkpt lat="45.33088" lon="3.32238">
        <ele>464</ele>
        <time>2025-10-04T12:10:52Z</time>
      </trkpt>
      <trkpt lat="45.33082" lon="3.32247">
        <ele>464</ele>
        <time>2025-10-04T12:10:54Z</time>
      </trkpt>
      <trkpt lat="45.33079" lon="3.32259">
        <ele>464</ele>
        <time>2025-10-04T12:10:56Z</time>
      </trkpt>
      <trkpt lat="45.33078" lon="3.32265">
        <ele>464</ele>
        <time>2025-10-04T12:10:57Z</time>
      </trkpt>
      <trkpt lat="45.33072" lon="3.32298">
        <ele>464.2</ele>
        <time>2025-10-04T12:11:04Z</time>
      </trkpt>
      <trkpt lat="45.33069" lon="3.32329">
        <ele>464.2</ele>
        <time>2025-10-04T12:11:11Z</time>
      </trkpt>
      <trkpt lat="45.33065" lon="3.32367">
        <ele>465</ele>
        <time>2025-10-04T12:11:21Z</time>
      </trkpt>
      <trkpt lat="45.33065" lon="3.32371">
        <ele>465.2</ele>
        <time>2025-10-04T12:11:22Z</time>
      </trkpt>
      <trkpt lat="45.33063" lon="3.32382">
        <ele>465.6</ele>
        <time>2025-10-04T12:11:25Z</time>
      </trkpt>
      <trkpt lat="45.33061" lon="3.32402">
        <ele>466.2</ele>
        <time>2025-10-04T12:11:31Z</time>
      </trkpt>
      <trkpt lat="45.3306" lon="3.32416">
        <ele>466.6</ele>
        <time>2025-10-04T12:11:36Z</time>
      </trkpt>
      <trkpt lat="45.33059" lon="3.32421">
        <ele>466.6</ele>
        <time>2025-10-04T12:11:38Z</time>
      </trkpt>
      <trkpt lat="45.33056" lon="3.32436">
        <ele>467.2</ele>
        <time>2025-10-04T12:11:44Z</time>
      </trkpt>
      <trkpt lat="45.33056" lon="3.32438">
        <ele>467.2</ele>
        <time>2025-10-04T12:11:45Z</time>
      </trkpt>
      <trkpt lat="45.33055" lon="3.3245">
        <ele>467.6</ele>
        <time>2025-10-04T12:11:50Z</time>
      </trkpt>
      <trkpt lat="45.33055" lon="3.32455">
        <ele>467.8</ele>
        <time>2025-10-04T12:11:52Z</time>
      </trkpt>
      <trkpt lat="45.33052" lon="3.32473">
        <ele>468.6</ele>
        <time>2025-10-04T12:12:00Z</time>
      </trkpt>
      <trkpt lat="45.33052" lon="3.32475">
        <ele>468.8</ele>
        <time>2025-10-04T12:12:01Z</time>
      </trkpt>
      <trkpt lat="45.33049" lon="3.32491">
        <ele>469.8</ele>
        <time>2025-10-04T12:12:09Z</time>
      </trkpt>
      <trkpt lat="45.33046" lon="3.32507">
        <ele>471</ele>
        <time>2025-10-04T12:12:16Z</time>
      </trkpt>
      <trkpt lat="45.33044" lon="3.32512">
        <ele>471.4</ele>
        <time>2025-10-04T12:12:19Z</time>
      </trkpt>
      <trkpt lat="45.33043" lon="3.32516">
        <ele>471.6</ele>
        <time>2025-10-04T12:12:21Z</time>
      </trkpt>
      <trkpt lat="45.33041" lon="3.3252">
        <ele>472</ele>
        <time>2025-10-04T12:12:24Z</time>
      </trkpt>
      <trkpt lat="45.3304" lon="3.32523">
        <ele>472.4</ele>
        <time>2025-10-04T12:12:26Z</time>
      </trkpt>
      <trkpt lat="45.33037" lon="3.32525">
        <ele>473</ele>
        <time>2025-10-04T12:12:29Z</time>
      </trkpt>
      <trkpt lat="45.33036" lon="3.32525">
        <ele>473.2</ele>
        <time>2025-10-04T12:12:30Z</time>
      </trkpt>
      <trkpt lat="45.33033" lon="3.32529">
        <ele>473.6</ele>
        <time>2025-10-04T12:12:33Z</time>
      </trkpt>
      <trkpt lat="45.33031" lon="3.32532">
        <ele>474.2</ele>
        <time>2025-10-04T12:12:36Z</time>
      </trkpt>
      <trkpt lat="45.33027" lon="3.32536">
        <ele>475</ele>
        <time>2025-10-04T12:12:40Z</time>
      </trkpt>
      <trkpt lat="45.33027" lon="3.32538">
        <ele>475.4</ele>
        <time>2025-10-04T12:12:41Z</time>
      </trkpt>
      <trkpt lat="45.33024" lon="3.32544">
        <ele>476.4</ele>
        <time>2025-10-04T12:12:46Z</time>
      </trkpt>
      <trkpt lat="45.33023" lon="3.32547">
        <ele>477.2</ele>
        <time>2025-10-04T12:12:48Z</time>
      </trkpt>
      <trkpt lat="45.33022" lon="3.32551">
        <ele>477.6</ele>
        <time>2025-10-04T12:12:50Z</time>
      </trkpt>
      <trkpt lat="45.33021" lon="3.32559">
        <ele>478.6</ele>
        <time>2025-10-04T12:12:56Z</time>
      </trkpt>
      <trkpt lat="45.33021" lon="3.32561">
        <ele>478.8</ele>
        <time>2025-10-04T12:12:57Z</time>
      </trkpt>
      <trkpt lat="45.33021" lon="3.32562">
        <ele>479</ele>
        <time>2025-10-04T12:12:58Z</time>
      </trkpt>
      <trkpt lat="45.33019" lon="3.32566">
        <ele>479.8</ele>
        <time>2025-10-04T12:13:01Z</time>
      </trkpt>
      <trkpt lat="45.33018" lon="3.3257">
        <ele>480.4</ele>
        <time>2025-10-04T12:13:04Z</time>
      </trkpt>
      <trkpt lat="45.33017" lon="3.32573">
        <ele>481</ele>
        <time>2025-10-04T12:13:06Z</time>
      </trkpt>
      <trkpt lat="45.33016" lon="3.32577">
        <ele>482</ele>
        <time>2025-10-04T12:13:10Z</time>
      </trkpt>
      <trkpt lat="45.33016" lon="3.32577">
        <ele>482.4</ele>
        <time>2025-10-04T12:13:13Z</time>
      </trkpt>
      <trkpt lat="45.33016" lon="3.32577">
        <ele>482.8</ele>
        <time>2025-10-04T12:13:28Z</time>
      </trkpt>
      <trkpt lat="45.33016" lon="3.32577">
        <ele>482.8</ele>
        <time>2025-10-04T12:13:36Z</time>
      </trkpt>
      <trkpt lat="45.33015" lon="3.32582">
        <ele>483</ele>
        <time>2025-10-04T12:13:42Z</time>
      </trkpt>
      <trkpt lat="45.33015" lon="3.32583">
        <ele>483</ele>
        <time>2025-10-04T12:13:43Z</time>
      </trkpt>
      <trkpt lat="45.33015" lon="3.32583">
        <ele>483</ele>
        <time>2025-10-04T12:13:44Z</time>
      </trkpt>
      <trkpt lat="45.33014" lon="3.3259">
        <ele>484.2</ele>
        <time>2025-10-04T12:13:50Z</time>
      </trkpt>
      <trkpt lat="45.33013" lon="3.32594">
        <ele>485</ele>
        <time>2025-10-04T12:13:54Z</time>
      </trkpt>
      <trkpt lat="45.33013" lon="3.32597">
        <ele>485.2</ele>
        <time>2025-10-04T12:13:56Z</time>
      </trkpt>
      <trkpt lat="45.33012" lon="3.32602">
        <ele>486.4</ele>
        <time>2025-10-04T12:14:01Z</time>
      </trkpt>
      <trkpt lat="45.33012" lon="3.32607">
        <ele>487.2</ele>
        <time>2025-10-04T12:14:05Z</time>
      </trkpt>
      <trkpt lat="45.33011" lon="3.3261">
        <ele>487.6</ele>
        <time>2025-10-04T12:14:08Z</time>
      </trkpt>
      <trkpt lat="45.33009" lon="3.32616">
        <ele>488.8</ele>
        <time>2025-10-04T12:14:14Z</time>
      </trkpt>
      <trkpt lat="45.33009" lon="3.32616">
        <ele>489.2</ele>
        <time>2025-10-04T12:14:16Z</time>
      </trkpt>
      <trkpt lat="45.33009" lon="3.32616">
        <ele>489.2</ele>
        <time>2025-10-04T12:14:17Z</time>
      </trkpt>
      <trkpt lat="45.33009" lon="3.32616">
        <ele>489.8</ele>
        <time>2025-10-04T12:14:22Z</time>
      </trkpt>
      <trkpt lat="45.33008" lon="3.32623">
        <ele>490.4</ele>
        <time>2025-10-04T12:14:29Z</time>
      </trkpt>
      <trkpt lat="45.33008" lon="3.32626">
        <ele>491</ele>
        <time>2025-10-04T12:14:32Z</time>
      </trkpt>
      <trkpt lat="45.33007" lon="3.32633">
        <ele>492</ele>
        <time>2025-10-04T12:14:38Z</time>
      </trkpt>
      <trkpt lat="45.33007" lon="3.32634">
        <ele>492.4</ele>
        <time>2025-10-04T12:14:39Z</time>
      </trkpt>
      <trkpt lat="45.33007" lon="3.3264">
        <ele>493.6</ele>
        <time>2025-10-04T12:14:43Z</time>
      </trkpt>
      <trkpt lat="45.33007" lon="3.32643">
        <ele>494.4</ele>
        <time>2025-10-04T12:14:47Z</time>
      </trkpt>
      <trkpt lat="45.33007" lon="3.32644">
        <ele>494.6</ele>
        <time>2025-10-04T12:14:48Z</time>
      </trkpt>
      <trkpt lat="45.33007" lon="3.32644">
        <ele>495.6</ele>
        <time>2025-10-04T12:14:55Z</time>
      </trkpt>
      <trkpt lat="45.33007" lon="3.32644">
        <ele>495.6</ele>
        <time>2025-10-04T12:15:04Z</time>
      </trkpt>
      <trkpt lat="45.3301" lon="3.32647">
        <ele>495.6</ele>
        <time>2025-10-04T12:15:10Z</time>
      </trkpt>
      <trkpt lat="45.33011" lon="3.32649">
        <ele>495.6</ele>
        <time>2025-10-04T12:15:11Z</time>
      </trkpt>
      <trkpt lat="45.33011" lon="3.32651">
        <ele>495.6</ele>
        <time>2025-10-04T12:15:12Z</time>
      </trkpt>
      <trkpt lat="45.33008" lon="3.32653">
        <ele>495.8</ele>
        <time>2025-10-04T12:15:14Z</time>
      </trkpt>
      <trkpt lat="45.33006" lon="3.32654">
        <ele>495.8</ele>
        <time>2025-10-04T12:15:15Z</time>
      </trkpt>
      <trkpt lat="45.32994" lon="3.32658">
        <ele>496.6</ele>
        <time>2025-10-04T12:15:20Z</time>
      </trkpt>
      <trkpt lat="45.32987" lon="3.32661">
        <ele>496.8</ele>
        <time>2025-10-04T12:15:23Z</time>
      </trkpt>
      <trkpt lat="45.32984" lon="3.32662">
        <ele>497</ele>
        <time>2025-10-04T12:15:24Z</time>
      </trkpt>
      <trkpt lat="45.32982" lon="3.32663">
        <ele>497</ele>
        <time>2025-10-04T12:15:25Z</time>
      </trkpt>
      <trkpt lat="45.32975" lon="3.32666">
        <ele>497</ele>
        <time>2025-10-04T12:15:28Z</time>
      </trkpt>
      <trkpt lat="45.3296" lon="3.32674">
        <ele>497.2</ele>
        <time>2025-10-04T12:15:33Z</time>
      </trkpt>
      <trkpt lat="45.32938" lon="3.32686">
        <ele>497.4</ele>
        <time>2025-10-04T12:15:39Z</time>
      </trkpt>
      <trkpt lat="45.32922" lon="3.32695">
        <ele>496.8</ele>
        <time>2025-10-04T12:15:43Z</time>
      </trkpt>
      <trkpt lat="45.32907" lon="3.32705">
        <ele>496.2</ele>
        <time>2025-10-04T12:15:47Z</time>
      </trkpt>
      <trkpt lat="45.32895" lon="3.32714">
        <ele>496</ele>
        <time>2025-10-04T12:15:50Z</time>
      </trkpt>
      <trkpt lat="45.32879" lon="3.32726">
        <ele>495.6</ele>
        <time>2025-10-04T12:15:54Z</time>
      </trkpt>
      <trkpt lat="45.32855" lon="3.3274">
        <ele>494.8</ele>
        <time>2025-10-04T12:15:59Z</time>
      </trkpt>
      <trkpt lat="45.32845" lon="3.32744">
        <ele>494.6</ele>
        <time>2025-10-04T12:16:01Z</time>
      </trkpt>
      <trkpt lat="45.32829" lon="3.32749">
        <ele>494.4</ele>
        <time>2025-10-04T12:16:04Z</time>
      </trkpt>
      <trkpt lat="45.32809" lon="3.32758">
        <ele>494</ele>
        <time>2025-10-04T12:16:08Z</time>
      </trkpt>
      <trkpt lat="45.32803" lon="3.3276">
        <ele>493.8</ele>
        <time>2025-10-04T12:16:09Z</time>
      </trkpt>
      <trkpt lat="45.32793" lon="3.32766">
        <ele>493.4</ele>
        <time>2025-10-04T12:16:11Z</time>
      </trkpt>
      <trkpt lat="45.32779" lon="3.32776">
        <ele>492.2</ele>
        <time>2025-10-04T12:16:14Z</time>
      </trkpt>
      <trkpt lat="45.3276" lon="3.32788">
        <ele>491</ele>
        <time>2025-10-04T12:16:18Z</time>
      </trkpt>
      <trkpt lat="45.32745" lon="3.32798">
        <ele>490.2</ele>
        <time>2025-10-04T12:16:21Z</time>
      </trkpt>
      <trkpt lat="45.32736" lon="3.32805">
        <ele>489.8</ele>
        <time>2025-10-04T12:16:23Z</time>
      </trkpt>
      <trkpt lat="45.32706" lon="3.32826">
        <ele>489.2</ele>
        <time>2025-10-04T12:16:29Z</time>
      </trkpt>
      <trkpt lat="45.32682" lon="3.32848">
        <ele>488.6</ele>
        <time>2025-10-04T12:16:34Z</time>
      </trkpt>
      <trkpt lat="45.32678" lon="3.32853">
        <ele>488.6</ele>
        <time>2025-10-04T12:16:35Z</time>
      </trkpt>
      <trkpt lat="45.32648" lon="3.32877">
        <ele>488</ele>
        <time>2025-10-04T12:16:41Z</time>
      </trkpt>
      <trkpt lat="45.32633" lon="3.32888">
        <ele>487.4</ele>
        <time>2025-10-04T12:16:44Z</time>
      </trkpt>
      <trkpt lat="45.32618" lon="3.32899">
        <ele>486.4</ele>
        <time>2025-10-04T12:16:47Z</time>
      </trkpt>
      <trkpt lat="45.32613" lon="3.32903">
        <ele>485.8</ele>
        <time>2025-10-04T12:16:48Z</time>
      </trkpt>
      <trkpt lat="45.32593" lon="3.32923">
        <ele>485.2</ele>
        <time>2025-10-04T12:16:52Z</time>
      </trkpt>
      <trkpt lat="45.32583" lon="3.32936">
        <ele>484.8</ele>
        <time>2025-10-04T12:16:54Z</time>
      </trkpt>
      <trkpt lat="45.32578" lon="3.32943">
        <ele>484.6</ele>
        <time>2025-10-04T12:16:55Z</time>
      </trkpt>
      <trkpt lat="45.32568" lon="3.32956">
        <ele>484</ele>
        <time>2025-10-04T12:16:57Z</time>
      </trkpt>
      <trkpt lat="45.32563" lon="3.32962">
        <ele>482.8</ele>
        <time>2025-10-04T12:16:58Z</time>
      </trkpt>
      <trkpt lat="45.32548" lon="3.32966">
        <ele>481.8</ele>
        <time>2025-10-04T12:17:00Z</time>
      </trkpt>
      <trkpt lat="45.32532" lon="3.32962">
        <ele>481</ele>
        <time>2025-10-04T12:17:02Z</time>
      </trkpt>
      <trkpt lat="45.32525" lon="3.32958">
        <ele>480.6</ele>
        <time>2025-10-04T12:17:03Z</time>
      </trkpt>
      <trkpt lat="45.32517" lon="3.32954">
        <ele>480.2</ele>
        <time>2025-10-04T12:17:04Z</time>
      </trkpt>
      <trkpt lat="45.3251" lon="3.32951">
        <ele>479.6</ele>
        <time>2025-10-04T12:17:05Z</time>
      </trkpt>
      <trkpt lat="45.32502" lon="3.32949">
        <ele>479</ele>
        <time>2025-10-04T12:17:06Z</time>
      </trkpt>
      <trkpt lat="45.32495" lon="3.32949">
        <ele>478.2</ele>
        <time>2025-10-04T12:17:07Z</time>
      </trkpt>
      <trkpt lat="45.32488" lon="3.32951">
        <ele>477.8</ele>
        <time>2025-10-04T12:17:08Z</time>
      </trkpt>
      <trkpt lat="45.32481" lon="3.32954">
        <ele>477</ele>
        <time>2025-10-04T12:17:09Z</time>
      </trkpt>
      <trkpt lat="45.32469" lon="3.32959">
        <ele>475.8</ele>
        <time>2025-10-04T12:17:11Z</time>
      </trkpt>
      <trkpt lat="45.32458" lon="3.32965">
        <ele>475</ele>
        <time>2025-10-04T12:17:13Z</time>
      </trkpt>
      <trkpt lat="45.32453" lon="3.32968">
        <ele>474.8</ele>
        <time>2025-10-04T12:17:14Z</time>
      </trkpt>
      <trkpt lat="45.32448" lon="3.32973">
        <ele>474.8</ele>
        <time>2025-10-04T12:17:15Z</time>
      </trkpt>
      <trkpt lat="45.32444" lon="3.32979">
        <ele>474.6</ele>
        <time>2025-10-04T12:17:16Z</time>
      </trkpt>
      <trkpt lat="45.32443" lon="3.32986">
        <ele>474.6</ele>
        <time>2025-10-04T12:17:17Z</time>
      </trkpt>
      <trkpt lat="45.32451" lon="3.33005">
        <ele>474.4</ele>
        <time>2025-10-04T12:17:20Z</time>
      </trkpt>
      <trkpt lat="45.32469" lon="3.33052">
        <ele>474</ele>
        <time>2025-10-04T12:17:26Z</time>
      </trkpt>
      <trkpt lat="45.32475" lon="3.33068">
        <ele>473.6</ele>
        <time>2025-10-04T12:17:28Z</time>
      </trkpt>
      <trkpt lat="45.32488" lon="3.33102">
        <ele>473.2</ele>
        <time>2025-10-04T12:17:32Z</time>
      </trkpt>
      <trkpt lat="45.32492" lon="3.3311">
        <ele>473</ele>
        <time>2025-10-04T12:17:33Z</time>
      </trkpt>
      <trkpt lat="45.32494" lon="3.33119">
        <ele>472.8</ele>
        <time>2025-10-04T12:17:34Z</time>
      </trkpt>
      <trkpt lat="45.32492" lon="3.33128">
        <ele>472.6</ele>
        <time>2025-10-04T12:17:35Z</time>
      </trkpt>
      <trkpt lat="45.32488" lon="3.33134">
        <ele>472.2</ele>
        <time>2025-10-04T12:17:36Z</time>
      </trkpt>
      <trkpt lat="45.32481" lon="3.33138">
        <ele>472.2</ele>
        <time>2025-10-04T12:17:37Z</time>
      </trkpt>
      <trkpt lat="45.32474" lon="3.33141">
        <ele>472</ele>
        <time>2025-10-04T12:17:38Z</time>
      </trkpt>
      <trkpt lat="45.32461" lon="3.33147">
        <ele>471.6</ele>
        <time>2025-10-04T12:17:40Z</time>
      </trkpt>
      <trkpt lat="45.32449" lon="3.33154">
        <ele>470.8</ele>
        <time>2025-10-04T12:17:42Z</time>
      </trkpt>
      <trkpt lat="45.32442" lon="3.33158">
        <ele>470.4</ele>
        <time>2025-10-04T12:17:43Z</time>
      </trkpt>
      <trkpt lat="45.32411" lon="3.33176">
        <ele>469.2</ele>
        <time>2025-10-04T12:17:48Z</time>
      </trkpt>
      <trkpt lat="45.32394" lon="3.33188">
        <ele>468.6</ele>
        <time>2025-10-04T12:17:51Z</time>
      </trkpt>
      <trkpt lat="45.32364" lon="3.33207">
        <ele>468.4</ele>
        <time>2025-10-04T12:17:56Z</time>
      </trkpt>
      <trkpt lat="45.32342" lon="3.3322">
        <ele>468.6</ele>
        <time>2025-10-04T12:18:00Z</time>
      </trkpt>
      <trkpt lat="45.3232" lon="3.33233">
        <ele>469</ele>
        <time>2025-10-04T12:18:04Z</time>
      </trkpt>
      <trkpt lat="45.32303" lon="3.33242">
        <ele>469.2</ele>
        <time>2025-10-04T12:18:07Z</time>
      </trkpt>
      <trkpt lat="45.32257" lon="3.33267">
        <ele>469.6</ele>
        <time>2025-10-04T12:18:15Z</time>
      </trkpt>
      <trkpt lat="45.32252" lon="3.3327">
        <ele>469.4</ele>
        <time>2025-10-04T12:18:16Z</time>
      </trkpt>
      <trkpt lat="45.32217" lon="3.33296">
        <ele>469.4</ele>
        <time>2025-10-04T12:18:23Z</time>
      </trkpt>
      <trkpt lat="45.32212" lon="3.333">
        <ele>469.4</ele>
        <time>2025-10-04T12:18:24Z</time>
      </trkpt>
      <trkpt lat="45.3219" lon="3.3333">
        <ele>469.6</ele>
        <time>2025-10-04T12:18:29Z</time>
      </trkpt>
      <trkpt lat="45.32158" lon="3.33375">
        <ele>468.8</ele>
        <time>2025-10-04T12:18:36Z</time>
      </trkpt>
      <trkpt lat="45.32141" lon="3.33391">
        <ele>468</ele>
        <time>2025-10-04T12:18:39Z</time>
      </trkpt>
      <trkpt lat="45.32122" lon="3.33406">
        <ele>467</ele>
        <time>2025-10-04T12:18:42Z</time>
      </trkpt>
      <trkpt lat="45.32116" lon="3.33411">
        <ele>466.8</ele>
        <time>2025-10-04T12:18:43Z</time>
      </trkpt>
      <trkpt lat="45.32095" lon="3.33424">
        <ele>466.2</ele>
        <time>2025-10-04T12:18:47Z</time>
      </trkpt>
      <trkpt lat="45.32089" lon="3.33427">
        <ele>466</ele>
        <time>2025-10-04T12:18:50Z</time>
      </trkpt>
      <trkpt lat="45.32084" lon="3.33427">
        <ele>465.8</ele>
        <time>2025-10-04T12:18:52Z</time>
      </trkpt>
      <trkpt lat="45.32077" lon="3.3343">
        <ele>465.6</ele>
        <time>2025-10-04T12:18:54Z</time>
      </trkpt>
      <trkpt lat="45.32073" lon="3.33433">
        <ele>465.8</ele>
        <time>2025-10-04T12:18:55Z</time>
      </trkpt>
      <trkpt lat="45.32059" lon="3.33443">
        <ele>465.4</ele>
        <time>2025-10-04T12:18:58Z</time>
      </trkpt>
      <trkpt lat="45.32039" lon="3.33455">
        <ele>464.8</ele>
        <time>2025-10-04T12:19:02Z</time>
      </trkpt>
      <trkpt lat="45.32022" lon="3.33463">
        <ele>464.6</ele>
        <time>2025-10-04T12:19:05Z</time>
      </trkpt>
      <trkpt lat="45.31975" lon="3.33495">
        <ele>464.4</ele>
        <time>2025-10-04T12:19:14Z</time>
      </trkpt>
      <trkpt lat="45.3193" lon="3.33527">
        <ele>464.2</ele>
        <time>2025-10-04T12:19:23Z</time>
      </trkpt>
      <trkpt lat="45.31906" lon="3.33544">
        <ele>464.2</ele>
        <time>2025-10-04T12:19:28Z</time>
      </trkpt>
      <trkpt lat="45.31897" lon="3.33552">
        <ele>464.4</ele>
        <time>2025-10-04T12:19:30Z</time>
      </trkpt>
      <trkpt lat="45.31892" lon="3.33557">
        <ele>464.4</ele>
        <time>2025-10-04T12:19:31Z</time>
      </trkpt>
      <trkpt lat="45.31888" lon="3.33561">
        <ele>464.4</ele>
        <time>2025-10-04T12:19:32Z</time>
      </trkpt>
      <trkpt lat="45.3187" lon="3.3359">
        <ele>464.6</ele>
        <time>2025-10-04T12:19:37Z</time>
      </trkpt>
      <trkpt lat="45.31851" lon="3.33623">
        <ele>464.2</ele>
        <time>2025-10-04T12:19:42Z</time>
      </trkpt>
      <trkpt lat="45.31846" lon="3.3363">
        <ele>464</ele>
        <time>2025-10-04T12:19:43Z</time>
      </trkpt>
      <trkpt lat="45.3183" lon="3.3365">
        <ele>463.8</ele>
        <time>2025-10-04T12:19:46Z</time>
      </trkpt>
      <trkpt lat="45.31825" lon="3.33657">
        <ele>463.4</ele>
        <time>2025-10-04T12:19:47Z</time>
      </trkpt>
      <trkpt lat="45.31822" lon="3.33675">
        <ele>462.8</ele>
        <time>2025-10-04T12:19:49Z</time>
      </trkpt>
      <trkpt lat="45.31825" lon="3.33684">
        <ele>462.4</ele>
        <time>2025-10-04T12:19:50Z</time>
      </trkpt>
      <trkpt lat="45.31838" lon="3.33713">
        <ele>461.4</ele>
        <time>2025-10-04T12:19:53Z</time>
      </trkpt>
      <trkpt lat="45.31844" lon="3.33735">
        <ele>460.2</ele>
        <time>2025-10-04T12:19:55Z</time>
      </trkpt>
      <trkpt lat="45.3185" lon="3.33758">
        <ele>459.2</ele>
        <time>2025-10-04T12:19:57Z</time>
      </trkpt>
      <trkpt lat="45.31859" lon="3.33795">
        <ele>458</ele>
        <time>2025-10-04T12:20:00Z</time>
      </trkpt>
      <trkpt lat="45.31861" lon="3.33807">
        <ele>457.8</ele>
        <time>2025-10-04T12:20:01Z</time>
      </trkpt>
      <trkpt lat="45.31867" lon="3.33833">
        <ele>456.8</ele>
        <time>2025-10-04T12:20:03Z</time>
      </trkpt>
      <trkpt lat="45.31873" lon="3.33857">
        <ele>455.6</ele>
        <time>2025-10-04T12:20:05Z</time>
      </trkpt>
      <trkpt lat="45.31881" lon="3.33883">
        <ele>455</ele>
        <time>2025-10-04T12:20:07Z</time>
      </trkpt>
      <trkpt lat="45.31884" lon="3.33894">
        <ele>454.6</ele>
        <time>2025-10-04T12:20:08Z</time>
      </trkpt>
      <trkpt lat="45.31886" lon="3.33904">
        <ele>453.6</ele>
        <time>2025-10-04T12:20:09Z</time>
      </trkpt>
      <trkpt lat="45.3189" lon="3.33921">
        <ele>452</ele>
        <time>2025-10-04T12:20:11Z</time>
      </trkpt>
      <trkpt lat="45.31893" lon="3.33936">
        <ele>451</ele>
        <time>2025-10-04T12:20:13Z</time>
      </trkpt>
      <trkpt lat="45.31897" lon="3.33955">
        <ele>449.4</ele>
        <time>2025-10-04T12:20:16Z</time>
      </trkpt>
      <trkpt lat="45.31898" lon="3.3396">
        <ele>449.2</ele>
        <time>2025-10-04T12:20:17Z</time>
      </trkpt>
      <trkpt lat="45.31901" lon="3.33982">
        <ele>448.4</ele>
        <time>2025-10-04T12:20:20Z</time>
      </trkpt>
      <trkpt lat="45.31903" lon="3.33991">
        <ele>448.2</ele>
        <time>2025-10-04T12:20:21Z</time>
      </trkpt>
      <trkpt lat="45.31908" lon="3.34028">
        <ele>447.2</ele>
        <time>2025-10-04T12:20:25Z</time>
      </trkpt>
      <trkpt lat="45.31912" lon="3.34058">
        <ele>446.6</ele>
        <time>2025-10-04T12:20:28Z</time>
      </trkpt>
      <trkpt lat="45.31915" lon="3.34078">
        <ele>446.2</ele>
        <time>2025-10-04T12:20:30Z</time>
      </trkpt>
      <trkpt lat="45.31923" lon="3.34119">
        <ele>444.8</ele>
        <time>2025-10-04T12:20:34Z</time>
      </trkpt>
      <trkpt lat="45.31925" lon="3.34183">
        <ele>444</ele>
        <time>2025-10-04T12:20:40Z</time>
      </trkpt>
      <trkpt lat="45.31924" lon="3.34205">
        <ele>443.4</ele>
        <time>2025-10-04T12:20:42Z</time>
      </trkpt>
      <trkpt lat="45.31926" lon="3.34238">
        <ele>442.6</ele>
        <time>2025-10-04T12:20:45Z</time>
      </trkpt>
      <trkpt lat="45.31928" lon="3.34249">
        <ele>442.4</ele>
        <time>2025-10-04T12:20:46Z</time>
      </trkpt>
      <trkpt lat="45.31942" lon="3.343">
        <ele>441.4</ele>
        <time>2025-10-04T12:20:51Z</time>
      </trkpt>
      <trkpt lat="45.31947" lon="3.3432">
        <ele>440.8</ele>
        <time>2025-10-04T12:20:53Z</time>
      </trkpt>
      <trkpt lat="45.31956" lon="3.3435">
        <ele>440</ele>
        <time>2025-10-04T12:20:56Z</time>
      </trkpt>
      <trkpt lat="45.31959" lon="3.34359">
        <ele>439.8</ele>
        <time>2025-10-04T12:20:57Z</time>
      </trkpt>
      <trkpt lat="45.31968" lon="3.34387">
        <ele>439</ele>
        <time>2025-10-04T12:21:00Z</time>
      </trkpt>
      <trkpt lat="45.31984" lon="3.34422">
        <ele>438.6</ele>
        <time>2025-10-04T12:21:04Z</time>
      </trkpt>
      <trkpt lat="45.31999" lon="3.34446">
        <ele>438.4</ele>
        <time>2025-10-04T12:21:07Z</time>
      </trkpt>
      <trkpt lat="45.32011" lon="3.34458">
        <ele>438.2</ele>
        <time>2025-10-04T12:21:09Z</time>
      </trkpt>
      <trkpt lat="45.3203" lon="3.34472">
        <ele>437.8</ele>
        <time>2025-10-04T12:21:12Z</time>
      </trkpt>
      <trkpt lat="45.32041" lon="3.34481">
        <ele>437.8</ele>
        <time>2025-10-04T12:21:14Z</time>
      </trkpt>
      <trkpt lat="45.32064" lon="3.34505">
        <ele>438</ele>
        <time>2025-10-04T12:21:19Z</time>
      </trkpt>
      <trkpt lat="45.32073" lon="3.34517">
        <ele>439</ele>
        <time>2025-10-04T12:21:22Z</time>
      </trkpt>
      <trkpt lat="45.3208" lon="3.34523">
        <ele>439.2</ele>
        <time>2025-10-04T12:21:24Z</time>
      </trkpt>
      <trkpt lat="45.32099" lon="3.34549">
        <ele>440</ele>
        <time>2025-10-04T12:21:29Z</time>
      </trkpt>
      <trkpt lat="45.32115" lon="3.34564">
        <ele>440</ele>
        <time>2025-10-04T12:21:32Z</time>
      </trkpt>
      <trkpt lat="45.32122" lon="3.34569">
        <ele>440</ele>
        <time>2025-10-04T12:21:33Z</time>
      </trkpt>
      <trkpt lat="45.32128" lon="3.34572">
        <ele>439.8</ele>
        <time>2025-10-04T12:21:34Z</time>
      </trkpt>
      <trkpt lat="45.32135" lon="3.34576">
        <ele>439.8</ele>
        <time>2025-10-04T12:21:35Z</time>
      </trkpt>
      <trkpt lat="45.32148" lon="3.34579">
        <ele>439.4</ele>
        <time>2025-10-04T12:21:37Z</time>
      </trkpt>
      <trkpt lat="45.32155" lon="3.34579">
        <ele>439.2</ele>
        <time>2025-10-04T12:21:38Z</time>
      </trkpt>
      <trkpt lat="45.32162" lon="3.34578">
        <ele>439</ele>
        <time>2025-10-04T12:21:39Z</time>
      </trkpt>
      <trkpt lat="45.32201" lon="3.34572">
        <ele>438.2</ele>
        <time>2025-10-04T12:21:45Z</time>
      </trkpt>
      <trkpt lat="45.32207" lon="3.34572">
        <ele>438.2</ele>
        <time>2025-10-04T12:21:46Z</time>
      </trkpt>
      <trkpt lat="45.32234" lon="3.34579">
        <ele>438</ele>
        <time>2025-10-04T12:21:50Z</time>
      </trkpt>
      <trkpt lat="45.32268" lon="3.34599">
        <ele>437.8</ele>
        <time>2025-10-04T12:21:55Z</time>
      </trkpt>
      <trkpt lat="45.32274" lon="3.34604">
        <ele>437.6</ele>
        <time>2025-10-04T12:21:56Z</time>
      </trkpt>
      <trkpt lat="45.32299" lon="3.34625">
        <ele>436.8</ele>
        <time>2025-10-04T12:22:00Z</time>
      </trkpt>
      <trkpt lat="45.32324" lon="3.34645">
        <ele>436</ele>
        <time>2025-10-04T12:22:04Z</time>
      </trkpt>
      <trkpt lat="45.32331" lon="3.3465">
        <ele>435.6</ele>
        <time>2025-10-04T12:22:05Z</time>
      </trkpt>
      <trkpt lat="45.32349" lon="3.34669">
        <ele>435</ele>
        <time>2025-10-04T12:22:08Z</time>
      </trkpt>
      <trkpt lat="45.32361" lon="3.34683">
        <ele>434.4</ele>
        <time>2025-10-04T12:22:10Z</time>
      </trkpt>
      <trkpt lat="45.32392" lon="3.34721">
        <ele>433.4</ele>
        <time>2025-10-04T12:22:15Z</time>
      </trkpt>
      <trkpt lat="45.32398" lon="3.34729">
        <ele>433</ele>
        <time>2025-10-04T12:22:16Z</time>
      </trkpt>
      <trkpt lat="45.32405" lon="3.34736">
        <ele>432.8</ele>
        <time>2025-10-04T12:22:17Z</time>
      </trkpt>
      <trkpt lat="45.32418" lon="3.34752">
        <ele>432</ele>
        <time>2025-10-04T12:22:19Z</time>
      </trkpt>
      <trkpt lat="45.32439" lon="3.34773">
        <ele>430.6</ele>
        <time>2025-10-04T12:22:22Z</time>
      </trkpt>
      <trkpt lat="45.32459" lon="3.34794">
        <ele>429.4</ele>
        <time>2025-10-04T12:22:25Z</time>
      </trkpt>
      <trkpt lat="45.32489" lon="3.34826">
        <ele>428.8</ele>
        <time>2025-10-04T12:22:30Z</time>
      </trkpt>
      <trkpt lat="45.32495" lon="3.34832">
        <ele>428.8</ele>
        <time>2025-10-04T12:22:31Z</time>
      </trkpt>
      <trkpt lat="45.32534" lon="3.34875">
        <ele>428.4</ele>
        <time>2025-10-04T12:22:38Z</time>
      </trkpt>
      <trkpt lat="45.32551" lon="3.34892">
        <ele>428.2</ele>
        <time>2025-10-04T12:22:41Z</time>
      </trkpt>
      <trkpt lat="45.32573" lon="3.34915">
        <ele>428</ele>
        <time>2025-10-04T12:22:45Z</time>
      </trkpt>
      <trkpt lat="45.32601" lon="3.34945">
        <ele>427.8</ele>
        <time>2025-10-04T12:22:50Z</time>
      </trkpt>
      <trkpt lat="45.32636" lon="3.34982">
        <ele>427.4</ele>
        <time>2025-10-04T12:22:56Z</time>
      </trkpt>
      <trkpt lat="45.32643" lon="3.34987">
        <ele>427.2</ele>
        <time>2025-10-04T12:22:57Z</time>
      </trkpt>
      <trkpt lat="45.32656" lon="3.34993">
        <ele>427</ele>
        <time>2025-10-04T12:22:59Z</time>
      </trkpt>
      <trkpt lat="45.32663" lon="3.34993">
        <ele>427</ele>
        <time>2025-10-04T12:23:00Z</time>
      </trkpt>
      <trkpt lat="45.32669" lon="3.34992">
        <ele>427</ele>
        <time>2025-10-04T12:23:01Z</time>
      </trkpt>
      <trkpt lat="45.32681" lon="3.34988">
        <ele>427</ele>
        <time>2025-10-04T12:23:03Z</time>
      </trkpt>
      <trkpt lat="45.32694" lon="3.34983">
        <ele>426.8</ele>
        <time>2025-10-04T12:23:05Z</time>
      </trkpt>
      <trkpt lat="45.32715" lon="3.34969">
        <ele>426.2</ele>
        <time>2025-10-04T12:23:09Z</time>
      </trkpt>
      <trkpt lat="45.32731" lon="3.3496">
        <ele>425.4</ele>
        <time>2025-10-04T12:23:12Z</time>
      </trkpt>
      <trkpt lat="45.32766" lon="3.34941">
        <ele>425.8</ele>
        <time>2025-10-04T12:23:18Z</time>
      </trkpt>
      <trkpt lat="45.32777" lon="3.34935">
        <ele>425.8</ele>
        <time>2025-10-04T12:23:20Z</time>
      </trkpt>
      <trkpt lat="45.32817" lon="3.34914">
        <ele>425.8</ele>
        <time>2025-10-04T12:23:27Z</time>
      </trkpt>
      <trkpt lat="45.32867" lon="3.34888">
        <ele>425.6</ele>
        <time>2025-10-04T12:23:36Z</time>
      </trkpt>
      <trkpt lat="45.32883" lon="3.3488">
        <ele>425.6</ele>
        <time>2025-10-04T12:23:39Z</time>
      </trkpt>
      <trkpt lat="45.32889" lon="3.34881">
        <ele>425.4</ele>
        <time>2025-10-04T12:23:40Z</time>
      </trkpt>
      <trkpt lat="45.32893" lon="3.34885">
        <ele>425.4</ele>
        <time>2025-10-04T12:23:41Z</time>
      </trkpt>
      <trkpt lat="45.32896" lon="3.34892">
        <ele>425.4</ele>
        <time>2025-10-04T12:23:42Z</time>
      </trkpt>
      <trkpt lat="45.32914" lon="3.34938">
        <ele>425.2</ele>
        <time>2025-10-04T12:23:48Z</time>
      </trkpt>
      <trkpt lat="45.32936" lon="3.34986">
        <ele>425.2</ele>
        <time>2025-10-04T12:23:54Z</time>
      </trkpt>
      <trkpt lat="45.32939" lon="3.34995">
        <ele>425.2</ele>
        <time>2025-10-04T12:23:55Z</time>
      </trkpt>
      <trkpt lat="45.32942" lon="3.35014">
        <ele>425.2</ele>
        <time>2025-10-04T12:23:57Z</time>
      </trkpt>
      <trkpt lat="45.32942" lon="3.35032">
        <ele>425.6</ele>
        <time>2025-10-04T12:23:59Z</time>
      </trkpt>
      <trkpt lat="45.32942" lon="3.35042">
        <ele>425.6</ele>
        <time>2025-10-04T12:24:00Z</time>
      </trkpt>
      <trkpt lat="45.32941" lon="3.35077">
        <ele>425.8</ele>
        <time>2025-10-04T12:24:04Z</time>
      </trkpt>
      <trkpt lat="45.32943" lon="3.35094">
        <ele>425.8</ele>
        <time>2025-10-04T12:24:06Z</time>
      </trkpt>
      <trkpt lat="45.32948" lon="3.35111">
        <ele>425.8</ele>
        <time>2025-10-04T12:24:08Z</time>
      </trkpt>
      <trkpt lat="45.32956" lon="3.35124">
        <ele>425.8</ele>
        <time>2025-10-04T12:24:10Z</time>
      </trkpt>
      <trkpt lat="45.32961" lon="3.3513">
        <ele>425.6</ele>
        <time>2025-10-04T12:24:11Z</time>
      </trkpt>
      <trkpt lat="45.32971" lon="3.3514">
        <ele>425.2</ele>
        <time>2025-10-04T12:24:13Z</time>
      </trkpt>
      <trkpt lat="45.32998" lon="3.35167">
        <ele>424.8</ele>
        <time>2025-10-04T12:24:18Z</time>
      </trkpt>
      <trkpt lat="45.33002" lon="3.35174">
        <ele>424.8</ele>
        <time>2025-10-04T12:24:19Z</time>
      </trkpt>
      <trkpt lat="45.33008" lon="3.3519">
        <ele>424.6</ele>
        <time>2025-10-04T12:24:21Z</time>
      </trkpt>
      <trkpt lat="45.33008" lon="3.35219">
        <ele>424.8</ele>
        <time>2025-10-04T12:24:24Z</time>
      </trkpt>
      <trkpt lat="45.33008" lon="3.35228">
        <ele>425</ele>
        <time>2025-10-04T12:24:25Z</time>
      </trkpt>
      <trkpt lat="45.33011" lon="3.35246">
        <ele>425</ele>
        <time>2025-10-04T12:24:27Z</time>
      </trkpt>
      <trkpt lat="45.33026" lon="3.353">
        <ele>425.2</ele>
        <time>2025-10-04T12:24:33Z</time>
      </trkpt>
      <trkpt lat="45.33032" lon="3.35306">
        <ele>425.2</ele>
        <time>2025-10-04T12:24:34Z</time>
      </trkpt>
      <trkpt lat="45.33042" lon="3.35316">
        <ele>425.2</ele>
        <time>2025-10-04T12:24:36Z</time>
      </trkpt>
      <trkpt lat="45.33047" lon="3.35323">
        <ele>425.2</ele>
        <time>2025-10-04T12:24:37Z</time>
      </trkpt>
      <trkpt lat="45.33049" lon="3.35331">
        <ele>425.2</ele>
        <time>2025-10-04T12:24:38Z</time>
      </trkpt>
      <trkpt lat="45.33055" lon="3.35358">
        <ele>425</ele>
        <time>2025-10-04T12:24:41Z</time>
      </trkpt>
      <trkpt lat="45.33065" lon="3.35428">
        <ele>425.8</ele>
        <time>2025-10-04T12:24:49Z</time>
      </trkpt>
      <trkpt lat="45.33065" lon="3.35446">
        <ele>426</ele>
        <time>2025-10-04T12:24:51Z</time>
      </trkpt>
      <trkpt lat="45.33065" lon="3.35465">
        <ele>426</ele>
        <time>2025-10-04T12:24:53Z</time>
      </trkpt>
      <trkpt lat="45.33067" lon="3.35483">
        <ele>425.6</ele>
        <time>2025-10-04T12:24:55Z</time>
      </trkpt>
      <trkpt lat="45.33071" lon="3.35502">
        <ele>425.4</ele>
        <time>2025-10-04T12:24:57Z</time>
      </trkpt>
      <trkpt lat="45.3308" lon="3.35527">
        <ele>425.4</ele>
        <time>2025-10-04T12:25:00Z</time>
      </trkpt>
      <trkpt lat="45.33096" lon="3.35558">
        <ele>424.6</ele>
        <time>2025-10-04T12:25:04Z</time>
      </trkpt>
      <trkpt lat="45.33101" lon="3.35564">
        <ele>424.4</ele>
        <time>2025-10-04T12:25:05Z</time>
      </trkpt>
      <trkpt lat="45.3311" lon="3.35575">
        <ele>424.2</ele>
        <time>2025-10-04T12:25:07Z</time>
      </trkpt>
      <trkpt lat="45.33125" lon="3.35593">
        <ele>424.2</ele>
        <time>2025-10-04T12:25:10Z</time>
      </trkpt>
      <trkpt lat="45.3313" lon="3.35599">
        <ele>424</ele>
        <time>2025-10-04T12:25:11Z</time>
      </trkpt>
      <trkpt lat="45.33138" lon="3.35615">
        <ele>424</ele>
        <time>2025-10-04T12:25:13Z</time>
      </trkpt>
      <trkpt lat="45.33141" lon="3.35624">
        <ele>424</ele>
        <time>2025-10-04T12:25:14Z</time>
      </trkpt>
      <trkpt lat="45.33158" lon="3.35665">
        <ele>424.4</ele>
        <time>2025-10-04T12:25:19Z</time>
      </trkpt>
      <trkpt lat="45.33163" lon="3.35671">
        <ele>424.6</ele>
        <time>2025-10-04T12:25:20Z</time>
      </trkpt>
      <trkpt lat="45.33168" lon="3.35676">
        <ele>424.6</ele>
        <time>2025-10-04T12:25:21Z</time>
      </trkpt>
      <trkpt lat="45.33191" lon="3.35695">
        <ele>424.4</ele>
        <time>2025-10-04T12:25:25Z</time>
      </trkpt>
      <trkpt lat="45.33223" lon="3.35729">
        <ele>423.8</ele>
        <time>2025-10-04T12:25:31Z</time>
      </trkpt>
      <trkpt lat="45.33241" lon="3.35768">
        <ele>423.2</ele>
        <time>2025-10-04T12:25:36Z</time>
      </trkpt>
      <trkpt lat="45.33259" lon="3.35816">
        <ele>423</ele>
        <time>2025-10-04T12:25:42Z</time>
      </trkpt>
      <trkpt lat="45.33271" lon="3.35846">
        <ele>422.8</ele>
        <time>2025-10-04T12:25:46Z</time>
      </trkpt>
      <trkpt lat="45.33289" lon="3.35883">
        <ele>422.8</ele>
        <time>2025-10-04T12:25:51Z</time>
      </trkpt>
      <trkpt lat="45.33291" lon="3.3589">
        <ele>422.8</ele>
        <time>2025-10-04T12:25:52Z</time>
      </trkpt>
      <trkpt lat="45.3329" lon="3.35897">
        <ele>422.8</ele>
        <time>2025-10-04T12:25:53Z</time>
      </trkpt>
      <trkpt lat="45.33287" lon="3.35904">
        <ele>422.8</ele>
        <time>2025-10-04T12:25:54Z</time>
      </trkpt>
      <trkpt lat="45.33277" lon="3.35921">
        <ele>422.8</ele>
        <time>2025-10-04T12:25:57Z</time>
      </trkpt>
      <trkpt lat="45.33268" lon="3.3594">
        <ele>423</ele>
        <time>2025-10-04T12:26:00Z</time>
      </trkpt>
      <trkpt lat="45.33261" lon="3.35959">
        <ele>423.4</ele>
        <time>2025-10-04T12:26:03Z</time>
      </trkpt>
      <trkpt lat="45.3326" lon="3.35971">
        <ele>423.4</ele>
        <time>2025-10-04T12:26:05Z</time>
      </trkpt>
      <trkpt lat="45.33263" lon="3.35982">
        <ele>423.4</ele>
        <time>2025-10-04T12:26:07Z</time>
      </trkpt>
      <trkpt lat="45.33268" lon="3.35992">
        <ele>423.6</ele>
        <time>2025-10-04T12:26:09Z</time>
      </trkpt>
      <trkpt lat="45.33295" lon="3.36033">
        <ele>423.8</ele>
        <time>2025-10-04T12:26:17Z</time>
      </trkpt>
      <trkpt lat="45.33298" lon="3.36037">
        <ele>424</ele>
        <time>2025-10-04T12:26:18Z</time>
      </trkpt>
      <trkpt lat="45.33303" lon="3.36039">
        <ele>423.8</ele>
        <time>2025-10-04T12:26:19Z</time>
      </trkpt>
      <trkpt lat="45.33314" lon="3.3604">
        <ele>423.8</ele>
        <time>2025-10-04T12:26:21Z</time>
      </trkpt>
      <trkpt lat="45.33319" lon="3.36039">
        <ele>423.8</ele>
        <time>2025-10-04T12:26:22Z</time>
      </trkpt>
      <trkpt lat="45.33325" lon="3.36037">
        <ele>423.8</ele>
        <time>2025-10-04T12:26:23Z</time>
      </trkpt>
      <trkpt lat="45.33349" lon="3.36028">
        <ele>423.6</ele>
        <time>2025-10-04T12:26:27Z</time>
      </trkpt>
      <trkpt lat="45.33355" lon="3.36027">
        <ele>423.4</ele>
        <time>2025-10-04T12:26:28Z</time>
      </trkpt>
      <trkpt lat="45.33361" lon="3.36027">
        <ele>423.2</ele>
        <time>2025-10-04T12:26:29Z</time>
      </trkpt>
      <trkpt lat="45.33372" lon="3.36031">
        <ele>423</ele>
        <time>2025-10-04T12:26:31Z</time>
      </trkpt>
      <trkpt lat="45.33377" lon="3.36036">
        <ele>423</ele>
        <time>2025-10-04T12:26:32Z</time>
      </trkpt>
      <trkpt lat="45.3338" lon="3.36041">
        <ele>423</ele>
        <time>2025-10-04T12:26:33Z</time>
      </trkpt>
      <trkpt lat="45.33386" lon="3.36054">
        <ele>423</ele>
        <time>2025-10-04T12:26:35Z</time>
      </trkpt>
      <trkpt lat="45.3339" lon="3.3607">
        <ele>422.6</ele>
        <time>2025-10-04T12:26:37Z</time>
      </trkpt>
      <trkpt lat="45.33393" lon="3.36086">
        <ele>422.4</ele>
        <time>2025-10-04T12:26:39Z</time>
      </trkpt>
      <trkpt lat="45.33393" lon="3.36095">
        <ele>422.4</ele>
        <time>2025-10-04T12:26:40Z</time>
      </trkpt>
      <trkpt lat="45.33391" lon="3.36112">
        <ele>422.4</ele>
        <time>2025-10-04T12:26:42Z</time>
      </trkpt>
      <trkpt lat="45.33385" lon="3.36132">
        <ele>422.4</ele>
        <time>2025-10-04T12:26:45Z</time>
      </trkpt>
      <trkpt lat="45.33376" lon="3.36157">
        <ele>422.8</ele>
        <time>2025-10-04T12:26:49Z</time>
      </trkpt>
      <trkpt lat="45.33374" lon="3.36171">
        <ele>423</ele>
        <time>2025-10-04T12:26:51Z</time>
      </trkpt>
      <trkpt lat="45.33375" lon="3.36185">
        <ele>423.4</ele>
        <time>2025-10-04T12:26:53Z</time>
      </trkpt>
      <trkpt lat="45.33378" lon="3.36197">
        <ele>423.6</ele>
        <time>2025-10-04T12:26:55Z</time>
      </trkpt>
      <trkpt lat="45.33388" lon="3.36225">
        <ele>424.4</ele>
        <time>2025-10-04T12:27:00Z</time>
      </trkpt>
      <trkpt lat="45.33393" lon="3.36236">
        <ele>424.8</ele>
        <time>2025-10-04T12:27:02Z</time>
      </trkpt>
      <trkpt lat="45.33406" lon="3.36263">
        <ele>425.4</ele>
        <time>2025-10-04T12:27:07Z</time>
      </trkpt>
      <trkpt lat="45.33422" lon="3.36289">
        <ele>426</ele>
        <time>2025-10-04T12:27:12Z</time>
      </trkpt>
      <trkpt lat="45.33433" lon="3.36309">
        <ele>426.4</ele>
        <time>2025-10-04T12:27:16Z</time>
      </trkpt>
      <trkpt lat="45.33448" lon="3.36335">
        <ele>427</ele>
        <time>2025-10-04T12:27:21Z</time>
      </trkpt>
      <trkpt lat="45.33473" lon="3.36383">
        <ele>427.2</ele>
        <time>2025-10-04T12:27:30Z</time>
      </trkpt>
      <trkpt lat="45.33476" lon="3.36388">
        <ele>427.4</ele>
        <time>2025-10-04T12:27:31Z</time>
      </trkpt>
      <trkpt lat="45.33483" lon="3.36404">
        <ele>427.6</ele>
        <time>2025-10-04T12:27:34Z</time>
      </trkpt>
      <trkpt lat="45.3349" lon="3.36428">
        <ele>427.8</ele>
        <time>2025-10-04T12:27:38Z</time>
      </trkpt>
      <trkpt lat="45.335" lon="3.36474">
        <ele>427.8</ele>
        <time>2025-10-04T12:27:45Z</time>
      </trkpt>
      <trkpt lat="45.33501" lon="3.36486">
        <ele>427.6</ele>
        <time>2025-10-04T12:27:47Z</time>
      </trkpt>
      <trkpt lat="45.33499" lon="3.365">
        <ele>427</ele>
        <time>2025-10-04T12:27:50Z</time>
      </trkpt>
      <trkpt lat="45.33496" lon="3.36503">
        <ele>426.4</ele>
        <time>2025-10-04T12:27:51Z</time>
      </trkpt>
      <trkpt lat="45.33485" lon="3.36508">
        <ele>425.6</ele>
        <time>2025-10-04T12:27:54Z</time>
      </trkpt>
      <trkpt lat="45.33481" lon="3.36509">
        <ele>425.2</ele>
        <time>2025-10-04T12:27:55Z</time>
      </trkpt>
      <trkpt lat="45.33451" lon="3.3652">
        <ele>424.8</ele>
        <time>2025-10-04T12:28:02Z</time>
      </trkpt>
      <trkpt lat="45.33422" lon="3.36532">
        <ele>425.8</ele>
        <time>2025-10-04T12:28:09Z</time>
      </trkpt>
      <trkpt lat="45.33419" lon="3.36533">
        <ele>425.8</ele>
        <time>2025-10-04T12:28:10Z</time>
      </trkpt>
      <trkpt lat="45.33406" lon="3.36538">
        <ele>426.2</ele>
        <time>2025-10-04T12:28:14Z</time>
      </trkpt>
      <trkpt lat="45.33403" lon="3.36539">
        <ele>426.2</ele>
        <time>2025-10-04T12:28:15Z</time>
      </trkpt>
      <trkpt lat="45.334" lon="3.3654">
        <ele>426.2</ele>
        <time>2025-10-04T12:28:16Z</time>
      </trkpt>
      <trkpt lat="45.33391" lon="3.36546">
        <ele>426.4</ele>
        <time>2025-10-04T12:28:20Z</time>
      </trkpt>
      <trkpt lat="45.3339" lon="3.36549">
        <ele>426.4</ele>
        <time>2025-10-04T12:28:21Z</time>
      </trkpt>
      <trkpt lat="45.33399" lon="3.36565">
        <ele>426.4</ele>
        <time>2025-10-04T12:28:25Z</time>
      </trkpt>
      <trkpt lat="45.33404" lon="3.36568">
        <ele>426.4</ele>
        <time>2025-10-04T12:28:26Z</time>
      </trkpt>
      <trkpt lat="45.33425" lon="3.36575">
        <ele>426.4</ele>
        <time>2025-10-04T12:28:31Z</time>
      </trkpt>
      <trkpt lat="45.3346" lon="3.36583">
        <ele>426.2</ele>
        <time>2025-10-04T12:28:39Z</time>
      </trkpt>
      <trkpt lat="45.33473" lon="3.36584">
        <ele>425.8</ele>
        <time>2025-10-04T12:28:42Z</time>
      </trkpt>
      <trkpt lat="45.33485" lon="3.36591">
        <ele>425.8</ele>
        <time>2025-10-04T12:28:45Z</time>
      </trkpt>
      <trkpt lat="45.33495" lon="3.366">
        <ele>425.8</ele>
        <time>2025-10-04T12:28:48Z</time>
      </trkpt>
      <trkpt lat="45.335" lon="3.36608">
        <ele>426</ele>
        <time>2025-10-04T12:28:50Z</time>
      </trkpt>
      <trkpt lat="45.33513" lon="3.3664">
        <ele>427</ele>
        <time>2025-10-04T12:28:57Z</time>
      </trkpt>
      <trkpt lat="45.33515" lon="3.36645">
        <ele>427.2</ele>
        <time>2025-10-04T12:28:58Z</time>
      </trkpt>
      <trkpt lat="45.3354" lon="3.36699">
        <ele>427.8</ele>
        <time>2025-10-04T12:29:09Z</time>
      </trkpt>
      <trkpt lat="45.33555" lon="3.36728">
        <ele>427.6</ele>
        <time>2025-10-04T12:29:14Z</time>
      </trkpt>
      <trkpt lat="45.33562" lon="3.36743">
        <ele>427.4</ele>
        <time>2025-10-04T12:29:16Z</time>
      </trkpt>
      <trkpt lat="45.33567" lon="3.3676">
        <ele>426.8</ele>
        <time>2025-10-04T12:29:18Z</time>
      </trkpt>
      <trkpt lat="45.3357" lon="3.36769">
        <ele>426.6</ele>
        <time>2025-10-04T12:29:19Z</time>
      </trkpt>
      <trkpt lat="45.33572" lon="3.36779">
        <ele>426.6</ele>
        <time>2025-10-04T12:29:20Z</time>
      </trkpt>
      <trkpt lat="45.33575" lon="3.3679">
        <ele>426.2</ele>
        <time>2025-10-04T12:29:21Z</time>
      </trkpt>
      <trkpt lat="45.33579" lon="3.36801">
        <ele>426</ele>
        <time>2025-10-04T12:29:22Z</time>
      </trkpt>
      <trkpt lat="45.33583" lon="3.36812">
        <ele>425.6</ele>
        <time>2025-10-04T12:29:23Z</time>
      </trkpt>
      <trkpt lat="45.33592" lon="3.36836">
        <ele>424.6</ele>
        <time>2025-10-04T12:29:25Z</time>
      </trkpt>
      <trkpt lat="45.33599" lon="3.36862">
        <ele>423.4</ele>
        <time>2025-10-04T12:29:27Z</time>
      </trkpt>
      <trkpt lat="45.33602" lon="3.36877">
        <ele>422.8</ele>
        <time>2025-10-04T12:29:28Z</time>
      </trkpt>
      <trkpt lat="45.33605" lon="3.36906">
        <ele>422</ele>
        <time>2025-10-04T12:29:30Z</time>
      </trkpt>
      <trkpt lat="45.33607" lon="3.36935">
        <ele>420.4</ele>
        <time>2025-10-04T12:29:32Z</time>
      </trkpt>
      <trkpt lat="45.3361" lon="3.36963">
        <ele>419</ele>
        <time>2025-10-04T12:29:34Z</time>
      </trkpt>
      <trkpt lat="45.33612" lon="3.36989">
        <ele>417.8</ele>
        <time>2025-10-04T12:29:36Z</time>
      </trkpt>
      <trkpt lat="45.33617" lon="3.37026">
        <ele>417</ele>
        <time>2025-10-04T12:29:39Z</time>
      </trkpt>
      <trkpt lat="45.3362" lon="3.37049">
        <ele>416.6</ele>
        <time>2025-10-04T12:29:41Z</time>
      </trkpt>
      <trkpt lat="45.33627" lon="3.37091">
        <ele>416.4</ele>
        <time>2025-10-04T12:29:45Z</time>
      </trkpt>
      <trkpt lat="45.33635" lon="3.37146">
        <ele>416.4</ele>
        <time>2025-10-04T12:29:51Z</time>
      </trkpt>
      <trkpt lat="45.33638" lon="3.37162">
        <ele>416.4</ele>
        <time>2025-10-04T12:29:53Z</time>
      </trkpt>
      <trkpt lat="45.33646" lon="3.37173">
        <ele>416.4</ele>
        <time>2025-10-04T12:29:55Z</time>
      </trkpt>
      <trkpt lat="45.33662" lon="3.37177">
        <ele>416.4</ele>
        <time>2025-10-04T12:29:58Z</time>
      </trkpt>
      <trkpt lat="45.33715" lon="3.37179">
        <ele>416.8</ele>
        <time>2025-10-04T12:30:07Z</time>
      </trkpt>
      <trkpt lat="45.33721" lon="3.3718">
        <ele>416.8</ele>
        <time>2025-10-04T12:30:08Z</time>
      </trkpt>
      <trkpt lat="45.33746" lon="3.37178">
        <ele>416.6</ele>
        <time>2025-10-04T12:30:12Z</time>
      </trkpt>
      <trkpt lat="45.33752" lon="3.37177">
        <ele>416.6</ele>
        <time>2025-10-04T12:30:13Z</time>
      </trkpt>
      <trkpt lat="45.3379" lon="3.37169">
        <ele>416.4</ele>
        <time>2025-10-04T12:30:19Z</time>
      </trkpt>
      <trkpt lat="45.33808" lon="3.37163">
        <ele>416.2</ele>
        <time>2025-10-04T12:30:22Z</time>
      </trkpt>
      <trkpt lat="45.33856" lon="3.37142">
        <ele>416.2</ele>
        <time>2025-10-04T12:30:30Z</time>
      </trkpt>
      <trkpt lat="45.33868" lon="3.37137">
        <ele>416.2</ele>
        <time>2025-10-04T12:30:32Z</time>
      </trkpt>
      <trkpt lat="45.33923" lon="3.37112">
        <ele>416.8</ele>
        <time>2025-10-04T12:30:41Z</time>
      </trkpt>
      <trkpt lat="45.33979" lon="3.37089">
        <ele>416.8</ele>
        <time>2025-10-04T12:30:50Z</time>
      </trkpt>
      <trkpt lat="45.33985" lon="3.37086">
        <ele>416.8</ele>
        <time>2025-10-04T12:30:51Z</time>
      </trkpt>
      <trkpt lat="45.34038" lon="3.37059">
        <ele>417</ele>
        <time>2025-10-04T12:31:00Z</time>
      </trkpt>
      <trkpt lat="45.34085" lon="3.37016">
        <ele>416.8</ele>
        <time>2025-10-04T12:31:09Z</time>
      </trkpt>
      <trkpt lat="45.3411" lon="3.36978">
        <ele>416.8</ele>
        <time>2025-10-04T12:31:15Z</time>
      </trkpt>
      <trkpt lat="45.34114" lon="3.36971">
        <ele>416.8</ele>
        <time>2025-10-04T12:31:16Z</time>
      </trkpt>
      <trkpt lat="45.34139" lon="3.36924">
        <ele>417.2</ele>
        <time>2025-10-04T12:31:23Z</time>
      </trkpt>
      <trkpt lat="45.34172" lon="3.36889">
        <ele>416.8</ele>
        <time>2025-10-04T12:31:30Z</time>
      </trkpt>
      <trkpt lat="45.3421" lon="3.3685">
        <ele>417.2</ele>
        <time>2025-10-04T12:31:38Z</time>
      </trkpt>
      <trkpt lat="45.3425" lon="3.3681">
        <ele>417.2</ele>
        <time>2025-10-04T12:31:46Z</time>
      </trkpt>
      <trkpt lat="45.34266" lon="3.36799">
        <ele>417.2</ele>
        <time>2025-10-04T12:31:49Z</time>
      </trkpt>
      <trkpt lat="45.34277" lon="3.36796">
        <ele>417</ele>
        <time>2025-10-04T12:31:51Z</time>
      </trkpt>
      <trkpt lat="45.34283" lon="3.36796">
        <ele>417</ele>
        <time>2025-10-04T12:31:52Z</time>
      </trkpt>
      <trkpt lat="45.34302" lon="3.36799">
        <ele>417.2</ele>
        <time>2025-10-04T12:31:55Z</time>
      </trkpt>
      <trkpt lat="45.34322" lon="3.36804">
        <ele>417.2</ele>
        <time>2025-10-04T12:31:58Z</time>
      </trkpt>
      <trkpt lat="45.34379" lon="3.36817">
        <ele>417.2</ele>
        <time>2025-10-04T12:32:07Z</time>
      </trkpt>
      <trkpt lat="45.34435" lon="3.36829">
        <ele>417</ele>
        <time>2025-10-04T12:32:16Z</time>
      </trkpt>
      <trkpt lat="45.34441" lon="3.3683">
        <ele>416.8</ele>
        <time>2025-10-04T12:32:17Z</time>
      </trkpt>
      <trkpt lat="45.3446" lon="3.36834">
        <ele>416.8</ele>
        <time>2025-10-04T12:32:20Z</time>
      </trkpt>
      <trkpt lat="45.34511" lon="3.36845">
        <ele>416.8</ele>
        <time>2025-10-04T12:32:28Z</time>
      </trkpt>
      <trkpt lat="45.34563" lon="3.36856">
        <ele>416.6</ele>
        <time>2025-10-04T12:32:36Z</time>
      </trkpt>
      <trkpt lat="45.34621" lon="3.36866">
        <ele>416.4</ele>
        <time>2025-10-04T12:32:45Z</time>
      </trkpt>
      <trkpt lat="45.34633" lon="3.36869">
        <ele>416.6</ele>
        <time>2025-10-04T12:32:47Z</time>
      </trkpt>
      <trkpt lat="45.34681" lon="3.36876">
        <ele>416.8</ele>
        <time>2025-10-04T12:32:55Z</time>
      </trkpt>
      <trkpt lat="45.34737" lon="3.36885">
        <ele>416.6</ele>
        <time>2025-10-04T12:33:04Z</time>
      </trkpt>
      <trkpt lat="45.34749" lon="3.36886">
        <ele>416.6</ele>
        <time>2025-10-04T12:33:06Z</time>
      </trkpt>
      <trkpt lat="45.34804" lon="3.36882">
        <ele>417.4</ele>
        <time>2025-10-04T12:33:15Z</time>
      </trkpt>
      <trkpt lat="45.3486" lon="3.3687">
        <ele>416.8</ele>
        <time>2025-10-04T12:33:24Z</time>
      </trkpt>
      <trkpt lat="45.34872" lon="3.36868">
        <ele>416.6</ele>
        <time>2025-10-04T12:33:26Z</time>
      </trkpt>
      <trkpt lat="45.34929" lon="3.36859">
        <ele>416.6</ele>
        <time>2025-10-04T12:33:35Z</time>
      </trkpt>
      <trkpt lat="45.34981" lon="3.36848">
        <ele>416.2</ele>
        <time>2025-10-04T12:33:43Z</time>
      </trkpt>
      <trkpt lat="45.34993" lon="3.36846">
        <ele>416</ele>
        <time>2025-10-04T12:33:45Z</time>
      </trkpt>
      <trkpt lat="45.35033" lon="3.36841">
        <ele>415.8</ele>
        <time>2025-10-04T12:33:51Z</time>
      </trkpt>
      <trkpt lat="45.35066" lon="3.36835">
        <ele>415.8</ele>
        <time>2025-10-04T12:33:56Z</time>
      </trkpt>
      <trkpt lat="45.35072" lon="3.36831">
        <ele>415.8</ele>
        <time>2025-10-04T12:33:57Z</time>
      </trkpt>
      <trkpt lat="45.35125" lon="3.36791">
        <ele>415.8</ele>
        <time>2025-10-04T12:34:06Z</time>
      </trkpt>
      <trkpt lat="45.35176" lon="3.36752">
        <ele>415.6</ele>
        <time>2025-10-04T12:34:15Z</time>
      </trkpt>
      <trkpt lat="45.3523" lon="3.36714">
        <ele>416</ele>
        <time>2025-10-04T12:34:24Z</time>
      </trkpt>
      <trkpt lat="45.35242" lon="3.36704">
        <ele>416</ele>
        <time>2025-10-04T12:34:26Z</time>
      </trkpt>
      <trkpt lat="45.35282" lon="3.36676">
        <ele>415.6</ele>
        <time>2025-10-04T12:34:33Z</time>
      </trkpt>
      <trkpt lat="45.35334" lon="3.36638">
        <ele>415.4</ele>
        <time>2025-10-04T12:34:42Z</time>
      </trkpt>
      <trkpt lat="45.35347" lon="3.36631">
        <ele>415.4</ele>
        <time>2025-10-04T12:34:44Z</time>
      </trkpt>
      <trkpt lat="45.3536" lon="3.36625">
        <ele>415.4</ele>
        <time>2025-10-04T12:34:46Z</time>
      </trkpt>
      <trkpt lat="45.35379" lon="3.36624">
        <ele>415.4</ele>
        <time>2025-10-04T12:34:49Z</time>
      </trkpt>
      <trkpt lat="45.35403" lon="3.36623">
        <ele>415.4</ele>
        <time>2025-10-04T12:34:53Z</time>
      </trkpt>
      <trkpt lat="45.35408" lon="3.36623">
        <ele>415.4</ele>
        <time>2025-10-04T12:34:54Z</time>
      </trkpt>
      <trkpt lat="45.35413" lon="3.36623">
        <ele>415.4</ele>
        <time>2025-10-04T12:34:55Z</time>
      </trkpt>
      <trkpt lat="45.35418" lon="3.3662">
        <ele>415.4</ele>
        <time>2025-10-04T12:34:56Z</time>
      </trkpt>
      <trkpt lat="45.35421" lon="3.36608">
        <ele>415.4</ele>
        <time>2025-10-04T12:34:58Z</time>
      </trkpt>
      <trkpt lat="45.35418" lon="3.36563">
        <ele>415.4</ele>
        <time>2025-10-04T12:35:04Z</time>
      </trkpt>
      <trkpt lat="45.35417" lon="3.36555">
        <ele>415.4</ele>
        <time>2025-10-04T12:35:05Z</time>
      </trkpt>
      <trkpt lat="45.35408" lon="3.36525">
        <ele>415.4</ele>
        <time>2025-10-04T12:35:09Z</time>
      </trkpt>
      <trkpt lat="45.35405" lon="3.36511">
        <ele>415.2</ele>
        <time>2025-10-04T12:35:11Z</time>
      </trkpt>
      <trkpt lat="45.35392" lon="3.3646">
        <ele>414.8</ele>
        <time>2025-10-04T12:35:18Z</time>
      </trkpt>
      <trkpt lat="45.35373" lon="3.36385">
        <ele>415</ele>
        <time>2025-10-04T12:35:29Z</time>
      </trkpt>
      <trkpt lat="45.35366" lon="3.36358">
        <ele>415</ele>
        <time>2025-10-04T12:35:33Z</time>
      </trkpt>
      <trkpt lat="45.35361" lon="3.36338">
        <ele>414.6</ele>
        <time>2025-10-04T12:35:36Z</time>
      </trkpt>
      <trkpt lat="45.3536" lon="3.36331">
        <ele>414.6</ele>
        <time>2025-10-04T12:35:37Z</time>
      </trkpt>
      <trkpt lat="45.35361" lon="3.36318">
        <ele>414.8</ele>
        <time>2025-10-04T12:35:39Z</time>
      </trkpt>
      <trkpt lat="45.35368" lon="3.36308">
        <ele>415</ele>
        <time>2025-10-04T12:35:41Z</time>
      </trkpt>
      <trkpt lat="45.35373" lon="3.36307">
        <ele>415</ele>
        <time>2025-10-04T12:35:42Z</time>
      </trkpt>
      <trkpt lat="45.35383" lon="3.36308">
        <ele>415</ele>
        <time>2025-10-04T12:35:44Z</time>
      </trkpt>
      <trkpt lat="45.354" lon="3.36314">
        <ele>415.2</ele>
        <time>2025-10-04T12:35:47Z</time>
      </trkpt>
      <trkpt lat="45.35411" lon="3.36318">
        <ele>415.2</ele>
        <time>2025-10-04T12:35:49Z</time>
      </trkpt>
      <trkpt lat="45.3543" lon="3.36319">
        <ele>415</ele>
        <time>2025-10-04T12:35:52Z</time>
      </trkpt>
      <trkpt lat="45.35469" lon="3.36318">
        <ele>414.6</ele>
        <time>2025-10-04T12:35:58Z</time>
      </trkpt>
      <trkpt lat="45.35488" lon="3.36315">
        <ele>414.4</ele>
        <time>2025-10-04T12:36:01Z</time>
      </trkpt>
      <trkpt lat="45.355" lon="3.36309">
        <ele>414.4</ele>
        <time>2025-10-04T12:36:03Z</time>
      </trkpt>
      <trkpt lat="45.35541" lon="3.3629">
        <ele>414.2</ele>
        <time>2025-10-04T12:36:10Z</time>
      </trkpt>
      <trkpt lat="45.35572" lon="3.36272">
        <ele>414.8</ele>
        <time>2025-10-04T12:36:16Z</time>
      </trkpt>
      <trkpt lat="45.35578" lon="3.36261">
        <ele>414.8</ele>
        <time>2025-10-04T12:36:18Z</time>
      </trkpt>
      <trkpt lat="45.3558" lon="3.36253">
        <ele>414.8</ele>
        <time>2025-10-04T12:36:19Z</time>
      </trkpt>
      <trkpt lat="45.35581" lon="3.36245">
        <ele>414.8</ele>
        <time>2025-10-04T12:36:20Z</time>
      </trkpt>
      <trkpt lat="45.35581" lon="3.36203">
        <ele>414.8</ele>
        <time>2025-10-04T12:36:25Z</time>
      </trkpt>
      <trkpt lat="45.35581" lon="3.36153">
        <ele>414.8</ele>
        <time>2025-10-04T12:36:31Z</time>
      </trkpt>
      <trkpt lat="45.35582" lon="3.36145">
        <ele>414.6</ele>
        <time>2025-10-04T12:36:32Z</time>
      </trkpt>
      <trkpt lat="45.35586" lon="3.3614">
        <ele>414.6</ele>
        <time>2025-10-04T12:36:33Z</time>
      </trkpt>
      <trkpt lat="45.35591" lon="3.36138">
        <ele>414.6</ele>
        <time>2025-10-04T12:36:34Z</time>
      </trkpt>
      <trkpt lat="45.35596" lon="3.3614">
        <ele>414.6</ele>
        <time>2025-10-04T12:36:35Z</time>
      </trkpt>
      <trkpt lat="45.35607" lon="3.36147">
        <ele>414.6</ele>
        <time>2025-10-04T12:36:37Z</time>
      </trkpt>
      <trkpt lat="45.35619" lon="3.36151">
        <ele>414.4</ele>
        <time>2025-10-04T12:36:39Z</time>
      </trkpt>
      <trkpt lat="45.35637" lon="3.36152">
        <ele>414.4</ele>
        <time>2025-10-04T12:36:42Z</time>
      </trkpt>
      <trkpt lat="45.35695" lon="3.36154">
        <ele>414.6</ele>
        <time>2025-10-04T12:36:51Z</time>
      </trkpt>
      <trkpt lat="45.35748" lon="3.36155">
        <ele>414.4</ele>
        <time>2025-10-04T12:36:59Z</time>
      </trkpt>
      <trkpt lat="45.35755" lon="3.36155">
        <ele>414.4</ele>
        <time>2025-10-04T12:37:00Z</time>
      </trkpt>
      <trkpt lat="45.35812" lon="3.36157">
        <ele>414</ele>
        <time>2025-10-04T12:37:09Z</time>
      </trkpt>
      <trkpt lat="45.35819" lon="3.36157">
        <ele>414</ele>
        <time>2025-10-04T12:37:10Z</time>
      </trkpt>
      <trkpt lat="45.35876" lon="3.36158">
        <ele>414.2</ele>
        <time>2025-10-04T12:37:19Z</time>
      </trkpt>
      <trkpt lat="45.35889" lon="3.36158">
        <ele>414.2</ele>
        <time>2025-10-04T12:37:21Z</time>
      </trkpt>
      <trkpt lat="45.35946" lon="3.3616">
        <ele>414.6</ele>
        <time>2025-10-04T12:37:30Z</time>
      </trkpt>
      <trkpt lat="45.35964" lon="3.36156">
        <ele>414.6</ele>
        <time>2025-10-04T12:37:33Z</time>
      </trkpt>
      <trkpt lat="45.35976" lon="3.3615">
        <ele>414.6</ele>
        <time>2025-10-04T12:37:35Z</time>
      </trkpt>
      <trkpt lat="45.36024" lon="3.36122">
        <ele>414.8</ele>
        <time>2025-10-04T12:37:43Z</time>
      </trkpt>
      <trkpt lat="45.36076" lon="3.36092">
        <ele>415</ele>
        <time>2025-10-04T12:37:52Z</time>
      </trkpt>
      <trkpt lat="45.36082" lon="3.36089">
        <ele>415</ele>
        <time>2025-10-04T12:37:53Z</time>
      </trkpt>
      <trkpt lat="45.36124" lon="3.36065">
        <ele>415.2</ele>
        <time>2025-10-04T12:38:00Z</time>
      </trkpt>
      <trkpt lat="45.36178" lon="3.36035">
        <ele>415</ele>
        <time>2025-10-04T12:38:09Z</time>
      </trkpt>
      <trkpt lat="45.36203" lon="3.36021">
        <ele>414.8</ele>
        <time>2025-10-04T12:38:13Z</time>
      </trkpt>
      <trkpt lat="45.36209" lon="3.36018">
        <ele>415</ele>
        <time>2025-10-04T12:38:14Z</time>
      </trkpt>
      <trkpt lat="45.36256" lon="3.35991">
        <ele>415</ele>
        <time>2025-10-04T12:38:22Z</time>
      </trkpt>
      <trkpt lat="45.36295" lon="3.35968">
        <ele>414.6</ele>
        <time>2025-10-04T12:38:29Z</time>
      </trkpt>
      <trkpt lat="45.36348" lon="3.35937">
        <ele>414.8</ele>
        <time>2025-10-04T12:38:38Z</time>
      </trkpt>
      <trkpt lat="45.36354" lon="3.35934">
        <ele>414.8</ele>
        <time>2025-10-04T12:38:39Z</time>
      </trkpt>
      <trkpt lat="45.36405" lon="3.35906">
        <ele>414.8</ele>
        <time>2025-10-04T12:38:47Z</time>
      </trkpt>
      <trkpt lat="45.36458" lon="3.35879">
        <ele>415</ele>
        <time>2025-10-04T12:38:55Z</time>
      </trkpt>
      <trkpt lat="45.36464" lon="3.35875">
        <ele>415</ele>
        <time>2025-10-04T12:38:56Z</time>
      </trkpt>
      <trkpt lat="45.3651" lon="3.35849">
        <ele>415.2</ele>
        <time>2025-10-04T12:39:03Z</time>
      </trkpt>
      <trkpt lat="45.36539" lon="3.35833">
        <ele>414.6</ele>
        <time>2025-10-04T12:39:08Z</time>
      </trkpt>
      <trkpt lat="45.36587" lon="3.35805">
        <ele>414.4</ele>
        <time>2025-10-04T12:39:16Z</time>
      </trkpt>
      <trkpt lat="45.36636" lon="3.35777">
        <ele>415</ele>
        <time>2025-10-04T12:39:24Z</time>
      </trkpt>
      <trkpt lat="45.36686" lon="3.35746">
        <ele>415.2</ele>
        <time>2025-10-04T12:39:32Z</time>
      </trkpt>
      <trkpt lat="45.36693" lon="3.35743">
        <ele>415.2</ele>
        <time>2025-10-04T12:39:33Z</time>
      </trkpt>
      <trkpt lat="45.36744" lon="3.35715">
        <ele>414.4</ele>
        <time>2025-10-04T12:39:41Z</time>
      </trkpt>
      <trkpt lat="45.36751" lon="3.35711">
        <ele>414.4</ele>
        <time>2025-10-04T12:39:42Z</time>
      </trkpt>
      <trkpt lat="45.36807" lon="3.35679">
        <ele>414.4</ele>
        <time>2025-10-04T12:39:51Z</time>
      </trkpt>
      <trkpt lat="45.36858" lon="3.35651">
        <ele>414</ele>
        <time>2025-10-04T12:39:59Z</time>
      </trkpt>
      <trkpt lat="45.3687" lon="3.35644">
        <ele>414.2</ele>
        <time>2025-10-04T12:40:01Z</time>
      </trkpt>
      <trkpt lat="45.36926" lon="3.35612">
        <ele>414.4</ele>
        <time>2025-10-04T12:40:10Z</time>
      </trkpt>
      <trkpt lat="45.36937" lon="3.35605">
        <ele>414.4</ele>
        <time>2025-10-04T12:40:12Z</time>
      </trkpt>
      <trkpt lat="45.3695" lon="3.35598">
        <ele>414.4</ele>
        <time>2025-10-04T12:40:14Z</time>
      </trkpt>
      <trkpt lat="45.36968" lon="3.35588">
        <ele>414.2</ele>
        <time>2025-10-04T12:40:17Z</time>
      </trkpt>
      <trkpt lat="45.36986" lon="3.35578">
        <ele>413.8</ele>
        <time>2025-10-04T12:40:20Z</time>
      </trkpt>
      <trkpt lat="45.37016" lon="3.35561">
        <ele>413.2</ele>
        <time>2025-10-04T12:40:25Z</time>
      </trkpt>
      <trkpt lat="45.37057" lon="3.35538">
        <ele>413.8</ele>
        <time>2025-10-04T12:40:32Z</time>
      </trkpt>
      <trkpt lat="45.37109" lon="3.35509">
        <ele>414.4</ele>
        <time>2025-10-04T12:40:41Z</time>
      </trkpt>
      <trkpt lat="45.37155" lon="3.35483">
        <ele>413.8</ele>
        <time>2025-10-04T12:40:49Z</time>
      </trkpt>
      <trkpt lat="45.3716" lon="3.35479">
        <ele>413.8</ele>
        <time>2025-10-04T12:40:50Z</time>
      </trkpt>
      <trkpt lat="45.37169" lon="3.35469">
        <ele>413.6</ele>
        <time>2025-10-04T12:40:52Z</time>
      </trkpt>
      <trkpt lat="45.37172" lon="3.35462">
        <ele>413.6</ele>
        <time>2025-10-04T12:40:53Z</time>
      </trkpt>
      <trkpt lat="45.37191" lon="3.35409">
        <ele>413.2</ele>
        <time>2025-10-04T12:41:00Z</time>
      </trkpt>
      <trkpt lat="45.3722" lon="3.35345">
        <ele>413.4</ele>
        <time>2025-10-04T12:41:09Z</time>
      </trkpt>
      <trkpt lat="45.37238" lon="3.35292">
        <ele>413.6</ele>
        <time>2025-10-04T12:41:16Z</time>
      </trkpt>
      <trkpt lat="45.37248" lon="3.35229">
        <ele>414</ele>
        <time>2025-10-04T12:41:24Z</time>
      </trkpt>
      <trkpt lat="45.37245" lon="3.35183">
        <ele>414.2</ele>
        <time>2025-10-04T12:41:30Z</time>
      </trkpt>
      <trkpt lat="45.3723" lon="3.35119">
        <ele>414.6</ele>
        <time>2025-10-04T12:41:39Z</time>
      </trkpt>
      <trkpt lat="45.37211" lon="3.35051">
        <ele>415</ele>
        <time>2025-10-04T12:41:49Z</time>
      </trkpt>
      <trkpt lat="45.37209" lon="3.35045">
        <ele>415.2</ele>
        <time>2025-10-04T12:41:50Z</time>
      </trkpt>
      <trkpt lat="45.37201" lon="3.3499">
        <ele>416</ele>
        <time>2025-10-04T12:41:58Z</time>
      </trkpt>
      <trkpt lat="45.37201" lon="3.34976">
        <ele>416.2</ele>
        <time>2025-10-04T12:42:00Z</time>
      </trkpt>
      <trkpt lat="45.37206" lon="3.34947">
        <ele>416.8</ele>
        <time>2025-10-04T12:42:04Z</time>
      </trkpt>
      <trkpt lat="45.37218" lon="3.34899">
        <ele>417.4</ele>
        <time>2025-10-04T12:42:11Z</time>
      </trkpt>
      <trkpt lat="45.37221" lon="3.34886">
        <ele>417.8</ele>
        <time>2025-10-04T12:42:13Z</time>
      </trkpt>
      <trkpt lat="45.37227" lon="3.34866">
        <ele>418.4</ele>
        <time>2025-10-04T12:42:16Z</time>
      </trkpt>
      <trkpt lat="45.37237" lon="3.34832">
        <ele>418.8</ele>
        <time>2025-10-04T12:42:21Z</time>
      </trkpt>
      <trkpt lat="45.37244" lon="3.34796">
        <ele>418.8</ele>
        <time>2025-10-04T12:42:26Z</time>
      </trkpt>
      <trkpt lat="45.37248" lon="3.34782">
        <ele>418.8</ele>
        <time>2025-10-04T12:42:28Z</time>
      </trkpt>
      <trkpt lat="45.37266" lon="3.34733">
        <ele>418.8</ele>
        <time>2025-10-04T12:42:36Z</time>
      </trkpt>
      <trkpt lat="45.37281" lon="3.34696">
        <ele>419.2</ele>
        <time>2025-10-04T12:42:43Z</time>
      </trkpt>
      <trkpt lat="45.37288" lon="3.34676">
        <ele>419.2</ele>
        <time>2025-10-04T12:42:48Z</time>
      </trkpt>
      <trkpt lat="45.37294" lon="3.34662">
        <ele>419.6</ele>
        <time>2025-10-04T12:42:52Z</time>
      </trkpt>
      <trkpt lat="45.37295" lon="3.34659">
        <ele>419.8</ele>
        <time>2025-10-04T12:42:53Z</time>
      </trkpt>
      <trkpt lat="45.37303" lon="3.34649">
        <ele>420.8</ele>
        <time>2025-10-04T12:42:57Z</time>
      </trkpt>
      <trkpt lat="45.37306" lon="3.34647">
        <ele>421.2</ele>
        <time>2025-10-04T12:42:59Z</time>
      </trkpt>
      <trkpt lat="45.37307" lon="3.34647">
        <ele>421.4</ele>
        <time>2025-10-04T12:43:00Z</time>
      </trkpt>
      <trkpt lat="45.37311" lon="3.34642">
        <ele>421.6</ele>
        <time>2025-10-04T12:43:04Z</time>
      </trkpt>
      <trkpt lat="45.37312" lon="3.3464">
        <ele>421.8</ele>
        <time>2025-10-04T12:43:05Z</time>
      </trkpt>
      <trkpt lat="45.37316" lon="3.34637">
        <ele>422</ele>
        <time>2025-10-04T12:43:07Z</time>
      </trkpt>
      <trkpt lat="45.37321" lon="3.34633">
        <ele>422.2</ele>
        <time>2025-10-04T12:43:09Z</time>
      </trkpt>
      <trkpt lat="45.3733" lon="3.34628">
        <ele>422.6</ele>
        <time>2025-10-04T12:43:12Z</time>
      </trkpt>
      <trkpt lat="45.37334" lon="3.34621">
        <ele>422.8</ele>
        <time>2025-10-04T12:43:14Z</time>
      </trkpt>
      <trkpt lat="45.37335" lon="3.34611">
        <ele>423</ele>
        <time>2025-10-04T12:43:16Z</time>
      </trkpt>
      <trkpt lat="45.37336" lon="3.34601">
        <ele>423.2</ele>
        <time>2025-10-04T12:43:18Z</time>
      </trkpt>
      <trkpt lat="45.37345" lon="3.34561">
        <ele>423.8</ele>
        <time>2025-10-04T12:43:26Z</time>
      </trkpt>
      <trkpt lat="45.37348" lon="3.34546">
        <ele>424</ele>
        <time>2025-10-04T12:43:29Z</time>
      </trkpt>
      <trkpt lat="45.37355" lon="3.34516">
        <ele>424.6</ele>
        <time>2025-10-04T12:43:36Z</time>
      </trkpt>
      <trkpt lat="45.3736" lon="3.34499">
        <ele>425</ele>
        <time>2025-10-04T12:43:40Z</time>
      </trkpt>
      <trkpt lat="45.37365" lon="3.3449">
        <ele>425.4</ele>
        <time>2025-10-04T12:43:43Z</time>
      </trkpt>
      <trkpt lat="45.37372" lon="3.34481">
        <ele>426.2</ele>
        <time>2025-10-04T12:43:46Z</time>
      </trkpt>
      <trkpt lat="45.37381" lon="3.34468">
        <ele>427.4</ele>
        <time>2025-10-04T12:43:50Z</time>
      </trkpt>
      <trkpt lat="45.37399" lon="3.34446">
        <ele>428.4</ele>
        <time>2025-10-04T12:43:58Z</time>
      </trkpt>
      <trkpt lat="45.37409" lon="3.34431">
        <ele>429.2</ele>
        <time>2025-10-04T12:44:03Z</time>
      </trkpt>
      <trkpt lat="45.37411" lon="3.34428">
        <ele>429.6</ele>
        <time>2025-10-04T12:44:04Z</time>
      </trkpt>
      <trkpt lat="45.3742" lon="3.34416">
        <ele>430.6</ele>
        <time>2025-10-04T12:44:08Z</time>
      </trkpt>
      <trkpt lat="45.3743" lon="3.34399">
        <ele>431.2</ele>
        <time>2025-10-04T12:44:13Z</time>
      </trkpt>
      <trkpt lat="45.37435" lon="3.34388">
        <ele>431.8</ele>
        <time>2025-10-04T12:44:16Z</time>
      </trkpt>
      <trkpt lat="45.37443" lon="3.34369">
        <ele>432.6</ele>
        <time>2025-10-04T12:44:21Z</time>
      </trkpt>
      <trkpt lat="45.37444" lon="3.34365">
        <ele>432.8</ele>
        <time>2025-10-04T12:44:22Z</time>
      </trkpt>
      <trkpt lat="45.37455" lon="3.3435">
        <ele>433</ele>
        <time>2025-10-04T12:44:27Z</time>
      </trkpt>
      <trkpt lat="45.3748" lon="3.34345">
        <ele>432.8</ele>
        <time>2025-10-04T12:44:34Z</time>
      </trkpt>
      <trkpt lat="45.37505" lon="3.34338">
        <ele>433</ele>
        <time>2025-10-04T12:44:41Z</time>
      </trkpt>
      <trkpt lat="45.37521" lon="3.34331">
        <ele>433.6</ele>
        <time>2025-10-04T12:44:46Z</time>
      </trkpt>
      <trkpt lat="45.37528" lon="3.34331">
        <ele>433.8</ele>
        <time>2025-10-04T12:44:48Z</time>
      </trkpt>
      <trkpt lat="45.37546" lon="3.34328">
        <ele>434.8</ele>
        <time>2025-10-04T12:44:54Z</time>
      </trkpt>
      <trkpt lat="45.37549" lon="3.34326">
        <ele>434.8</ele>
        <time>2025-10-04T12:44:55Z</time>
      </trkpt>
      <trkpt lat="45.37575" lon="3.3432">
        <ele>435.6</ele>
        <time>2025-10-04T12:45:02Z</time>
      </trkpt>
      <trkpt lat="45.37584" lon="3.34315">
        <ele>435.8</ele>
        <time>2025-10-04T12:45:05Z</time>
      </trkpt>
      <trkpt lat="45.37592" lon="3.34303">
        <ele>436.8</ele>
        <time>2025-10-04T12:45:09Z</time>
      </trkpt>
      <trkpt lat="45.37599" lon="3.34289">
        <ele>437.8</ele>
        <time>2025-10-04T12:45:14Z</time>
      </trkpt>
      <trkpt lat="45.376" lon="3.34286">
        <ele>438</ele>
        <time>2025-10-04T12:45:15Z</time>
      </trkpt>
      <trkpt lat="45.37607" lon="3.34271">
        <ele>439.2</ele>
        <time>2025-10-04T12:45:21Z</time>
      </trkpt>
      <trkpt lat="45.37611" lon="3.34256">
        <ele>440.2</ele>
        <time>2025-10-04T12:45:26Z</time>
      </trkpt>
      <trkpt lat="45.37616" lon="3.34246">
        <ele>440.8</ele>
        <time>2025-10-04T12:45:30Z</time>
      </trkpt>
      <trkpt lat="45.37618" lon="3.3424">
        <ele>441.6</ele>
        <time>2025-10-04T12:45:32Z</time>
      </trkpt>
      <trkpt lat="45.37621" lon="3.34232">
        <ele>442.8</ele>
        <time>2025-10-04T12:45:35Z</time>
      </trkpt>
      <trkpt lat="45.37627" lon="3.34212">
        <ele>443.8</ele>
        <time>2025-10-04T12:45:41Z</time>
      </trkpt>
      <trkpt lat="45.37631" lon="3.34203">
        <ele>444.2</ele>
        <time>2025-10-04T12:45:44Z</time>
      </trkpt>
      <trkpt lat="45.37638" lon="3.34183">
        <ele>444.8</ele>
        <time>2025-10-04T12:45:50Z</time>
      </trkpt>
      <trkpt lat="45.37639" lon="3.3418">
        <ele>445</ele>
        <time>2025-10-04T12:45:51Z</time>
      </trkpt>
      <trkpt lat="45.37651" lon="3.34156">
        <ele>445.8</ele>
        <time>2025-10-04T12:45:58Z</time>
      </trkpt>
      <trkpt lat="45.37659" lon="3.34138">
        <ele>446.8</ele>
        <time>2025-10-04T12:46:03Z</time>
      </trkpt>
      <trkpt lat="45.3766" lon="3.34135">
        <ele>447</ele>
        <time>2025-10-04T12:46:04Z</time>
      </trkpt>
      <trkpt lat="45.37664" lon="3.34128">
        <ele>447.6</ele>
        <time>2025-10-04T12:46:06Z</time>
      </trkpt>
      <trkpt lat="45.37667" lon="3.3412">
        <ele>448</ele>
        <time>2025-10-04T12:46:08Z</time>
      </trkpt>
      <trkpt lat="45.37678" lon="3.34094">
        <ele>449</ele>
        <time>2025-10-04T12:46:15Z</time>
      </trkpt>
      <trkpt lat="45.3769" lon="3.34068">
        <ele>450.2</ele>
        <time>2025-10-04T12:46:22Z</time>
      </trkpt>
      <trkpt lat="45.37695" lon="3.34056">
        <ele>450.6</ele>
        <time>2025-10-04T12:46:25Z</time>
      </trkpt>
      <trkpt lat="45.37701" lon="3.34041">
        <ele>451.4</ele>
        <time>2025-10-04T12:46:29Z</time>
      </trkpt>
      <trkpt lat="45.37712" lon="3.34017">
        <ele>452</ele>
        <time>2025-10-04T12:46:35Z</time>
      </trkpt>
      <trkpt lat="45.37721" lon="3.33996">
        <ele>452.4</ele>
        <time>2025-10-04T12:46:40Z</time>
      </trkpt>
      <trkpt lat="45.37728" lon="3.3398">
        <ele>452.8</ele>
        <time>2025-10-04T12:46:44Z</time>
      </trkpt>
      <trkpt lat="45.37731" lon="3.33977">
        <ele>452.6</ele>
        <time>2025-10-04T12:46:45Z</time>
      </trkpt>
      <trkpt lat="45.37737" lon="3.33976">
        <ele>452.6</ele>
        <time>2025-10-04T12:46:47Z</time>
      </trkpt>
      <trkpt lat="45.37744" lon="3.33985">
        <ele>452.6</ele>
        <time>2025-10-04T12:46:50Z</time>
      </trkpt>
      <trkpt lat="45.37767" lon="3.34031">
        <ele>452.4</ele>
        <time>2025-10-04T12:46:59Z</time>
      </trkpt>
      <trkpt lat="45.37791" lon="3.34076">
        <ele>451.8</ele>
        <time>2025-10-04T12:47:07Z</time>
      </trkpt>
      <trkpt lat="45.37794" lon="3.34081">
        <ele>451.8</ele>
        <time>2025-10-04T12:47:08Z</time>
      </trkpt>
      <trkpt lat="45.37806" lon="3.34102">
        <ele>451.6</ele>
        <time>2025-10-04T12:47:12Z</time>
      </trkpt>
      <trkpt lat="45.37809" lon="3.34107">
        <ele>451.6</ele>
        <time>2025-10-04T12:47:13Z</time>
      </trkpt>
      <trkpt lat="45.37812" lon="3.34111">
        <ele>451.4</ele>
        <time>2025-10-04T12:47:14Z</time>
      </trkpt>
      <trkpt lat="45.37816" lon="3.34112">
        <ele>451.4</ele>
        <time>2025-10-04T12:47:15Z</time>
      </trkpt>
      <trkpt lat="45.37824" lon="3.34107">
        <ele>451.2</ele>
        <time>2025-10-04T12:47:17Z</time>
      </trkpt>
      <trkpt lat="45.37832" lon="3.3409">
        <ele>451.6</ele>
        <time>2025-10-04T12:47:20Z</time>
      </trkpt>
      <trkpt lat="45.3784" lon="3.34075">
        <ele>452.2</ele>
        <time>2025-10-04T12:47:23Z</time>
      </trkpt>
      <trkpt lat="45.37845" lon="3.34065">
        <ele>452.6</ele>
        <time>2025-10-04T12:47:25Z</time>
      </trkpt>
      <trkpt lat="45.37851" lon="3.34055">
        <ele>453</ele>
        <time>2025-10-04T12:47:27Z</time>
      </trkpt>
      <trkpt lat="45.37863" lon="3.34034">
        <ele>453.8</ele>
        <time>2025-10-04T12:47:31Z</time>
      </trkpt>
      <trkpt lat="45.37865" lon="3.34029">
        <ele>454</ele>
        <time>2025-10-04T12:47:32Z</time>
      </trkpt>
      <trkpt lat="45.37872" lon="3.3402">
        <ele>454.2</ele>
        <time>2025-10-04T12:47:34Z</time>
      </trkpt>
      <trkpt lat="45.3788" lon="3.34014">
        <ele>454.4</ele>
        <time>2025-10-04T12:47:36Z</time>
      </trkpt>
      <trkpt lat="45.37884" lon="3.34014">
        <ele>454.4</ele>
        <time>2025-10-04T12:47:37Z</time>
      </trkpt>
      <trkpt lat="45.37888" lon="3.34017">
        <ele>454.4</ele>
        <time>2025-10-04T12:47:38Z</time>
      </trkpt>
      <trkpt lat="45.37894" lon="3.34029">
        <ele>454.4</ele>
        <time>2025-10-04T12:47:40Z</time>
      </trkpt>
      <trkpt lat="45.37911" lon="3.34071">
        <ele>453.4</ele>
        <time>2025-10-04T12:47:46Z</time>
      </trkpt>
      <trkpt lat="45.37924" lon="3.34099">
        <ele>453</ele>
        <time>2025-10-04T12:47:50Z</time>
      </trkpt>
      <trkpt lat="45.37933" lon="3.34119">
        <ele>452.8</ele>
        <time>2025-10-04T12:47:53Z</time>
      </trkpt>
      <trkpt lat="45.37935" lon="3.34125">
        <ele>452.8</ele>
        <time>2025-10-04T12:47:54Z</time>
      </trkpt>
      <trkpt lat="45.37965" lon="3.34191">
        <ele>452.4</ele>
        <time>2025-10-04T12:48:03Z</time>
      </trkpt>
      <trkpt lat="45.37994" lon="3.34257">
        <ele>452.2</ele>
        <time>2025-10-04T12:48:12Z</time>
      </trkpt>
      <trkpt lat="45.37998" lon="3.34264">
        <ele>452.2</ele>
        <time>2025-10-04T12:48:13Z</time>
      </trkpt>
      <trkpt lat="45.38014" lon="3.34302">
        <ele>451.8</ele>
        <time>2025-10-04T12:48:18Z</time>
      </trkpt>
      <trkpt lat="45.38032" lon="3.3434">
        <ele>451.8</ele>
        <time>2025-10-04T12:48:23Z</time>
      </trkpt>
      <trkpt lat="45.38064" lon="3.3441">
        <ele>451.2</ele>
        <time>2025-10-04T12:48:32Z</time>
      </trkpt>
      <trkpt lat="45.38066" lon="3.34419">
        <ele>451.2</ele>
        <time>2025-10-04T12:48:33Z</time>
      </trkpt>
      <trkpt lat="45.38072" lon="3.34455">
        <ele>451</ele>
        <time>2025-10-04T12:48:37Z</time>
      </trkpt>
      <trkpt lat="45.3808" lon="3.34525">
        <ele>451.8</ele>
        <time>2025-10-04T12:48:45Z</time>
      </trkpt>
      <trkpt lat="45.38086" lon="3.34558">
        <ele>452.2</ele>
        <time>2025-10-04T12:48:49Z</time>
      </trkpt>
      <trkpt lat="45.38091" lon="3.34573">
        <ele>452.2</ele>
        <time>2025-10-04T12:48:51Z</time>
      </trkpt>
      <trkpt lat="45.38096" lon="3.34588">
        <ele>452</ele>
        <time>2025-10-04T12:48:53Z</time>
      </trkpt>
      <trkpt lat="45.3811" lon="3.34613">
        <ele>452</ele>
        <time>2025-10-04T12:48:57Z</time>
      </trkpt>
      <trkpt lat="45.38138" lon="3.34669">
        <ele>452.4</ele>
        <time>2025-10-04T12:49:06Z</time>
      </trkpt>
      <trkpt lat="45.38151" lon="3.34697">
        <ele>453.2</ele>
        <time>2025-10-04T12:49:11Z</time>
      </trkpt>
      <trkpt lat="45.38156" lon="3.34707">
        <ele>453.6</ele>
        <time>2025-10-04T12:49:13Z</time>
      </trkpt>
      <trkpt lat="45.38166" lon="3.34727">
        <ele>453.8</ele>
        <time>2025-10-04T12:49:17Z</time>
      </trkpt>
      <trkpt lat="45.38175" lon="3.34749">
        <ele>454</ele>
        <time>2025-10-04T12:49:21Z</time>
      </trkpt>
      <trkpt lat="45.38179" lon="3.34761">
        <ele>454.4</ele>
        <time>2025-10-04T12:49:23Z</time>
      </trkpt>
      <trkpt lat="45.38191" lon="3.34789">
        <ele>454.6</ele>
        <time>2025-10-04T12:49:28Z</time>
      </trkpt>
      <trkpt lat="45.3821" lon="3.34836">
        <ele>455.2</ele>
        <time>2025-10-04T12:49:36Z</time>
      </trkpt>
      <trkpt lat="45.38212" lon="3.34841">
        <ele>455.4</ele>
        <time>2025-10-04T12:49:37Z</time>
      </trkpt>
      <trkpt lat="45.38224" lon="3.34863">
        <ele>455.6</ele>
        <time>2025-10-04T12:49:41Z</time>
      </trkpt>
      <trkpt lat="45.38226" lon="3.34868">
        <ele>455.6</ele>
        <time>2025-10-04T12:49:42Z</time>
      </trkpt>
      <trkpt lat="45.38232" lon="3.34876">
        <ele>456</ele>
        <time>2025-10-04T12:49:44Z</time>
      </trkpt>
      <trkpt lat="45.38248" lon="3.34898">
        <ele>456.6</ele>
        <time>2025-10-04T12:49:49Z</time>
      </trkpt>
      <trkpt lat="45.38264" lon="3.34922">
        <ele>457.6</ele>
        <time>2025-10-04T12:49:54Z</time>
      </trkpt>
      <trkpt lat="45.3827" lon="3.34931">
        <ele>457.6</ele>
        <time>2025-10-04T12:49:56Z</time>
      </trkpt>
      <trkpt lat="45.38297" lon="3.34984">
        <ele>457.4</ele>
        <time>2025-10-04T12:50:05Z</time>
      </trkpt>
      <trkpt lat="45.383" lon="3.34991">
        <ele>457.4</ele>
        <time>2025-10-04T12:50:06Z</time>
      </trkpt>
      <trkpt lat="45.3831" lon="3.35017">
        <ele>456.8</ele>
        <time>2025-10-04T12:50:10Z</time>
      </trkpt>
      <trkpt lat="45.38313" lon="3.35023">
        <ele>456.6</ele>
        <time>2025-10-04T12:50:11Z</time>
      </trkpt>
      <trkpt lat="45.38317" lon="3.3503">
        <ele>456.6</ele>
        <time>2025-10-04T12:50:12Z</time>
      </trkpt>
      <trkpt lat="45.38326" lon="3.3505">
        <ele>456</ele>
        <time>2025-10-04T12:50:15Z</time>
      </trkpt>
      <trkpt lat="45.38333" lon="3.35063">
        <ele>455.8</ele>
        <time>2025-10-04T12:50:17Z</time>
      </trkpt>
      <trkpt lat="45.38343" lon="3.35081">
        <ele>455.6</ele>
        <time>2025-10-04T12:50:20Z</time>
      </trkpt>
      <trkpt lat="45.38347" lon="3.35087">
        <ele>455.4</ele>
        <time>2025-10-04T12:50:21Z</time>
      </trkpt>
      <trkpt lat="45.38359" lon="3.35105">
        <ele>455.4</ele>
        <time>2025-10-04T12:50:24Z</time>
      </trkpt>
      <trkpt lat="45.38376" lon="3.35128">
        <ele>454.6</ele>
        <time>2025-10-04T12:50:28Z</time>
      </trkpt>
      <trkpt lat="45.3838" lon="3.35133">
        <ele>454.6</ele>
        <time>2025-10-04T12:50:29Z</time>
      </trkpt>
      <trkpt lat="45.38385" lon="3.35138">
        <ele>454.4</ele>
        <time>2025-10-04T12:50:30Z</time>
      </trkpt>
      <trkpt lat="45.3839" lon="3.35142">
        <ele>454.2</ele>
        <time>2025-10-04T12:50:31Z</time>
      </trkpt>
      <trkpt lat="45.38413" lon="3.35155">
        <ele>454</ele>
        <time>2025-10-04T12:50:35Z</time>
      </trkpt>
      <trkpt lat="45.38431" lon="3.35164">
        <ele>453.8</ele>
        <time>2025-10-04T12:50:38Z</time>
      </trkpt>
      <trkpt lat="45.38465" lon="3.35182">
        <ele>453</ele>
        <time>2025-10-04T12:50:43Z</time>
      </trkpt>
      <trkpt lat="45.38471" lon="3.35187">
        <ele>453</ele>
        <time>2025-10-04T12:50:44Z</time>
      </trkpt>
      <trkpt lat="45.38485" lon="3.35198">
        <ele>452</ele>
        <time>2025-10-04T12:50:46Z</time>
      </trkpt>
      <trkpt lat="45.38507" lon="3.35213">
        <ele>451</ele>
        <time>2025-10-04T12:50:49Z</time>
      </trkpt>
      <trkpt lat="45.38514" lon="3.35218">
        <ele>450.6</ele>
        <time>2025-10-04T12:50:50Z</time>
      </trkpt>
      <trkpt lat="45.38521" lon="3.35224">
        <ele>450.2</ele>
        <time>2025-10-04T12:50:51Z</time>
      </trkpt>
      <trkpt lat="45.38541" lon="3.3524">
        <ele>448.8</ele>
        <time>2025-10-04T12:50:54Z</time>
      </trkpt>
      <trkpt lat="45.3855" lon="3.35245">
        <ele>448</ele>
        <time>2025-10-04T12:50:56Z</time>
      </trkpt>
      <trkpt lat="45.38555" lon="3.35245">
        <ele>447.2</ele>
        <time>2025-10-04T12:50:57Z</time>
      </trkpt>
      <trkpt lat="45.38561" lon="3.35245">
        <ele>447</ele>
        <time>2025-10-04T12:50:58Z</time>
      </trkpt>
      <trkpt lat="45.38571" lon="3.3524">
        <ele>446</ele>
        <time>2025-10-04T12:51:00Z</time>
      </trkpt>
      <trkpt lat="45.38575" lon="3.35239">
        <ele>445.6</ele>
        <time>2025-10-04T12:51:01Z</time>
      </trkpt>
      <trkpt lat="45.38582" lon="3.35241">
        <ele>444.6</ele>
        <time>2025-10-04T12:51:03Z</time>
      </trkpt>
      <trkpt lat="45.38586" lon="3.35245">
        <ele>444</ele>
        <time>2025-10-04T12:51:04Z</time>
      </trkpt>
      <trkpt lat="45.38591" lon="3.35251">
        <ele>443.6</ele>
        <time>2025-10-04T12:51:06Z</time>
      </trkpt>
      <trkpt lat="45.38598" lon="3.35258">
        <ele>442.6</ele>
        <time>2025-10-04T12:51:09Z</time>
      </trkpt>
      <trkpt lat="45.386" lon="3.35262">
        <ele>441.4</ele>
        <time>2025-10-04T12:51:10Z</time>
      </trkpt>
      <trkpt lat="45.38604" lon="3.35269">
        <ele>440</ele>
        <time>2025-10-04T12:51:12Z</time>
      </trkpt>
      <trkpt lat="45.38606" lon="3.35269">
        <ele>438.8</ele>
        <time>2025-10-04T12:51:13Z</time>
      </trkpt>
      <trkpt lat="45.38615" lon="3.35265">
        <ele>437.6</ele>
        <time>2025-10-04T12:51:15Z</time>
      </trkpt>
      <trkpt lat="45.38627" lon="3.35261">
        <ele>437</ele>
        <time>2025-10-04T12:51:17Z</time>
      </trkpt>
      <trkpt lat="45.38642" lon="3.35256">
        <ele>436</ele>
        <time>2025-10-04T12:51:19Z</time>
      </trkpt>
      <trkpt lat="45.38659" lon="3.35251">
        <ele>434.8</ele>
        <time>2025-10-04T12:51:21Z</time>
      </trkpt>
      <trkpt lat="45.38668" lon="3.35248">
        <ele>434</ele>
        <time>2025-10-04T12:51:22Z</time>
      </trkpt>
      <trkpt lat="45.38678" lon="3.35243">
        <ele>433.4</ele>
        <time>2025-10-04T12:51:23Z</time>
      </trkpt>
      <trkpt lat="45.38697" lon="3.35232">
        <ele>432.2</ele>
        <time>2025-10-04T12:51:25Z</time>
      </trkpt>
      <trkpt lat="45.38724" lon="3.35212">
        <ele>430</ele>
        <time>2025-10-04T12:51:28Z</time>
      </trkpt>
      <trkpt lat="45.38731" lon="3.35208">
        <ele>429.6</ele>
        <time>2025-10-04T12:51:29Z</time>
      </trkpt>
      <trkpt lat="45.38737" lon="3.35206">
        <ele>428.2</ele>
        <time>2025-10-04T12:51:30Z</time>
      </trkpt>
      <trkpt lat="45.38741" lon="3.35207">
        <ele>426.6</ele>
        <time>2025-10-04T12:51:31Z</time>
      </trkpt>
      <trkpt lat="45.38743" lon="3.35208">
        <ele>426</ele>
        <time>2025-10-04T12:51:32Z</time>
      </trkpt>
      <trkpt lat="45.38744" lon="3.3521">
        <ele>425</ele>
        <time>2025-10-04T12:51:33Z</time>
      </trkpt>
      <trkpt lat="45.38742" lon="3.35219">
        <ele>423.6</ele>
        <time>2025-10-04T12:51:35Z</time>
      </trkpt>
      <trkpt lat="45.38736" lon="3.35244">
        <ele>422.4</ele>
        <time>2025-10-04T12:51:39Z</time>
      </trkpt>
      <trkpt lat="45.38733" lon="3.35258">
        <ele>422</ele>
        <time>2025-10-04T12:51:41Z</time>
      </trkpt>
      <trkpt lat="45.3872" lon="3.35322">
        <ele>421.4</ele>
        <time>2025-10-04T12:51:50Z</time>
      </trkpt>
      <trkpt lat="45.38718" lon="3.35335">
        <ele>421.4</ele>
        <time>2025-10-04T12:51:52Z</time>
      </trkpt>
      <trkpt lat="45.3871" lon="3.35368">
        <ele>421.2</ele>
        <time>2025-10-04T12:51:57Z</time>
      </trkpt>
      <trkpt lat="45.38687" lon="3.3543">
        <ele>420.8</ele>
        <time>2025-10-04T12:52:06Z</time>
      </trkpt>
      <trkpt lat="45.38681" lon="3.35443">
        <ele>420.6</ele>
        <time>2025-10-04T12:52:08Z</time>
      </trkpt>
      <trkpt lat="45.38669" lon="3.35468">
        <ele>420.4</ele>
        <time>2025-10-04T12:52:12Z</time>
      </trkpt>
      <trkpt lat="45.38666" lon="3.35474">
        <ele>420.2</ele>
        <time>2025-10-04T12:52:13Z</time>
      </trkpt>
      <trkpt lat="45.38652" lon="3.35505">
        <ele>419.8</ele>
        <time>2025-10-04T12:52:18Z</time>
      </trkpt>
      <trkpt lat="45.38645" lon="3.35518">
        <ele>419.6</ele>
        <time>2025-10-04T12:52:20Z</time>
      </trkpt>
      <trkpt lat="45.38631" lon="3.35546">
        <ele>419.2</ele>
        <time>2025-10-04T12:52:24Z</time>
      </trkpt>
      <trkpt lat="45.38622" lon="3.35559">
        <ele>419.2</ele>
        <time>2025-10-04T12:52:26Z</time>
      </trkpt>
      <trkpt lat="45.38617" lon="3.35564">
        <ele>419</ele>
        <time>2025-10-04T12:52:27Z</time>
      </trkpt>
      <trkpt lat="45.38607" lon="3.35573">
        <ele>418.8</ele>
        <time>2025-10-04T12:52:29Z</time>
      </trkpt>
      <trkpt lat="45.38587" lon="3.35593">
        <ele>418.2</ele>
        <time>2025-10-04T12:52:33Z</time>
      </trkpt>
      <trkpt lat="45.38582" lon="3.35598">
        <ele>418</ele>
        <time>2025-10-04T12:52:34Z</time>
      </trkpt>
      <trkpt lat="45.38571" lon="3.35609">
        <ele>417.6</ele>
        <time>2025-10-04T12:52:36Z</time>
      </trkpt>
      <trkpt lat="45.38557" lon="3.35628">
        <ele>417.4</ele>
        <time>2025-10-04T12:52:39Z</time>
      </trkpt>
      <trkpt lat="45.38556" lon="3.35636">
        <ele>417.4</ele>
        <time>2025-10-04T12:52:40Z</time>
      </trkpt>
      <trkpt lat="45.38561" lon="3.35653">
        <ele>417</ele>
        <time>2025-10-04T12:52:42Z</time>
      </trkpt>
      <trkpt lat="45.38565" lon="3.35669">
        <ele>417</ele>
        <time>2025-10-04T12:52:44Z</time>
      </trkpt>
      <trkpt lat="45.38586" lon="3.35736">
        <ele>417.2</ele>
        <time>2025-10-04T12:52:52Z</time>
      </trkpt>
      <trkpt lat="45.38599" lon="3.35778">
        <ele>417</ele>
        <time>2025-10-04T12:52:57Z</time>
      </trkpt>
      <trkpt lat="45.38602" lon="3.35787">
        <ele>417</ele>
        <time>2025-10-04T12:52:58Z</time>
      </trkpt>
      <trkpt lat="45.38616" lon="3.35839">
        <ele>416.8</ele>
        <time>2025-10-04T12:53:04Z</time>
      </trkpt>
      <trkpt lat="45.38629" lon="3.35861">
        <ele>407</ele>
        <time>2025-10-04T12:53:11Z</time>
      </trkpt>
      <trkpt lat="45.38639" lon="3.35857">
        <ele>408.1</ele>
        <time>2025-10-04T12:53:14Z</time>
      </trkpt>
      <trkpt lat="45.38646" lon="3.35852">
        <ele>407.8</ele>
        <time>2025-10-04T12:53:15Z</time>
      </trkpt>
      <trkpt lat="45.38652" lon="3.35849">
        <ele>407.3</ele>
      </trkpt>
      <trkpt lat="45.38657" lon="3.3585">
        <ele>407</ele>
      </trkpt>
      <trkpt lat="45.38675" lon="3.35861">
        <ele>407</ele>
      </trkpt>
      <trkpt lat="45.38717" lon="3.3589">
        <ele>407.6</ele>
      </trkpt>
      <trkpt lat="45.38742" lon="3.35912">
        <ele>407.5</ele>
      </trkpt>
      <trkpt lat="45.38779" lon="3.3595">
        <ele>408.3</ele>
      </trkpt>
      <trkpt lat="45.3885" lon="3.36021">
        <ele>409.9</ele>
      </trkpt>
      <trkpt lat="45.38856" lon="3.36024">
        <ele>410</ele>
      </trkpt>
      <trkpt lat="45.38868" lon="3.36018">
        <ele>410.7</ele>
      </trkpt>
      <trkpt lat="45.38876" lon="3.36009">
        <ele>411.6</ele>
      </trkpt>
      <trkpt lat="45.38888" lon="3.35975">
        <ele>412.8</ele>
      </trkpt>
      <trkpt lat="45.3891" lon="3.35913">
        <ele>416.5</ele>
      </trkpt>
      <trkpt lat="45.38929" lon="3.35853">
        <ele>418.6</ele>
      </trkpt>
      <trkpt lat="45.38948" lon="3.35783">
        <ele>417.5</ele>
      </trkpt>
      <trkpt lat="45.38961" lon="3.35711">
        <ele>412.2</ele>
      </trkpt>
      <trkpt lat="45.38966" lon="3.35667">
        <ele>410.5</ele>
      </trkpt>
      <trkpt lat="45.38972" lon="3.35641">
        <ele>412</ele>
      </trkpt>
      <trkpt lat="45.38979" lon="3.35623">
        <ele>416.5</ele>
      </trkpt>
      <trkpt lat="45.38984" lon="3.35594">
        <ele>419.4</ele>
      </trkpt>
      <trkpt lat="45.38992" lon="3.35568">
        <ele>420.3</ele>
      </trkpt>
      <trkpt lat="45.38998" lon="3.35545">
        <ele>420.6</ele>
      </trkpt>
      <trkpt lat="45.39002" lon="3.35525">
        <ele>419.8</ele>
      </trkpt>
      <trkpt lat="45.39004" lon="3.3552">
        <ele>421.1</ele>
      </trkpt>
      <trkpt lat="45.39008" lon="3.35521">
        <ele>423.9</ele>
      </trkpt>
      <trkpt lat="45.39009" lon="3.35531">
        <ele>425.1</ele>
      </trkpt>
      <trkpt lat="45.39004" lon="3.35556">
        <ele>424.9</ele>
      </trkpt>
      <trkpt lat="45.38994" lon="3.35581">
        <ele>424.8</ele>
      </trkpt>
      <trkpt lat="45.38988" lon="3.35611">
        <ele>424.4</ele>
      </trkpt>
      <trkpt lat="45.38989" lon="3.35627">
        <ele>422.6</ele>
      </trkpt>
      <trkpt lat="45.38994" lon="3.35639">
        <ele>423</ele>
      </trkpt>
      <trkpt lat="45.39006" lon="3.35639">
        <ele>426.2</ele>
      </trkpt>
      <trkpt lat="45.39015" lon="3.35635">
        <ele>427.6</ele>
      </trkpt>
      <trkpt lat="45.39031" lon="3.35627">
        <ele>431.3</ele>
      </trkpt>
      <trkpt lat="45.39046" lon="3.35621">
        <ele>433.5</ele>
      </trkpt>
      <trkpt lat="45.39059" lon="3.35612">
        <ele>435</ele>
      </trkpt>
      <trkpt lat="45.39066" lon="3.35599">
        <ele>438.4</ele>
      </trkpt>
      <trkpt lat="45.3907" lon="3.35574">
        <ele>440.7</ele>
      </trkpt>
      <trkpt lat="45.39076" lon="3.35535">
        <ele>440.9</ele>
      </trkpt>
      <trkpt lat="45.39084" lon="3.3551">
        <ele>440.4</ele>
      </trkpt>
      <trkpt lat="45.39099" lon="3.35483">
        <ele>440.3</ele>
      </trkpt>
      <trkpt lat="45.39111" lon="3.35463">
        <ele>440</ele>
      </trkpt>
      <trkpt lat="45.39126" lon="3.35446">
        <ele>439.8</ele>
      </trkpt>
      <trkpt lat="45.39135" lon="3.35435">
        <ele>440</ele>
      </trkpt>
      <trkpt lat="45.39151" lon="3.3541">
        <ele>439.9</ele>
      </trkpt>
      <trkpt lat="45.3917" lon="3.35381">
        <ele>439.7</ele>
      </trkpt>
      <trkpt lat="45.392" lon="3.35337">
        <ele>438.7</ele>
      </trkpt>
      <trkpt lat="45.39221" lon="3.35304">
        <ele>438.8</ele>
      </trkpt>
      <trkpt lat="45.39248" lon="3.35268">
        <ele>439.1</ele>
      </trkpt>
      <trkpt lat="45.39291" lon="3.35218">
        <ele>438.7</ele>
      </trkpt>
      <trkpt lat="45.3931" lon="3.35195">
        <ele>438.4</ele>
      </trkpt>
      <trkpt lat="45.39334" lon="3.35164">
        <ele>437.9</ele>
      </trkpt>
      <trkpt lat="45.39353" lon="3.35132">
        <ele>438.2</ele>
      </trkpt>
      <trkpt lat="45.39364" lon="3.35109">
        <ele>438</ele>
      </trkpt>
      <trkpt lat="45.39375" lon="3.35092">
        <ele>437.8</ele>
      </trkpt>
      <trkpt lat="45.39403" lon="3.35055">
        <ele>437.5</ele>
      </trkpt>
      <trkpt lat="45.39435" lon="3.35013">
        <ele>436.4</ele>
      </trkpt>
      <trkpt lat="45.39462" lon="3.34981">
        <ele>435.1</ele>
      </trkpt>
      <trkpt lat="45.39485" lon="3.3496">
        <ele>434.6</ele>
      </trkpt>
      <trkpt lat="45.39499" lon="3.34953">
        <ele>434.3</ele>
      </trkpt>
      <trkpt lat="45.39521" lon="3.34948">
        <ele>433.3</ele>
      </trkpt>
      <trkpt lat="45.39541" lon="3.34948">
        <ele>430.9</ele>
      </trkpt>
      <trkpt lat="45.39561" lon="3.34951">
        <ele>427.5</ele>
      </trkpt>
      <trkpt lat="45.39576" lon="3.34953">
        <ele>424.6</ele>
      </trkpt>
      <trkpt lat="45.39599" lon="3.34949">
        <ele>419.8</ele>
      </trkpt>
      <trkpt lat="45.39619" lon="3.34945">
        <ele>417</ele>
      </trkpt>
      <trkpt lat="45.39634" lon="3.34941">
        <ele>415.5</ele>
      </trkpt>
      <trkpt lat="45.39641" lon="3.34936">
        <ele>414.7</ele>
      </trkpt>
      <trkpt lat="45.39646" lon="3.34929">
        <ele>413.4</ele>
      </trkpt>
      <trkpt lat="45.3965" lon="3.34923">
        <ele>412</ele>
      </trkpt>
      <trkpt lat="45.39655" lon="3.34907">
        <ele>409.9</ele>
      </trkpt>
      <trkpt lat="45.39687" lon="3.34851">
        <ele>408.6</ele>
      </trkpt>
      <trkpt lat="45.39694" lon="3.34846">
        <ele>408.5</ele>
      </trkpt>
      <trkpt lat="45.39699" lon="3.34845">
        <ele>408.4</ele>
      </trkpt>
      <trkpt lat="45.39704" lon="3.34843">
        <ele>408.4</ele>
      </trkpt>
      <trkpt lat="45.39707" lon="3.3484">
        <ele>408.2</ele>
      </trkpt>
      <trkpt lat="45.39711" lon="3.34829">
        <ele>408.1</ele>
      </trkpt>
      <trkpt lat="45.39715" lon="3.34829">
        <ele>408.1</ele>
      </trkpt>
      <trkpt lat="45.39734" lon="3.34837">
        <ele>408.5</ele>
      </trkpt>
      <trkpt lat="45.39755" lon="3.34845">
        <ele>409.3</ele>
      </trkpt>
      <trkpt lat="45.39771" lon="3.34859">
        <ele>409.8</ele>
      </trkpt>
      <trkpt lat="45.3979" lon="3.34895">
        <ele>409.9</ele>
      </trkpt>
      <trkpt lat="45.39807" lon="3.3494">
        <ele>410</ele>
      </trkpt>
      <trkpt lat="45.39811" lon="3.34979">
        <ele>410.2</ele>
      </trkpt>
      <trkpt lat="45.39812" lon="3.35048">
        <ele>410.2</ele>
      </trkpt>
      <trkpt lat="45.3981" lon="3.35161">
        <ele>412</ele>
      </trkpt>
      <trkpt lat="45.39823" lon="3.35218">
        <ele>412.2</ele>
      </trkpt>
      <trkpt lat="45.39836" lon="3.35277">
        <ele>414</ele>
      </trkpt>
      <trkpt lat="45.39844" lon="3.35318">
        <ele>414</ele>
      </trkpt>
      <trkpt lat="45.39844" lon="3.35347">
        <ele>413.7</ele>
      </trkpt>
      <trkpt lat="45.39847" lon="3.35373">
        <ele>414.1</ele>
      </trkpt>
      <trkpt lat="45.39857" lon="3.35392">
        <ele>415.2</ele>
      </trkpt>
      <trkpt lat="45.39873" lon="3.35427">
        <ele>414.8</ele>
      </trkpt>
      <trkpt lat="45.39878" lon="3.35453">
        <ele>414.9</ele>
      </trkpt>
      <trkpt lat="45.39883" lon="3.35466">
        <ele>415.6</ele>
      </trkpt>
      <trkpt lat="45.39893" lon="3.35471">
        <ele>416</ele>
      </trkpt>
      <trkpt lat="45.39914" lon="3.35481">
        <ele>415.9</ele>
      </trkpt>
      <trkpt lat="45.39932" lon="3.35492">
        <ele>418.3</ele>
      </trkpt>
      <trkpt lat="45.39945" lon="3.35508">
        <ele>418.6</ele>
      </trkpt>
      <trkpt lat="45.39953" lon="3.35526">
        <ele>419.4</ele>
      </trkpt>
      <trkpt lat="45.39964" lon="3.35531">
        <ele>421.5</ele>
        <time>2025-10-04T14:50:27Z</time>
      </trkpt>
      <trkpt lat="45.39969" lon="3.35515">
        <ele>412.8</ele>
        <time>2025-10-04T14:50:31Z</time>
      </trkpt>
      <trkpt lat="45.39962" lon="3.35497">
        <ele>413</ele>
        <time>2025-10-04T14:50:36Z</time>
      </trkpt>
      <trkpt lat="45.39957" lon="3.35486">
        <ele>413.6</ele>
        <time>2025-10-04T14:50:40Z</time>
      </trkpt>
      <trkpt lat="45.39955" lon="3.35482">
        <ele>413.6</ele>
        <time>2025-10-04T14:50:41Z</time>
      </trkpt>
      <trkpt lat="45.39946" lon="3.35465">
        <ele>414.2</ele>
        <time>2025-10-04T14:50:47Z</time>
      </trkpt>
      <trkpt lat="45.39948" lon="3.35456">
        <ele>414.4</ele>
        <time>2025-10-04T14:50:50Z</time>
      </trkpt>
      <trkpt lat="45.3995" lon="3.35446">
        <ele>414.6</ele>
        <time>2025-10-04T14:50:53Z</time>
      </trkpt>
      <trkpt lat="45.39949" lon="3.35425">
        <ele>415.4</ele>
        <time>2025-10-04T14:51:00Z</time>
      </trkpt>
      <trkpt lat="45.3995" lon="3.35422">
        <ele>415.6</ele>
        <time>2025-10-04T14:51:01Z</time>
      </trkpt>
      <trkpt lat="45.39956" lon="3.35399">
        <ele>416.6</ele>
        <time>2025-10-04T14:51:09Z</time>
      </trkpt>
      <trkpt lat="45.3996" lon="3.35381">
        <ele>417.6</ele>
        <time>2025-10-04T14:51:16Z</time>
      </trkpt>
      <trkpt lat="45.39961" lon="3.35379">
        <ele>417.8</ele>
        <time>2025-10-04T14:51:17Z</time>
      </trkpt>
      <trkpt lat="45.39965" lon="3.3536">
        <ele>418.8</ele>
        <time>2025-10-04T14:51:24Z</time>
      </trkpt>
      <trkpt lat="45.39966" lon="3.35354">
        <ele>419.2</ele>
        <time>2025-10-04T14:51:26Z</time>
      </trkpt>
      <trkpt lat="45.39969" lon="3.35336">
        <ele>419.8</ele>
        <time>2025-10-04T14:51:33Z</time>
      </trkpt>
      <trkpt lat="45.39971" lon="3.35317">
        <ele>420.8</ele>
        <time>2025-10-04T14:51:40Z</time>
      </trkpt>
      <trkpt lat="45.39971" lon="3.35314">
        <ele>420.8</ele>
        <time>2025-10-04T14:51:41Z</time>
      </trkpt>
      <trkpt lat="45.39971" lon="3.35293">
        <ele>421.6</ele>
        <time>2025-10-04T14:51:47Z</time>
      </trkpt>
      <trkpt lat="45.39975" lon="3.35282">
        <ele>422</ele>
        <time>2025-10-04T14:51:50Z</time>
      </trkpt>
      <trkpt lat="45.39977" lon="3.35268">
        <ele>422.4</ele>
        <time>2025-10-04T14:51:54Z</time>
      </trkpt>
      <trkpt lat="45.39978" lon="3.35251">
        <ele>423</ele>
        <time>2025-10-04T14:51:59Z</time>
      </trkpt>
      <trkpt lat="45.39979" lon="3.35248">
        <ele>423.2</ele>
        <time>2025-10-04T14:52:00Z</time>
      </trkpt>
      <trkpt lat="45.39983" lon="3.35234">
        <ele>424.2</ele>
        <time>2025-10-04T14:52:05Z</time>
      </trkpt>
      <trkpt lat="45.39985" lon="3.35228">
        <ele>424.4</ele>
        <time>2025-10-04T14:52:07Z</time>
      </trkpt>
      <trkpt lat="45.39991" lon="3.35211">
        <ele>425.2</ele>
        <time>2025-10-04T14:52:13Z</time>
      </trkpt>
      <trkpt lat="45.39997" lon="3.35191">
        <ele>426.4</ele>
        <time>2025-10-04T14:52:20Z</time>
      </trkpt>
      <trkpt lat="45.39998" lon="3.35188">
        <ele>426.4</ele>
        <time>2025-10-04T14:52:21Z</time>
      </trkpt>
      <trkpt lat="45.40002" lon="3.35166">
        <ele>427.4</ele>
        <time>2025-10-04T14:52:28Z</time>
      </trkpt>
      <trkpt lat="45.40002" lon="3.35163">
        <ele>427.6</ele>
        <time>2025-10-04T14:52:29Z</time>
      </trkpt>
      <trkpt lat="45.40005" lon="3.35145">
        <ele>428.4</ele>
        <time>2025-10-04T14:52:36Z</time>
      </trkpt>
      <trkpt lat="45.40006" lon="3.35142">
        <ele>428.4</ele>
        <time>2025-10-04T14:52:37Z</time>
      </trkpt>
      <trkpt lat="45.40009" lon="3.35125">
        <ele>429.2</ele>
        <time>2025-10-04T14:52:43Z</time>
      </trkpt>
      <trkpt lat="45.40011" lon="3.35118">
        <ele>429.4</ele>
        <time>2025-10-04T14:52:46Z</time>
      </trkpt>
      <trkpt lat="45.40014" lon="3.35099">
        <ele>430.6</ele>
        <time>2025-10-04T14:52:52Z</time>
      </trkpt>
      <trkpt lat="45.40014" lon="3.35096">
        <ele>430.6</ele>
        <time>2025-10-04T14:52:53Z</time>
      </trkpt>
      <trkpt lat="45.40018" lon="3.35079">
        <ele>431.4</ele>
        <time>2025-10-04T14:52:59Z</time>
      </trkpt>
      <trkpt lat="45.40018" lon="3.35076">
        <ele>431.6</ele>
        <time>2025-10-04T14:53:00Z</time>
      </trkpt>
      <trkpt lat="45.40021" lon="3.35057">
        <ele>432.8</ele>
        <time>2025-10-04T14:53:06Z</time>
      </trkpt>
      <trkpt lat="45.4002" lon="3.35054">
        <ele>433</ele>
        <time>2025-10-04T14:53:07Z</time>
      </trkpt>
      <trkpt lat="45.40019" lon="3.35038">
        <ele>434</ele>
        <time>2025-10-04T14:53:12Z</time>
      </trkpt>
      <trkpt lat="45.40017" lon="3.35023">
        <ele>434.8</ele>
        <time>2025-10-04T14:53:17Z</time>
      </trkpt>
      <trkpt lat="45.40016" lon="3.35018">
        <ele>435</ele>
        <time>2025-10-04T14:53:19Z</time>
      </trkpt>
      <trkpt lat="45.40011" lon="3.35004">
        <ele>435.4</ele>
        <time>2025-10-04T14:53:24Z</time>
      </trkpt>
      <trkpt lat="45.40007" lon="3.34987">
        <ele>436.2</ele>
        <time>2025-10-04T14:53:30Z</time>
      </trkpt>
      <trkpt lat="45.40006" lon="3.34979">
        <ele>436.6</ele>
        <time>2025-10-04T14:53:33Z</time>
      </trkpt>
      <trkpt lat="45.40005" lon="3.34976">
        <ele>436.8</ele>
        <time>2025-10-04T14:53:34Z</time>
      </trkpt>
      <trkpt lat="45.40005" lon="3.3497">
        <ele>437.4</ele>
        <time>2025-10-04T14:53:36Z</time>
      </trkpt>
      <trkpt lat="45.4001" lon="3.34946">
        <ele>438.2</ele>
        <time>2025-10-04T14:53:44Z</time>
      </trkpt>
      <trkpt lat="45.40013" lon="3.34939">
        <ele>438.6</ele>
        <time>2025-10-04T14:53:47Z</time>
      </trkpt>
      <trkpt lat="45.40018" lon="3.34929">
        <ele>439</ele>
        <time>2025-10-04T14:53:51Z</time>
      </trkpt>
      <trkpt lat="45.40026" lon="3.34919">
        <ele>439.8</ele>
        <time>2025-10-04T14:53:56Z</time>
      </trkpt>
      <trkpt lat="45.40028" lon="3.34914">
        <ele>440.4</ele>
        <time>2025-10-04T14:53:58Z</time>
      </trkpt>
      <trkpt lat="45.40035" lon="3.34904">
        <ele>441</ele>
        <time>2025-10-04T14:54:03Z</time>
      </trkpt>
      <trkpt lat="45.40041" lon="3.34896">
        <ele>441.4</ele>
        <time>2025-10-04T14:54:07Z</time>
      </trkpt>
      <trkpt lat="45.4005" lon="3.34884">
        <ele>442</ele>
        <time>2025-10-04T14:54:13Z</time>
      </trkpt>
      <trkpt lat="45.40056" lon="3.34879">
        <ele>442.2</ele>
        <time>2025-10-04T14:54:16Z</time>
      </trkpt>
      <trkpt lat="45.40063" lon="3.34873">
        <ele>443</ele>
        <time>2025-10-04T14:54:20Z</time>
      </trkpt>
      <trkpt lat="45.4007" lon="3.34867">
        <ele>443.4</ele>
        <time>2025-10-04T14:54:24Z</time>
      </trkpt>
      <trkpt lat="45.40079" lon="3.34861">
        <ele>444</ele>
        <time>2025-10-04T14:54:29Z</time>
      </trkpt>
      <trkpt lat="45.40084" lon="3.34859">
        <ele>444.2</ele>
        <time>2025-10-04T14:54:31Z</time>
      </trkpt>
      <trkpt lat="45.40085" lon="3.34857">
        <ele>444.4</ele>
        <time>2025-10-04T14:54:32Z</time>
      </trkpt>
      <trkpt lat="45.40085" lon="3.34856">
        <ele>444.6</ele>
        <time>2025-10-04T14:54:34Z</time>
      </trkpt>
      <trkpt lat="45.40082" lon="3.34856">
        <ele>444.8</ele>
        <time>2025-10-04T14:54:36Z</time>
      </trkpt>
      <trkpt lat="45.4008" lon="3.34859">
        <ele>444.8</ele>
        <time>2025-10-04T14:54:38Z</time>
      </trkpt>
      <trkpt lat="45.40082" lon="3.34859">
        <ele>445</ele>
        <time>2025-10-04T14:59:07Z</time>
      </trkpt>
      <trkpt lat="45.40084" lon="3.34858">
        <ele>445</ele>
        <time>2025-10-04T14:59:08Z</time>
      </trkpt>
      <trkpt lat="45.40087" lon="3.34856">
        <ele>445</ele>
        <time>2025-10-04T14:59:10Z</time>
      </trkpt>
      <trkpt lat="45.40096" lon="3.3485">
        <ele>445.4</ele>
        <time>2025-10-04T14:59:14Z</time>
      </trkpt>
      <trkpt lat="45.40098" lon="3.34849">
        <ele>445.4</ele>
        <time>2025-10-04T14:59:15Z</time>
      </trkpt>
      <trkpt lat="45.40105" lon="3.34845">
        <ele>445.8</ele>
        <time>2025-10-04T14:59:18Z</time>
      </trkpt>
      <trkpt lat="45.40117" lon="3.34838">
        <ele>446.4</ele>
        <time>2025-10-04T14:59:24Z</time>
      </trkpt>
      <trkpt lat="45.40121" lon="3.34835">
        <ele>446.6</ele>
        <time>2025-10-04T14:59:26Z</time>
      </trkpt>
      <trkpt lat="45.40129" lon="3.3483">
        <ele>447.6</ele>
        <time>2025-10-04T14:59:30Z</time>
      </trkpt>
      <trkpt lat="45.40135" lon="3.34827">
        <ele>448</ele>
        <time>2025-10-04T14:59:33Z</time>
      </trkpt>
      <trkpt lat="45.40143" lon="3.34823">
        <ele>448.6</ele>
        <time>2025-10-04T14:59:37Z</time>
      </trkpt>
      <trkpt lat="45.40153" lon="3.34817">
        <ele>449.2</ele>
        <time>2025-10-04T14:59:42Z</time>
      </trkpt>
      <trkpt lat="45.40161" lon="3.34808">
        <ele>459</ele>
      </trkpt>
      <trkpt lat="45.40166" lon="3.34806">
        <ele>459</ele>
      </trkpt>
      <trkpt lat="45.40168" lon="3.34802">
        <ele>459</ele>
      </trkpt>
      <trkpt lat="45.40167" lon="3.34786">
        <ele>458.3</ele>
      </trkpt>
      <trkpt lat="45.40171" lon="3.34775">
        <ele>458.4</ele>
      </trkpt>
      <trkpt lat="45.4022" lon="3.34678">
        <ele>453.9</ele>
      </trkpt>
      <trkpt lat="45.40242" lon="3.34635">
        <ele>452.1</ele>
      </trkpt>
      <trkpt lat="45.40255" lon="3.34626">
        <ele>452.4</ele>
      </trkpt>
      <trkpt lat="45.40293" lon="3.34598">
        <ele>452.9</ele>
      </trkpt>
      <trkpt lat="45.40305" lon="3.34589">
        <ele>452.6</ele>
      </trkpt>
      <trkpt lat="45.40311" lon="3.34584">
        <ele>452.7</ele>
      </trkpt>
      <trkpt lat="45.40315" lon="3.34578">
        <ele>452.6</ele>
      </trkpt>
      <trkpt lat="45.40323" lon="3.34564">
        <ele>452</ele>
      </trkpt>
      <trkpt lat="45.40327" lon="3.34553">
        <ele>451.5</ele>
      </trkpt>
      <trkpt lat="45.40328" lon="3.34538">
        <ele>451.4</ele>
        <time>2025-10-04T14:59:43Z</time>
        <extensions>
          <visugpx:TrkExtension xmlns:visugpx="https://www.visugpx.com/editgpx/">
            <visugpx:node>1</visugpx:node>
            </visugpx:TrkExtension>
        </extensions>
      </trkpt>
    </trkseg>
  </trk>
</gpx>